     2              OBSERVATION DATA    GPS                 RINEX VERSION / TYPE
TurboRhino 92 8 25 18 11 43                                 PGM / RUN BY / DATE
TurboRogue rinex formatter V1.0                             COMMENT
sibe                                                        MARKER NAME
PRL OBSERVER/AGENCY 112 0TurboRogue Fri 08/21 16:28:52      REC # / TYPE / VERS
112 0D. AND M. C146-6-1                                     ANT # / TYPE
        0.0614        0.0000        0.0000                  ANTENNA: DELTA H/E/N
 -2304715.0000 -4722106.0000  3603850.0000                  APPROX POSITION XYZ
    30                                                      INTERVAL
                                                            COMMENT
PANGA GPS Data Analysis Center                              COMMENT
Department of Geology                                       COMMENT
Central Washington University                               COMMENT
Ellensburg, WA 98926                                        COMMENT
                                                            COMMENT
http://www.panga.cwu.edu                                    COMMENT
ftp://panga.cwu.edu                                         COMMENT
                                                            COMMENT
     1     1                                                WAVELENGTH FACT L1/2
     5    C1    L1    L2    P1    P2                        # / TYPES OF OBSERV
    92     8    21    18    33   30.0000000                 TIME OF FIRST OBS
    92     8    22     4     0    0.0000000                 TIME OF LAST OBS
                                                            END OF HEADER
 92  8 21 18 33 30.0000000  0  2 20 13
  22927959.67116        -0.36616        -0.04719  22927828.39416  22927832.08516
  23032227.72416        -0.01916        -0.18519  23032096.97816  23032101.11516
 92  8 21 18 34  0.0000000  0  2 20 13
  22903589.96306   -128063.96206    -99789.80709  22903458.64506  22903462.32206
  23038451.55406     32705.54906     25484.61309  23038320.71706  23038324.94706
 92  8 21 18 34 30.0000000  0  2 20 13
  22879396.85706   -255198.97806   -198855.99609  22879265.66406  22879269.33806
  23044819.03606     66166.89006     51558.33509  23044688.19806  23044692.45206
 92  8 21 18 35  0.0000000  0  2 20 13
  22855375.17106   -381433.89106   -297220.80709  22855243.96206  22855247.60406
  23051324.35406    100352.52306     78196.43409  23051193.48906  23051197.66706
 92  8 21 18 35 30.0000000  0  2 20 13
  22831512.10606   -506835.30606   -394936.13609  22831380.82506  22831384.49506
  23057954.42006    135193.25706    105345.00309  23057823.57606  23057827.84906
 92  8 21 18 36  0.0000000  0  2 20 13
  22807796.76206   -631460.48906   -492046.61209  22807665.47006  22807668.98306
  23064697.80806    170629.49606    132957.59909  23064566.96906  23064571.25106
 92  8 21 18 36 30.0000000  0  2 20 13
  22784221.68006   -755348.19306   -588582.42809  22784090.39506  22784093.89006
  23071546.23206    206618.83706    161001.17709  23071415.43306  23071419.86006
 92  8 21 18 37  0.0000000  0  2 20 13
  22760786.13806   -878502.80306   -684547.00409  22760654.87906  22760658.26206
  23078498.89006    243155.01206    189470.86609  23078368.09206  23078372.49506
 92  8 21 18 37 30.0000000  0  2 20 13
  22737486.78906  -1000941.69806   -779953.87909  22737355.43306  22737358.95206
  23085551.72806    280217.60206    218350.74409  23085420.98506  23085425.46706
 92  8 21 18 38  0.0000000  0  2 20 13
  22714317.69206  -1122695.98706   -874827.29509  22714186.37906  22714189.78706
  23092698.26206    317772.46306    247614.21409  23092567.48306  23092571.81206
 92  8 21 18 38 30.0000000  0  2 20 13
  22691275.86706  -1243781.36406   -969179.47809  22691144.56806  22691147.96906
  23099935.02706    355800.49706    277246.38809  23099804.05406  23099808.35406
 92  8 21 18 39  0.0000000  0  2 20 13
  22668358.69206  -1364212.05106  -1063021.50909  22668227.34806  22668230.71406
  23107258.38106    394284.89806    307234.17709  23107127.58106  23107131.83406
 92  8 21 18 39 30.0000000  0  2 20 13
  22645565.21406  -1483992.31306  -1156356.71209  22645433.82806  22645437.20006
  23114667.27406    433219.19006    337572.53609  23114536.43606  23114540.90106
 92  8 21 18 40  0.0000000  0  2 20 13
  22622897.85606  -1603110.05806  -1249175.66809  22622766.46106  22622769.82106
  23122163.61006    472612.59106    368268.62809  23122032.83106  23122037.34506
 92  8 21 18 40 30.0000000  0  2 20 13
  22600358.69206  -1721553.68306  -1341469.33809  22600227.31306  22600230.71106
  23129749.12506    512473.77306    399329.23809  23129618.19006  23129622.65406
 92  8 21 18 41  0.0000000  0  2 20 13
  22577947.23506  -1839326.73206  -1433240.48209  22577815.88106  22577819.26006
  23137422.33306    552796.42506    430749.42709  23137291.38906  23137295.82506
 92  8 21 18 41 30.0000000  0  2 20 13
  22555659.27606  -1956450.84906  -1524505.96809  22555527.81406  22555531.16806
  23145178.79106    593556.09306    462510.15109  23145047.80706  23145052.41306
 92  8 21 18 42  0.0000000  0  2 20 13
  22533490.16106  -2072949.74206  -1615284.26809  22533358.79406  22533362.16506
  23153013.40706    634726.73406    494591.11709  23152882.42906  23152886.89706
 92  8 21 18 42 30.0000000  0  2 20 13
  22511438.08206  -2188834.00606  -1705583.64109  22511306.76406  22511310.03606
  23160923.43006    676294.33706    526981.39909  23160792.44106  23160796.90206
 92  8 21 18 43  0.0000000  0  2 20 13
  22489499.78706  -2304120.61706  -1795417.31109  22489368.38406  22489371.64206
  23168905.38306    718239.56006    559665.93709  23168774.53606  23168778.91706
 92  8 21 18 43 30.0000000  0  2 20 13
  22467671.46306  -2418828.73906  -1884800.21509  22467540.13706  22467543.41206
  23176955.04106    760540.69506    592627.79509  23176824.14706  23176828.67106
 92  8 21 18 44  0.0000000  0  2 20 13
  22445949.44906  -2532979.25806  -1973748.62509  22445817.97906  22445821.25106
  23185067.87506    803174.26606    625848.70009  23184937.05406  23184941.58706
 92  8 21 18 44 30.0000000  0  2 20 13
  22424328.65406  -2646597.03606  -2062281.91609  22424197.24506  22424200.41106
  23193238.77606    846112.27606    659306.83209  23193107.95806  23193112.43406
 92  8 21 18 45  0.0000000  0  2 20 13
  22402806.15406  -2759698.18106  -2150412.63709  22402674.71306  22402677.95906
  23201464.07406    889335.56906    692987.26709  23201333.19906  23201337.65606
 92  8 21 18 45 30.0000000  0  2 20 13
  22381378.71306  -2872299.58706  -2238153.95109  22381247.44506  22381250.55006
  23209739.93706    932825.37506    726875.36609  23209608.93106  23209613.64506
 92  8 21 18 46  0.0000000  0  2 20 13
  22360044.65706  -2984411.30706  -2325513.69109  22359913.19606  22359916.36206
  23218064.05406    976568.02406    760960.48209  23217933.03406  23217937.51606
 92  8 21 18 46 30.0000000  0  2 20 13
  22338801.34806  -3096045.38406  -2412501.24409  22338669.95406  22338673.10006
  23226433.34706   1020548.91606    795231.25309  23226302.36406  23226306.93106
 92  8 21 18 47  0.0000000  0  2 20 13
  22317646.95006  -3207212.40906  -2499124.85809  22317515.57306  22317518.63706
  23234845.50106   1064755.35406    829677.76609  23234714.64206  23234719.14606
 92  8 21 18 47 30.0000000  0  2 20 13
  22296581.12106  -3317913.72906  -2585385.58809  22296449.77906  22296452.80406
  23243299.62406   1109182.45706    864296.22109  23243168.77406  23243173.69206
 92  8 21 18 48  0.0000000  0  2 20 13
  22275600.92706  -3428165.51906  -2671296.03509  22275469.62406  22275472.64806
  23251792.59106   1153812.06206    899072.47709  23251661.70606  23251666.38406
 92  8 21 18 48 30.0000000  0  2 20 13
  22254702.95406  -3537984.93106  -2756869.56309  22254571.58906  22254574.70306
  23260320.13906   1198624.44006    933991.14609  23260189.25506  23260193.73606
 92  8 21 18 49  0.0000000  0  2 20 13
  22233884.82606  -3647385.37906  -2842116.62809  22233753.32506  22233756.40306
  23268879.34906   1243602.77506    969039.13809  23268748.38906  23268752.88606
 92  8 21 18 49 30.0000000  0  2 20 13
  22213144.62806  -3756375.52506  -2927043.97609  22213013.23806  22213016.24406
  23277467.88206   1288735.87706   1004207.73009  23277336.91206  23277341.59106
 92  8 21 18 50  0.0000000  0  2 20 13
  22192481.91306  -3864958.79406  -3011654.27609  22192350.48706  22192353.49606
  23286084.91606   1334017.69006   1039492.19109  23285953.95106  23285958.44606
 92  8 21 18 50 30.0000000  0  2 20 13
  22171897.26506  -3973131.73106  -3095944.84009  22171765.84406  22171768.82406
  23294730.13606   1379448.70206   1074892.90109  23294599.16806  23294603.97806
 92  8 21 18 51  0.0000000  0  2 20 13
  22151391.88606  -4080888.07406  -3179910.78809  22151260.48206  22151263.44706
  23303404.23706   1425032.32306   1110412.53309  23303273.46206  23303278.18706
 92  8 21 18 51 30.0000000  0  2 20 13
  22130965.65906  -4188228.39506  -3263552.56509  22130834.27706  22130837.30006
  23312107.44806   1470766.09106   1146049.16409  23311976.38606  23311981.03606
 92  8 21 18 52  0.0000000  0  2 20 13
  22110617.41706  -4295159.13906  -3346875.19309  22110486.00106  22110488.95406
  23320837.10806   1516640.79606   1181795.60809  23320706.11906  23320710.88106
 92  8 21 18 52 30.0000000  0  2 20 13
  22090346.86306  -4401681.62606  -3429879.69909  22090215.41406  22090218.41406
  23329592.64106   1562652.36706   1217648.70909  23329461.71106  23329466.60906
 92  8 21 18 53  0.0000000  0  2 20 13
  22070152.08806  -4507805.45906  -3512573.56209  22070020.75006  22070023.70206
  23338372.31906   1608788.24606   1253598.66109  23338241.32606  23338246.00506
 92  8 21 18 53 30.0000000  0  2 20 13
  22050034.66306  -4613523.58306  -3594951.28809  22049903.27206  22049906.19706
  23347176.36706   1655053.09106   1289649.12509  23347045.32006  23347050.01406
 92  8 21 18 54  0.0000000  0  2 20 13
  22029992.85006  -4718843.96606  -3677019.08609  22029861.47206  22029864.37106
  23356002.75906   1701436.20806   1325791.73609  23355871.77306  23355876.75406
 92  8 21 18 54 30.0000000  0  2 20 13
  22010024.06806  -4823780.94006  -3758788.12609  22009892.61006  22009895.48606
  23364848.40606   1747920.77006   1362013.40609  23364717.55306  23364722.19806
 92  8 21 18 55  0.0000000  0  2 20 13
  21990125.17606  -4928349.98706  -3840270.46809  21989993.76306  21989996.64506
  23373710.18906   1794488.58106   1398299.93209  23373579.22706  23373584.02606
 92  8 21 18 55 30.0000000  0  2 20 13
  21970296.18206  -5032552.21306  -3921466.97809  21970164.72006  21970167.59706
  23382586.96806   1841136.02406   1434648.52309  23382455.91106  23382460.99006
 92  8 21 18 56  0.0000000  0  2 20 13
  21950536.90006  -5136388.02906  -4002377.97409  21950405.40006  21950408.24106
  23391478.32206   1887859.66306   1471056.46909  23391347.26806  23391352.13606
 92  8 21 18 56 30.0000000  0  2 20 13
  21930846.58606  -5239861.09406  -4083006.30609  21930715.13306  21930717.99706
  23400382.83806   1934653.45006   1507519.08309  23400251.95206  23400256.94606
 92  8 21 18 57  0.0000000  0  2 20 13
  21911224.83306  -5342973.92906  -4163353.94309  21911093.39506  21911096.24506
  23409299.92306   1981511.86506   1544032.04209  23409168.94106  23409173.73006
 92  8 21 18 57 30.0000000  0  2 20 13
  21891670.28106  -5445733.70006  -4243426.46209  21891538.81706  21891541.71506
  23418227.32006   2028425.70706   1580588.21409  23418096.22406  23418101.02206
 92  8 21 18 58  0.0000000  0  2 20 13
  21872182.25606  -5548143.78306  -4323226.49809  21872050.79406  21872053.72006
  23427164.10706   2075389.07706   1617182.95709  23427033.20306  23427038.27206
 92  8 21 18 58 30.0000000  0  2 20 13
  21852759.13406  -5650213.13206  -4402761.02909  21852627.65006  21852630.59306
  23436108.33406   2122390.50106   1653807.35809  23435977.40206  23435982.21806
 92  8 21 18 59  0.0000000  0  2 20 13
  21833400.88106  -5751941.20806  -4482029.63309  21833269.45106  21833272.30706
  23445059.30606   2169427.42706   1690459.41909  23444928.30706  23444933.24006
 92  8 21 18 59 30.0000000  0  2 20 13
  21814107.56806  -5853328.30506  -4561032.54109  21813976.11506  21813979.01506
  23454016.24806   2216497.04606   1727136.97009  23453885.35406  23453890.29206
 92  8 21 19  0  0.0000000  0  2 20 13
  21794880.26806  -5954368.15506  -4639764.86409  21794748.85106  21794751.73106
  23462980.52706   2263602.95106   1763842.78309  23462849.57506  23462854.25906
 92  8 21 19  0 30.0000000  0  2 20 13
  21775718.81506  -6055062.04506  -4718227.61009  21775587.41706  21775590.26106
  23471950.62406   2310741.61806   1800574.13909  23471819.69006  23471824.57906
 92  8 21 19  1  0.0000000  0  2 20 13
  21756622.68906  -6155412.83706  -4796423.00609  21756491.25206  21756494.13806
  23480926.01406   2357907.45006   1837326.65809  23480794.99806  23480800.06006
 92  8 21 19  1 30.0000000  0  2 20 13
  21737592.12506  -6255419.14506  -4874349.97509  21737460.69106  21737463.55806
  23489906.49806   2405099.39206   1874099.50809  23489775.42806  23489780.42006
 92  8 21 19  2  0.0000000  0  2 20 13
  21718626.72806  -6355082.74106  -4952009.89609  21718495.35306  21718498.13306
  23498891.14106   2452313.19806   1910889.40709  23498760.20006  23498765.22606
 92  8 21 19  2 30.0000000  0  2 20 13
  21699726.69606  -6454403.21006  -5029402.44509  21699595.27406  21699598.05606
  23507879.30306   2499546.40906   1947694.42009  23507748.35706  23507753.34306
 92  8 21 19  3  0.0000000  0  2 20 13
  21680892.54906  -6553377.37406  -5106525.14609  21680761.08006  21680763.94206
  23516871.39206   2546800.03806   1984515.33909  23516740.46306  23516745.51906
 92  8 21 19  3 30.0000000  0  2 20 13
  21662125.45206  -6651998.84306  -5183373.02109  21661994.02106  21661996.81706
  23525868.18006   2594077.94206   2021355.16909  23525737.31706  23525742.40806
 92  8 21 19  4  0.0000000  0  2 20 13
  21643425.37006  -6750268.20506  -5259946.52709  21643293.94406  21643296.81906
  23534869.00006   2641376.93406   2058211.44409  23534738.03706  23534743.23906
 92  8 21 19  4 30.0000000  0  2 20 13
  21624791.30106  -6848191.26406  -5336250.18609  21624659.82106  21624662.65906
  23543872.19106   2688688.38106   2095077.40709  23543741.23106  23543746.42806
 92  8 21 19  5  0.0000000  0  2 20 13
  21606223.35506  -6945766.38906  -5412282.72809  21606091.87306  21606094.65206
  23552877.36306   2736011.76406   2131952.67409  23552746.47306  23552751.88206
 92  8 21 19  5 30.0000000  0  2 20 13
  21587720.65506  -7042998.17706  -5488047.73709  21587589.27906  21587592.07106
  23561883.90206   2783339.90206   2168831.64109  23561752.92906  23561758.07006
 92  8 21 19  6  0.0000000  0  2 20 13
  21569283.33406  -7139887.24706  -5563545.69209  21569151.89006  21569154.71506
  23570890.45106   2830669.81506   2205712.01209  23570759.43606  23570764.67206
 92  8 21 19  6 30.0000000  0  2 20 13
  21550910.73606  -7236436.00006  -5638778.46709  21550779.24906  21550781.99006
  23579896.15606   2877996.84806   2242590.12709  23579765.47006  23579770.92906
 92  8 21 19  7  0.0000000  0  2 20 13
  21532599.50606  -7332662.00806  -5713759.75409  21532468.06706  21532470.81606
  23588898.29806   2925300.01606   2279449.63109  23588767.27306  23588772.73006
 92  8 21 19  7 30.0000000  0  2 20 13
  21514346.79306  -7428580.78806  -5788501.64409  21514215.34106  21514218.11206
  23597891.53406   2972561.90006   2316276.98509  23597760.81706  23597766.28806
 92  8 21 19  8  0.0000000  0  2 20 13
  21496152.13506  -7524194.34706  -5863005.70009  21496020.63406  21496023.42106
  23606876.59706   3019778.45506   2353069.01409  23606745.89006  23606751.13306
 92  8 21 19  8 30.0000000  0  2 20 13
  21478017.66606  -7619491.22506  -5937262.98909  21477886.21606  21477889.03306
  23615855.19306   3066957.97606   2389832.18109  23615724.20806  23615729.35606
 92  8 21 19  9  0.0000000  0  2 20 13
  21459946.17606  -7714457.57706  -6011262.72709  21459814.70906  21459817.49806
  23624828.20106   3114112.03906   2426575.52609  23624697.21306  23624702.50506
 92  8 21 19  9 30.0000000  0  2 20 13
  21441939.39006  -7809083.58806  -6084997.26309  21441807.98906  21441810.77906
  23633797.71806   3161248.12106   2463304.83209  23633666.82106  23633672.29406
 92  8 21 19 10  0.0000000  0  2 20 13
  21423997.85006  -7903367.21006  -6158465.00109  21423866.39806  21423869.21106
  23642764.26806   3208366.18306   2500020.10609  23642633.37406  23642638.78306
 92  8 21 19 10 30.0000000  0  2 20 13
  21406122.71506  -7997301.57806  -6231660.59309  21405991.30106  21405994.08706
  23651728.01706   3255470.42706   2536724.63009  23651597.06506  23651602.24906
 92  8 21 19 11  0.0000000  0  2 20 13
  21388313.97106  -8090887.20206  -6304584.44009  21388182.54606  21388185.29906
  23660688.16206   3302557.68206   2573415.89709  23660557.30006  23660562.95306
 92  8 21 19 11 30.0000000  0  2 20 13
  21370571.57206  -8184124.28006  -6377236.69209  21370440.10906  21370442.87606
  23669645.53306   3349625.36006   2610091.90809  23669514.47106  23669519.78606
 92  8 21 19 12  0.0000000  0  2 20 13
  21352896.99006  -8277004.66706  -6449611.00509  21352765.55806  21352768.30306
  23678599.03906   3396679.37606   2646757.28809  23678468.28206  23678474.01106
 92  8 21 19 12 30.0000000  0  2 20 13
  21335291.89206  -8369520.18406  -6521701.00409  21335160.45106  21335163.18206
  23687552.05106   3443725.65906   2683416.61009  23687421.14306  23687426.72806
 92  8 21 19 13  0.0000000  0  2 20 13
  21317757.51506  -8461663.77406  -6593501.19109  21317626.09806  21317628.84806
  23696504.24706   3490768.92206   2720073.61609  23696373.29606  23696378.53106
 92  8 21 19 13 30.0000000  0  2 20 13
  21300296.06606  -8553424.11606  -6665002.74509  21300164.67206  21300167.39706
  23705457.29306   3537818.54106   2756735.55109  23705326.43906  23705332.05206
 92  8 21 19 14  0.0000000  0  2 20 13
  21282910.75006  -8644784.67606  -6736192.77909  21282779.27706  21282782.05906
  23714414.89906   3584888.02206   2793412.96109  23714283.90506  23714289.56206
 92  8 21 19 14 30.0000000  0  2 20 13
  21265601.88706  -8735743.32606  -6807069.63809  21265470.41206  21265473.19006
  23723375.48906   3631977.04306   2830105.58909  23723244.47006  23723250.24506
 92  8 21 19 15  0.0000000  0  2 20 13
  21248369.17206  -8826301.71706  -6877634.60509  21248237.71806  21248240.50106
  23732339.05106   3679081.67306   2866810.40909  23732208.18806  23732213.60806
 92  8 21 19 15 30.0000000  0  2 20 13
  21231210.96306  -8916468.45906  -6947894.39509  21231079.53206  21231082.30206
  23741303.91706   3726191.19906   2903519.04009  23741172.94106  23741178.52706
 92  8 21 19 16  0.0000000  0  2 20 13
  21214125.44706  -9006253.64706  -7017856.87109  21213993.97706  21213996.76106
  23750267.26706   3773292.85206   2940221.52509  23750136.27806  23750142.22106
 92  8 21 19 16 30.0000000  0  2 20 13
  21197110.87606  -9095665.47806  -7087528.41709  21196979.46406  21196982.25306
  23759226.90406   3820376.44306   2976909.93809  23759096.04906  23759101.78706
 92  8 21 19 17  0.0000000  0  2 20 13
  21180168.53606  -9184698.43606  -7156904.73709  21180037.05106  21180039.83906
  23768183.66806   3867445.60306   3013587.12509  23768052.86606  23768058.74906
 92  8 21 19 17 30.0000000  0  2 20 13
  21163299.87406  -9273343.77106  -7225979.01609  21163168.39006  21163171.20206
  23777139.26506   3914506.58906   3050257.93209  23777008.46006  23777014.45106
 92  8 21 19 18  0.0000000  0  2 20 13
  21146507.56406  -9361587.48306  -7294740.34309  21146376.22106  21146378.94506
  23786095.95606   3961570.93906   3086931.35409  23785964.85406  23785970.62606
 92  8 21 19 18 30.0000000  0  2 20 13
  21129795.99006  -9449407.72006  -7363171.68809  21129664.55906  21129667.32106
  23795055.94306   4008658.03106   3123622.51009  23794924.93106  23794930.96306
 92  8 21 19 19  0.0000000  0  2 20 13
  21113167.91006  -9536788.36806  -7431260.49509  21113036.56506  21113039.34806
  23804022.96406   4055781.96506   3160342.36409  23803892.32306  23803898.44406
 92  8 21 19 19 30.0000000  0  2 20 13
  21096624.33806  -9623726.19006  -7499004.24209  21096492.85806  21096495.64506
  23812998.65306   4102944.16306   3197092.04009  23812867.52706  23812873.31106
 92  8 21 19 20  0.0000000  0  2 20 13
  21080163.24106  -9710229.61406  -7566409.49609  21080031.80706  21080034.58406
  23821978.13906   4150133.63406   3233862.96109  23821847.19006  23821853.13806
 92  8 21 19 20 30.0000000  0  2 20 13
  21063783.15106  -9796307.58606  -7633483.23009  21063651.68706  21063654.49006
  23830961.02806   4197339.06806   3270646.34209  23830830.12306  23830835.98606
 92  8 21 19 21  0.0000000  0  2 20 13
  21047482.26106  -9881969.24306  -7700232.56209  21047350.83206  21047353.59106
  23839944.72606   4244548.63506   3307432.90209  23839813.90606  23839820.11506
 92  8 21 19 21 30.0000000  0  2 20 13
  21031260.62106  -9967214.61306  -7766657.51609  21031129.18106  21031131.94206
  23848929.04406   4291760.43706   3344221.22609  23848798.06206  23848803.71306
 92  8 21 19 22  0.0000000  0  2 20 13
  21015116.76806 -10052051.42806  -7832764.11609  21014985.25306  21014987.98006
  23857912.08706   4338964.71706   3381003.71309  23857780.77906  23857786.54406
 92  8 21 19 22 30.0000000  0  2 20 13
  20999051.12906 -10136476.76406  -7898550.08309  20998919.64606  20998922.38206
  23866893.34706   4386162.57606   3417781.18809  23866762.43606  23866768.55006
 92  8 21 19 23  0.0000000  0  2 13 20
  23875871.41306   4433342.38806   3454544.56609  23875740.37706  23875746.66606
  20983062.12106 -10220499.65406  -7964022.45309  20982930.59806  20982933.36306
 92  8 21 19 23 30.0000000  0  2 13 20
  23884843.18406   4480487.66406   3491281.06309  23884712.14906  23884717.89806
  20967146.86606 -10304135.16606  -8029192.97209  20967015.28806  20967018.04806
 92  8 21 19 24  0.0000000  0  2 13 20
  23893806.89006   4527592.29906   3527985.89809  23893675.70506  23893681.53606
  20951304.38706 -10387386.39506  -8094064.04809  20951173.11406  20951175.88706
 92  8 21 19 24 30.0000000  0  2 13 20
  23902762.29906   4574655.14906   3564658.17209  23902631.58706  23902637.89306
  20935535.74006 -10470252.60406  -8158635.10909  20935404.19006  20935406.97106
 92  8 21 19 25  0.0000000  0  2 13 20
  23911711.86906   4621682.28706   3601302.58709  23911580.93006  23911586.64006
  20919841.46806 -10552725.35806  -8222899.58109  20919710.14506  20919712.89706
 92  8 21 19 25 30.0000000  0  2 13 20
  23920654.25006   4668675.81306   3637920.86909  23920523.21106  23920529.09506
  20904223.07606 -10634801.01606  -8286854.63109  20904091.66206  20904094.41806
 92  8 21 19 26  0.0000000  0  2 13 20
  23929591.28806   4715639.60306   3674515.94709  23929460.34306  23929466.50806
  20888681.41506 -10716473.10406  -8350495.20809  20888549.96006  20888552.73306
 92  8 21 19 26 30.0000000  0  2 13 20
  23938525.21306   4762586.99006   3711098.21509  23938394.21106  23938400.31606
  20873219.45206 -10797726.34206  -8413809.41409  20873088.00806  20873090.75106
 92  8 21 19 27  0.0000000  0  2 13 20
  23947459.77106   4809537.81406   3747683.19709  23947328.75206  23947334.65506
  20857841.36206 -10878538.76606  -8476780.12809  20857709.88306  20857712.64906
 92  8 21 19 27 30.0000000  0  2 13 20
  23956395.09006   4856494.89706   3784273.02909  23956264.17406  23956270.21106
  20842548.06806 -10958905.32606  -8539403.41509  20842416.61506  20842419.37806
 92  8 21 19 28  0.0000000  0  2 13 20
  23965332.81806   4903460.45506   3820869.51009  23965201.71206  23965207.74906
  20827340.43606 -11038821.75606  -8601675.95609  20827209.04906  20827211.80406
 92  8 21 19 28 30.0000000  0  2 13 20
  23974271.37706   4950432.66706   3857471.14709  23974140.48506  23974146.61106
  20812218.52206 -11118288.46506  -8663598.06309  20812087.05806  20812089.76806
 92  8 21 19 29  0.0000000  0  2 13 20
  23983209.63806   4997404.83306   3894072.73409  23983078.57506  23983085.15606
  20797181.13206 -11197310.16806  -8725173.41409  20797049.69906  20797052.46106
 92  8 21 19 29 30.0000000  0  2 13 20
  23992148.88906   5044377.55906   3930674.76009  23992017.60006  23992023.85806
  20782229.10506 -11275883.78806  -8786399.60709  20782097.61606  20782100.41906
 92  8 21 19 30  0.0000000  0  2 13 20
  24001088.48806   5091356.68406   3967281.78209  24000957.30906  24000963.62906
  20767363.79006 -11354001.46506  -8847270.51809  20767232.33706  20767235.15006
 92  8 21 19 30 30.0000000  0  2 13 20
  24010029.22106   5138340.42606   4003892.38609  24009898.31306  24009904.51606
  20752585.25006 -11431663.28506  -8907786.21809  20752453.79706  20752456.56306
 92  8 21 19 31  0.0000000  0  2 13 20
  24018969.80206   5185322.78306   4040501.92809  24018838.55606  24018844.84106
  20737892.68406 -11508872.74306  -8967949.42509  20737761.28606  20737764.11106
 92  8 21 19 31 30.0000000  0  2 13 20
  24027908.43006   5232295.72906   4077104.13309  24027777.49306  24027783.62506
  20723285.11106 -11585636.59406  -9027765.40409  20723153.63006  20723156.41306
 92  8 21 19 32  0.0000000  0  2 13 20
  24036846.62806   5279265.75406   4113704.05809  24036715.70406  24036722.27006
  20708763.86506 -11661946.44806  -9087227.61909  20708632.32406  20708635.14406
 92  8 21 19 32 30.0000000  0  2 13 20
  24045787.61006   5326249.61106   4150314.71409  24045656.53906  24045663.18006
  20694332.34906 -11737783.89706  -9146321.72709  20694200.98706  20694203.77006
 92  8 21 19 33  0.0000000  0  2 13 20
  24054732.08106   5373253.17106   4186940.78409  24054601.01806  24054607.16606
  20679992.57106 -11813140.68806  -9205041.29809  20679861.04706  20679863.81606
 92  8 21 19 33 30.0000000  0  2 13 20
  24063677.33406   5420262.89506   4223571.65209  24063546.57506  24063552.92506
  20665741.88106 -11888027.96706  -9263395.01609  20665610.43506  20665613.20406
 92  8 21 19 34  0.0000000  0  2 13 20
  24072624.00406   5467274.48606   4260203.96309  24072492.90906  24072499.20506
  20651580.21106 -11962448.47506  -9321385.01609  20651448.68406  20651451.46606
 92  8 21 19 34 30.0000000  0  2 13 20
  24081571.91206   5514294.74106   4296843.02709  24081440.74806  24081447.62206
  20637508.86206 -12036393.69506  -9379004.66309  20637377.38906  20637380.15906
 92  8 21 19 35  0.0000000  0  1 20
  20623527.74006 -12109864.41606  -9436254.57009  20623396.34906  20623399.10406
 92  8 21 19 35 30.0000000  0  1 20
  20609636.01206 -12182866.39806  -9493139.22609  20609504.55206  20609507.32806
 92  8 21 19 36  0.0000000  0  1 20
  20595831.71406 -12255407.91606  -9549665.08009  20595700.33806  20595703.08506
 92  8 21 19 36 30.0000000  0  1 20
  20582114.74006 -12327491.12806  -9605833.81409  20581983.33806  20581986.13606
 92  8 21 19 37  0.0000000  0  1 20
  20568485.42206 -12399113.81106  -9661643.69509  20568353.97606  20568356.76606
 92  8 21 19 37 30.0000000  0  1 20
  20554944.74506 -12470270.68506  -9717090.60809  20554813.29406  20554816.10106
 92  8 21 19 38  0.0000000  0  1 20
  20541496.22706 -12540942.90706  -9772159.87109  20541364.81306  20541367.61606
 92  8 21 19 38 30.0000000  0  1 20
  20528143.19106 -12611113.89406  -9826838.56209  20528011.73906  20528014.53106
 92  8 21 19 39  0.0000000  0  1 20
  20514887.58006 -12680772.60706  -9881118.07909  20514756.14406  20514758.89706
 92  8 21 19 39 30.0000000  0  1 20
  20501731.46406 -12749908.52706  -9934990.22009  20501600.00206  20501602.79606
 92  8 21 19 40  0.0000000  0  1 20
  20488677.29306 -12818508.55506  -9988444.78309  20488545.83106  20488548.58406
 92  8 21 19 40 30.0000000  0  1 20
  20475725.13206 -12886572.87806 -10041481.91309  20475593.65006  20475596.41006
 92  8 21 19 41  0.0000000  0  1 20
  20462872.61506 -12954113.79006 -10094111.19009  20462741.04806  20462743.78706
 92  8 21 19 41 30.0000000  0  1 20
  20450118.23706 -13021138.21206 -10146338.01009  20449986.73506  20449989.46206
 92  8 21 19 42  0.0000000  0  1 20
  20437463.44506 -13087639.73706 -10198157.37509  20437331.94206  20437334.62506
 92  8 21 19 42 30.0000000  0  1 20
  20424910.75906 -13153604.35106 -10249558.36809  20424779.29406  20424782.00206
 92  8 21 19 43  0.0000000  0  1 20
  20412462.18606 -13219021.92106 -10300533.09609  20412330.71906  20412333.44506
 92  8 21 19 43 30.0000000  0  1 20
  20400118.02206 -13283890.95806 -10351080.39609  20399986.54206  20399989.29006
 92  8 21 19 44  0.0000000  0  1 20
  20387876.69306 -13348219.73406 -10401206.71609  20387745.19406  20387747.94106
 92  8 21 19 44 30.0000000  0  1 20
  20375735.48706 -13412021.36506 -10450922.27409  20375604.13006  20375606.85906
 92  8 21 19 45  0.0000000  0  1 20
  20363695.03206 -13475295.11406 -10500226.49509  20363563.52806  20363566.24906
 92  8 21 19 45 30.0000000  0  1 20
  20351756.53806 -13538031.50506 -10549111.99509  20351625.19906  20351627.92206
 92  8 21 19 46  0.0000000  0  1 20
  20339920.78106 -13600228.32506 -10597577.05109  20339789.54006  20339792.27806
 92  8 21 19 46 30.0000000  0  1 20
  20328186.29906 -13661894.56606 -10645628.67009  20328054.88306  20328057.55906
 92  8 21 19 47  0.0000000  0  1 20
  20316551.88806 -13723033.93906 -10693269.73909  20316420.43106  20316423.13106
 92  8 21 19 47 30.0000000  0  1 20
  20305019.32006 -13783638.24506 -10740493.87409  20304887.86506  20304890.56706
 92  8 21 19 48  0.0000000  0  1 20
  20293590.06406 -13843699.19206 -10787294.61009  20293458.63606  20293461.31106
 92  8 21 19 48 30.0000000  0  1 20
  20282264.25806 -13903216.95606 -10833672.08609  20282132.77906  20282135.48106
 92  8 21 19 49  0.0000000  0  1 20
  20271040.98906 -13962195.50706 -10879629.39709  20270909.51906  20270912.25606
 92  8 21 19 49 30.0000000  0  1 20
  20259916.16106 -14020657.19106 -10925183.95609  20259784.66606  20259787.34406
 92  8 21 19 50  0.0000000  0  1 20
  20248884.11506 -14078631.03506 -10970358.37909  20248752.61006  20248755.28506
 92  8 21 19 50 30.0000000  0  1 20
  20237941.44206 -14136133.87006 -11015165.78409  20237810.17606  20237812.86106
 92  8 21 19 51  0.0000000  0  1 20
  20227090.31406 -14193157.72206 -11059599.95409  20226958.88606  20226961.61206
 92  8 21 19 51 30.0000000  0  1 20
  20216331.25906 -14249697.17706 -11103656.67009  20216199.75606  20216202.51706
 92  8 21 19 52  0.0000000  0  1 20
  20205666.19906 -14305742.52106 -11147328.36609  20205534.67406  20205537.43706
 92  8 21 19 52 30.0000000  0  1 20
  20195099.02206 -14361273.07306 -11190598.92609  20194967.54906  20194970.34806
 92  8 21 19 53  0.0000000  0  1 20
  20184633.30806 -14416270.51206 -11233454.07209  20184501.88706  20184504.68106
 92  8 21 19 53 30.0000000  0  1 20
  20174274.40606 -14470706.90206 -11275872.03909  20174142.94806  20174145.77006
 92  8 21 19 54  0.0000000  0  1 20
  20164026.44906 -14524560.63906 -11317835.99109  20163894.94706  20163897.72906
 92  8 21 19 54 30.0000000  0  1 20
  20153890.00606 -14577828.09606 -11359343.10309  20153758.52206  20153761.31406
 92  8 21 19 55  0.0000000  0  1 20
  20143866.09006 -14630504.02306 -11400389.28409  20143734.62806  20143737.41206
 92  8 21 19 55 30.0000000  0  1 20
  20133954.45906 -14682590.23606 -11440975.94709  20133822.97806  20133825.73006
 92  8 21 19 56  0.0000000  0  1 20
  20124153.68806 -14734093.60706 -11481108.44909  20124022.18506  20124024.96606
 92  8 21 19 56 30.0000000  0  1 20
  20114460.46706 -14785031.99306 -11520800.70209  20114328.97306  20114331.71306
 92  8 21 19 57  0.0000000  0  1 20
  20104871.46706 -14835422.52306 -11560066.05509  20104739.94606  20104742.70806
 92  8 21 19 57 30.0000000  0  1 20
  20095384.30206 -14885278.06006 -11598914.53109  20095252.76606  20095255.55206
 92  8 21 19 58  0.0000000  0  1 20
  20085997.80206 -14934604.30206 -11637350.57009  20085866.27806  20085869.04806
 92  8 21 19 58 30.0000000  0  1 20
  20076710.70406 -14983407.95606 -11675379.39709  20076579.29306  20076582.05506
 92  8 21 19 59  0.0000000  0  1 20
  20067524.07406 -15031684.78306 -11712997.70909  20067392.52106  20067395.28806
 92  8 21 19 59 30.0000000  0  1 20
  20058439.46506 -15079424.21606 -11750197.27309  20058308.00306  20058310.77406
 92  8 21 20  0  0.0000000  0  1 20
  20049461.22206 -15126605.69506 -11786962.06509  20049329.68706  20049332.44206
 92  8 21 20  0 30.0000000  0  1 20
  20040593.70406 -15173204.28106 -11823272.65609  20040462.26706  20040465.02906
 92  8 21 20  1  0.0000000  0  1 20
  20031840.28706 -15219203.84806 -11859116.47909  20031708.82106  20031711.59606
 92  8 21 20  1 30.0000000  0  1 20
  20023199.87306 -15264609.59706 -11894497.58809  20023068.39906  20023071.17906
 92  8 21 20  2  0.0000000  0  1 20
  20014671.62006 -15309426.06906 -11929419.51809  20014540.13406  20014542.90406
 92  8 21 20  2 30.0000000  0  1 20
  20006254.88706 -15353656.41406 -11963884.72609  20006123.41106  20006126.15606
 92  8 21 20  3  0.0000000  0  1 20
  19997948.51206 -15397306.79506 -11997898.01409  19997817.00706  19997819.79706
 92  8 21 20  3 30.0000000  0  1 20
  19989747.07706 -15440405.46406 -12031481.40009  19989615.60306  19989618.38306
 92  8 21 20  4  0.0000000  0  1 20
  19981648.14406 -15482965.69706 -12064645.22509  19981516.69006  19981519.43606
 92  8 21 20  4 30.0000000  0  1 20
  19973651.27906 -15524989.55306 -12097391.09809  19973519.81806  19973522.57506
 92  8 21 20  5  0.0000000  0  1 20
  19965760.54406 -15566455.87406 -12129702.52909  19965629.04606  19965631.78706
 92  8 21 20  5 30.0000000  0  1 20
  19957983.05306 -15607326.60806 -12161549.86609  19957851.57906  19957854.36606
 92  8 21 20  6  0.0000000  0  1 20
  19950324.87006 -15647570.83506 -12192909.01709  19950193.36106  19950196.12306
 92  8 21 20  6 30.0000000  0  1 20
  19942787.39906 -15687180.40406 -12223773.62709  19942655.92806  19942658.71306
 92  8 21 20  7  0.0000000  0  1 20
  19935366.10806 -15726179.60606 -12254162.62809  19935234.63806  19935237.41806
 92  8 21 20  7 30.0000000  0  1 20
  19928059.53706 -15764575.94506 -12284081.86309  19927928.04406  19927930.84806
 92  8 21 20  8  0.0000000  0  1 20
  19920872.09506 -15802346.30406 -12313513.32309  19920740.61006  19920743.42006
 92  8 21 20  8 30.0000000  0  1 20
  19913807.72206 -15839469.90606 -12342440.81409  19913676.24106  19913679.01006
 92  8 21 20 12 18.0000000  4  1
 -2304715.0000 -4722106.0000  3603850.0000                  APPROX POSITION XYZ
 92  8 21 20 10 18.0000000  4  6
3056                                                        MARKER NAME
PRL VRT                                                     OBSERVER / AGENCY
12TurboRogue                                                REC # / TYPE / VERS
        0.1630        0.0000        0.0000                  ANTENNA: DELTA H/E/N
 -2304715.0000 -4722106.0000  3603850.0000                  APPROX POSITION XYZ
Some data from this site may preceed this header.           COMMENT
 92  8 21 20  9  0.0000000  0  1 20
  19906863.59406 -15875961.63206 -12370875.93409  19906732.10206  19906734.90806
 92  8 21 20 13  0.0000000  0  6 16 24 17 03 12 20
  21070043.52716         0.12916         0.09919  21069911.57816  21069914.71516
  22551053.63916        -0.93016        -0.13419  22550922.01616  22550925.29416
  23897744.98316        -0.21116        -0.61619  23897613.13716  23897621.25616
  23240418.63116        -0.76516        -0.39319  23240287.35916  23240292.27116
  24860115.08716         0.28416         0.04219  24859983.70516  24859996.45716
  20577525.39216        -0.52216        -0.42319  20577393.89916  20577396.70816
 92  8 21 20 13 30.0000000  0  6 16 03 17 24 12 20
  21064113.48106    -31162.87506    -24282.73609  21063981.50006  21063984.63606
  23225440.90206    -78708.69206    -61331.17809  23225309.69106  23225314.65006
  23877699.49706   -105338.43606    -82082.15109  23877567.78206  23877575.81306
  22562540.38406     60361.71406     47035.64609  22562408.65006  22562412.01806
  24877006.09806     88761.53406     69164.21309  24876874.76106  24876887.56506
  20571658.92106    -30829.00706    -24022.63509  20571527.46506  20571530.29506
 92  8 21 20 14  0.0000000  0  6 16 03 17 24 12 20
  21058292.46006    -61752.08406    -48118.45709  21058160.53206  21058163.62806
  23210467.82506   -157392.48506   -122643.14909  23210336.60906  23210341.51006
  23857695.54006   -210459.24406   -163994.27209  23857563.77906  23857571.66206
  22574048.54806    120837.44306     94159.54509  22573916.84806  22573920.18006
  24893887.31106    177472.33406    138289.06309  24893756.27806  24893769.43606
  20565907.60006    -61052.74206    -47573.61609  20565776.06406  20565778.93306
 92  8 21 20 14 30.0000000  0  6 16 03 17 24 12 20
  21052586.07206    -91739.14706    -71484.97409  21052454.11206  21052457.20906
  23195501.38906   -236041.85206   -183928.30009  23195370.09006  23195374.95706
  23837734.03206   -315358.02806   -245733.38809  23837602.15006  23837610.10306
  22585577.54506    181423.21606    141369.19009  22585445.94506  22585449.35106
  24910760.51206    266139.16806    207379.65209  24910629.34406  24910642.03606
  20560273.25306    -90661.19106    -70645.15109  20560141.79006  20560144.63306
 92  8 21 20 15  0.0000000  0  6 16 03 17 24 12 20
  21046997.76506   -121105.67506    -94367.95609  21046865.83706  21046868.92606
  23180543.53206   -314645.81906   -245178.07309  23180412.16306  23180417.09806
  23817818.03606   -420016.27606   -327285.07709  23817686.24506  23817694.05106
  22597127.27306    242116.97706    188662.98109  22596995.65406  22596998.98906
  24927626.84806    354770.71106    276442.75509  24927495.66806  24927508.68306
  20554758.43006   -119641.96506    -93227.59009  20554626.93606  20554629.79806
 92  8 21 20 15 30.0000000  0  6 16 03 17 24 12 20
  21041531.80506   -149829.32906   -116749.99909  21041399.88006  21041402.97806
  23165595.54006   -393196.74506   -306386.51909  23165464.44606  23165469.23506
  23797948.31606   -524431.81906   -408647.64609  23797816.47706  23797824.29006
  22608696.60606    302913.89506    236037.15309  22608564.96206  22608568.41706
  24944487.39206    443371.39606    345481.79309  24944356.17606  24944369.48206
  20549364.61106   -147986.59506   -115314.33409  20549233.14706  20549236.02006
 92  8 21 20 16  0.0000000  0  6 16 17 03 24 12 20
  21036190.51706   -177897.68306   -138621.42009  21036058.62506  21036061.69706
  23778120.90506   -628624.67206   -489836.69409  23777989.09506  23777996.86006
  23150657.94206   -471695.05906   -367553.97109  23150526.61906  23150531.43006
  22620283.62906    363803.29606    283483.39609  22620151.92306  22620155.31506
  24961341.34506    531937.46406    414493.85809  24961209.87906  24961223.53206
  20544091.84206   -175695.27206   -136905.53109  20543960.41506  20543963.23006
 92  8 21 20 16 30.0000000  0  6 16 17 03 24 12 20
  21030971.56506   -205323.76106   -159992.36309  21030839.62006  21030842.72406
  23758335.63206   -732596.35906   -570853.40409  23758203.78106  23758211.48406
  23135728.81906   -550147.42906   -428685.62309  23135597.63706  23135602.36406
  22631890.43606    424798.16006    331011.81609  22631758.86906  22631762.30206
  24978186.96906    620459.39506    483471.53509  24978055.56506  24978069.26006
  20538939.05006   -202773.63506   -158005.57209  20538807.55506  20538810.41906
 92  8 21 20 17  0.0000000  0  6 16 17 03 24 12 20
  21025865.89506   -232154.16806   -180899.14709  21025733.96506  21025737.03606
  23738588.48206   -836368.13306   -651714.34309  23738456.59106  23738464.29006
  23120804.42806   -628575.72806   -489798.51609  23120673.14606  23120677.91806
  22643515.35606    485886.78006    378613.29309  22643383.68206  22643387.05206
  24995019.21406    708912.49506    552395.56709  24994887.98906  24994901.68706
  20533902.18006   -229242.63106   -178630.78109  20533770.67506  20533773.53606
 92  8 21 20 17 30.0000000  0  6 16 17 03 24 12 20
  21020868.26306   -258416.68906   -201363.42609  21020736.33206  21020739.39706
  23718873.46406   -939970.09406   -732442.96309  23718741.66806  23718749.28706
  23105880.75206   -707000.24106   -550908.46209  23105749.42906  23105754.21206
  22655153.86006    547047.54506    426270.99109  22655022.22406  22655025.60806
  25011834.08706    797273.22306    621247.61909  25011702.76106  25011716.25506
  20528977.45906   -255122.40306   -198796.85609  20528845.94606  20528848.77906
 92  8 21 20 18  0.0000000  0  6 16 17 03 24 12 20
  21015972.81906   -284142.60106   -221409.56909  21015840.85106  21015843.89806
  23699189.48106  -1043409.19606   -813044.68309  23699057.77306  23699065.24106
  23090954.93106   -785435.95806   -612027.14209  23090823.61906  23090828.30306
  22666805.16506    608274.51206    473980.27209  22666673.43906  22666676.87106
  25028627.84706    885523.67006    690013.73609  25028496.75306  25028510.52306
  20524162.17406   -280426.93506   -218514.69209  20524030.65806  20524033.52706
 92  8 21 20 18 30.0000000  0  6 16 17 03 24 12 20
  21011176.99706   -309344.57606   -241047.45009  21011045.04306  21011048.13506
  23679537.62206  -1146679.68806   -893515.01609  23679405.91906  23679413.37406
  23076026.73206   -863884.32206   -673155.67509  23075895.33206  23075899.96906
  22678469.76206    669571.95506    521744.46809  22678337.97806  22678341.33706
  25045400.04006    973659.18306    758690.27409  25045268.71506  25045282.71406
  20519456.13406   -305157.25906   -237785.09209  20519324.63906  20519327.50506
 92  8 21 20 19  0.0000000  0  6 16 17 03 24 12 20
  21006484.21806   -334005.38406   -260263.64209  21006352.27306  21006355.37706
  23659915.78906  -1249792.45606   -973862.45209  23659783.96906  23659791.53606
  23061095.46606   -942347.60606   -734295.83409  23060964.20506  23060968.83606
  22690143.21506    730916.87806    569545.66909  22690011.53806  22690014.97006
  25062149.08506   1061674.40306    827273.09609  25062017.69406  25062031.76906
  20514859.04906   -329315.08706   -256609.39109  20514727.58106  20514730.49106
 92  8 21 20 19 30.0000000  0  6 16 17 03 24 12 20
  21001896.36306   -358114.67806   -279050.08409  21001764.38406  21001767.48106
  23640323.20806  -1352750.92406  -1054089.65509  23640191.46706  23640198.90006
  23046160.43606  -1020832.18406   -795452.58709  23046029.11906  23046033.65306
  22701822.40006    792291.11006    617369.70409  22701690.72006  22701694.13406
  25078873.43906   1149560.20106    895755.05009  25078742.16806  25078756.33806
  20510369.77206   -352906.41406   -274992.25909  20510238.29406  20510241.22406
 92  8 21 20 20  0.0000000  0  6 16 17 03 24 12 20
  20997416.04106   -381658.28806   -297395.73409  20997284.11106  20997287.20106
  23620762.15806  -1455544.98706  -1134188.75409  23620630.26606  23620637.66906
  23031222.67906  -1099330.49106   -856620.04109  23031091.34206  23031095.83406
  22713509.46306    853706.92206    665226.14109  22713377.74606  22713381.22006
  25095574.16706   1237321.03006    964139.61309  25095443.08206  25095457.19206
  20505989.91206   -375922.88206   -292927.18509  20505858.44406  20505861.34906
 92  8 21 20 20 30.0000000  0  6 16 17 03 24 12 20
  20993048.70206   -404608.89406   -315279.30309  20992916.74706  20992919.85806
  23601233.28706  -1558169.04206  -1214155.38009  23601101.53006  23601108.86106
  23016285.07006  -1177827.73906   -917786.67209  23016153.78906  23016158.33706
  22725206.49206    915175.13706    713123.41009  22725074.78706  22725078.28706
  25112253.40506   1324968.56506   1032435.89609  25112121.87306  25112136.45706
  20501722.42006   -398348.79706   -310401.94009  20501590.93706  20501593.85806
 92  8 21 20 21  0.0000000  0  6 16 17 03 24 12 20
  20988796.15006   -426956.06706   -332692.66809  20988664.18006  20988667.26406
  23581740.68406  -1660602.67606  -1293973.62609  23581608.94106  23581616.12606
  23001349.58406  -1256314.44706   -978945.09009  23001218.29606  23001222.69906
  22736915.00206    976703.97006    761067.91109  22736783.34406  22736786.82306
  25128912.38106   1412509.43306   1100649.08709  25128781.14806  25128795.31006
  20497569.08106   -420174.78206   -327409.21609  20497437.59506  20497440.51106
 92  8 21 20 21 30.0000000  0  6 17 03 24 12 20 16
  23562285.73606  -1762838.63406  -1373637.83809  23562153.90206  23562161.19806
  22986415.86206  -1334791.26006  -1040095.79609  22986284.62106  22986289.00306
  22748638.11306   1038308.10106    809071.08509  22748506.37806  22748509.82606
  25145550.06306   1499939.61106   1168775.97509  25145418.78606  25145433.45106
  20493529.81206   -441401.32706   -343949.39409  20493398.31706  20493401.27406
  20984655.65906   -448714.28806   -349647.10909  20984523.75306  20984526.82206
 92  8 21 20 22  0.0000000  0  6 17 03 24 12 20 16
  23542866.72806  -1864885.50006  -1453154.70609  23542734.92006  23542742.16506
  22971481.40706  -1413272.25506  -1101249.76509  22971350.11306  22971354.48906
  22760373.76606   1099980.07206    857127.11909  22760242.14706  22760245.68506
  25162163.64606   1587242.09306   1236803.37909  25162032.46106  25162047.10906
  20489602.09506   -462041.70706   -360032.81809  20489470.59106  20489473.55306
  20980623.17006   -469905.09306   -366159.40909  20980491.24806  20980494.30706
 92  8 21 20 22 30.0000000  0  6 17 03 24 12 20 16
  23523486.29506  -1966729.93506  -1532513.83809  23523354.42506  23523361.62006
  22956545.24006  -1491761.88906  -1162410.46909  22956413.99006  22956418.37106
  22772121.67406   1161715.83806    905232.86409  22771990.09806  22771993.67206
  25178751.40506   1674409.55606   1304725.56709  25178620.03106  25178634.67606
  20485785.08606   -482100.30606   -375662.90509  20485653.58706  20485656.52806
  20976697.43606   -490535.04306   -382234.68009  20976565.52506  20976568.61106
 92  8 21 20 23  0.0000000  0  6 17 03 24 12 20 16
  23504146.24006  -2068361.33406  -1611706.96809  23504014.54206  23504021.70806
  22941607.27606  -1570261.57606  -1223579.01009  22941475.96706  22941480.28806
  22783881.10106   1223510.74406    953384.68909  22783749.32906  22783752.86106
  25195312.70606   1761437.52506   1372539.04609  25195181.50206  25195196.21506
  20482078.59706   -501578.10406   -390840.42309  20481947.09006  20481950.04606
  20972877.94506   -510606.72006   -397874.93409  20972746.01006  20972749.04306
 92  8 21 20 23 30.0000000  0  5 17 03 24 20 16
  23484847.31606  -2169777.45306  -1690732.35009  23484715.50906  23484722.55406
  22926668.40706  -1648765.56806  -1284750.90009  22926537.12506  22926541.49306
  22795649.87106   1285356.41906   1001576.07709  22795518.22606  22795521.75306
  20478483.70006   -520469.29106   -405560.83909  20478352.21506  20478355.21106
  20969167.08706   -530107.40706   -413070.26309  20969035.12306  20969038.17106
 92  8 21 20 24  0.0000000  0  5 17 03 24 20 16
  23465588.75106  -2270980.80106  -1769591.94209  23465457.02406  23465464.10306
  22911729.05906  -1727271.95906  -1345924.65509  22911597.72906  22911602.07906
  22807424.78006   1347233.39406   1049791.85409  22807293.05406  22807296.59506
  20475000.97106   -538771.44306   -419822.26809  20474869.42706  20474872.43306
  20965566.66906   -549027.53506   -427813.21009  20965434.77406  20965437.80506
 92  8 21 20 24 30.0000000  0  5 17 03 24 20 16
  23446366.52006  -2371994.36406  -1848303.64509  23446234.70906  23446241.61306
  22896787.08206  -1805792.54806  -1407109.47109  22896655.72506  22896660.06206
  22819200.38106   1409114.92406   1098011.18309  22819068.73206  22819072.28306
  20471628.01706   -556496.21306   -433633.79109  20471496.53206  20471499.50306
  20962076.55506   -567368.42906   -442104.80409  20961944.60206  20961947.59106
 92  8 21 20 25  0.0000000  0  5 17 03 24 20 16
  23427173.52706  -2472853.52206  -1926895.03609  23427041.73606  23427048.65706
  22881839.56406  -1884341.64206  -1468316.50409  22881708.26806  22881712.65206
  22830970.48806   1470966.44906   1146207.13109  22830838.79106  22830842.38006
  20468362.25906   -573658.01806   -447006.64009  20468230.76706  20468233.78306
  20958693.07106   -585148.84506   -455959.66309  20958561.09406  20958564.06706
 92  8 21 20 25 30.0000000  0  5 17 03 24 20 16
  23408004.82106  -2573584.53406  -2005386.57509  23407873.19206  23407880.03806
  22866884.04806  -1962932.80306  -1529556.31409  22866752.84506  22866757.14706
  22842731.29906   1532770.18006   1194365.83509  22842599.61806  22842603.25406
  20465201.06006   -590270.20106   -459951.21209  20465069.59606  20465072.58606
  20955413.05706   -602385.65506   -469390.93409  20955281.05006  20955284.01806
 92  8 21 20 26  0.0000000  0  5 17 03 24 20 16
  23388859.87906  -2674191.98006  -2083781.83209  23388728.06506  23388734.90106
  22851920.16006  -2041568.96506  -1590831.19509  22851788.79606  22851793.09306
  22854484.70506   1594534.07006   1242493.49309  22854352.88606  22854356.44406
  20462143.95006   -606335.54306   -472469.67409  20462012.49406  20462015.48706
  20952233.69906   -619093.30606   -482409.87309  20952101.73806  20952104.69406
 92  8 21 20 26 30.0000000  0  5 17 03 24 20 16
  23369740.15806  -2774665.91006  -2162073.05009  23369608.41506  23369615.20406
  22836947.67306  -2120249.35306  -1652140.53409  22836816.44106  22836820.72606
  22866232.46106   1656269.70006   1290599.13709  22866100.83306  22866104.45806
  20459191.04506   -621853.38806   -484561.51809  20459059.53906  20459062.54206
  20949152.23306   -635286.40406   -495027.86009  20949020.29206  20949023.24206
 92  8 21 20 27  0.0000000  0  5 17 03 24 20 16
  23350647.55306  -2874997.65506  -2240253.47509  23350515.73806  23350522.56206
  22821967.93206  -2198967.97506  -1713479.66809  22821836.66506  22821840.96506
  22877977.34806   1717988.95206   1338692.01209  22877845.62406  22877849.31806
  20456343.43106   -636817.66606   -496222.01009  20456211.97906  20456214.95406
  20946167.96206   -650968.88006   -507247.96009  20946036.01406  20946038.96306
 92  8 21 20 27 30.0000000  0  5 17 03 24 20 16
  23331583.53306  -2975179.39006  -2318317.01309  23331451.76906  23331458.37506
  22806981.58506  -2277721.88506  -1774846.29609  22806850.28406  22806854.57106
  22889721.22106   1779703.29206   1386781.06309  22889589.54506  22889593.18706
  20453601.69806   -651225.82206   -507449.16409  20453470.20006  20453473.19306
  20943282.55406   -666131.81806   -519063.22409  20943150.61906  20943153.55206
 92  8 21 20 28  0.0000000  0  5 17 03 24 20 16
  23312550.03206  -3075200.15406  -2396255.11909  23312418.29806  23312424.96606
  22791988.44006  -2356510.81606  -1836240.21509  22791857.20006  22791861.48206
  22901463.86006   1841411.32206   1434865.19609  22901332.22106  22901335.86006
  20450965.82606   -665077.29206   -518242.53709  20450834.37506  20450837.35706
  20940496.01906   -680775.04306   -530473.51809  20940364.05806  20940366.98306
 92  8 21 20 28 30.0000000  0  5 17 03 24 20 16
  23293545.39006  -3175070.04406  -2474075.66509  23293413.51306  23293420.19906
  22776989.20206  -2435332.23006  -1897659.44109  22776857.92606  22776862.19006
  22913205.73006   1903114.63406   1482945.65109  22913074.05706  22913077.72606
  20448436.44306   -678369.72106   -528600.29409  20448304.92606  20448307.91606
  20937810.79006   -694885.88406   -541468.96609  20937678.82306  20937681.72406
 92  8 21 20 29  0.0000000  0  5 17 03 24 20 16
  23274569.47506  -3274787.84906  -2551777.70209  23274437.70906  23274444.34006
  22761986.31406  -2514173.09706  -1959093.82709  22761855.00806  22761859.31706
  22924948.97706   1964825.68706   1531032.14009  22924817.26106  22924820.93406
  20446015.83606   -691090.14006   -538512.32909  20445884.33206  20445887.32906
  20935233.36506   -708430.49306   -552023.19709  20935101.35806  20935104.32506
 92  8 21 20 29 30.0000000  0  5 17 03 24 20 16
  23255628.39006  -3374324.16906  -2629338.32109  23255496.54106  23255503.16006
  22746982.66106  -2593017.52906  -2020530.98809  22746851.33506  22746855.64506
  22936698.86906   2026571.29506   1579145.55709  22936567.19006  22936570.79706
  20443707.09506   -703222.88706   -547966.43909  20443575.57406  20443578.53606
  20932767.36506   -721389.03206   -562120.74909  20932635.43306  20932638.36106
 92  8 21 20 30  0.0000000  0  5 17 03 24 20 16
  23236725.30806  -3473659.49006  -2706742.32009  23236593.48406  23236600.08306
  22731980.23006  -2671855.07806  -2081962.78209  22731849.00006  22731853.21506
  22948460.37706   2088378.55106   1627307.00809  22948328.70306  22948332.40606
  20441512.11306   -714757.74206   -556954.66009  20441380.59606  20441383.56706
  20930413.57406   -733758.35706   -571759.17109  20930281.60706  20930284.52706
 92  8 21 20 30 30.0000000  0  5 17 03 24 20 16
  23217861.77406  -3572787.34106  -2783984.65209  23217729.97406  23217736.52006
  22716980.35706  -2750679.92306  -2143384.67909  22716849.06706  22716853.34806
  22960237.70706   2150268.55906   1675532.94009  22960106.01706  22960109.62106
  20439431.97306   -725688.89406   -565472.46309  20439300.50206  20439303.44906
  20928173.66006   -745528.96006   -580931.05609  20928041.74106  20928044.67206
 92  8 21 20 31  0.0000000  0  5 17 03 24 20 16
  23199043.51406  -3671677.22506  -2861041.55709  23198911.81206  23198918.25306
  22701983.88706  -2829486.64506  -2204792.45509  22701852.58006  22701856.83606
  22972031.07306   2212243.16506   1723824.79909  22971899.50706  22971903.14606
  20437467.63206   -736011.65506   -573516.19409  20437336.14806  20437339.11106
  20926046.96506   -756705.11606   -589639.73509  20925915.03706  20925917.99706
 92  8 21 20 31 30.0000000  0  5 17 03 24 20 16
  23180272.66706  -3770318.10606  -2937904.43209  23180140.88406  23180147.32706
  22686992.36006  -2908267.03206  -2266179.71109  22686861.09206  22686865.37206
  22983842.17406   2274309.95006   1772188.48109  22983710.45506  22983714.16306
  20435620.61506   -745717.93706   -581079.55309  20435489.12506  20435492.12606
  20924033.28306   -767286.97406   -597885.32409  20923901.31106  20923904.24506
 92  8 21 20 32  0.0000000  0  5 17 03 24 20 16
  23161546.78806  -3868723.01406  -3014583.43309  23161415.02906  23161421.39206
  22672005.47006  -2987023.71906  -2327548.49809  22671874.19106  22671878.45706
  22995666.14506   2336445.55606   1820605.79209  22995534.49206  22995538.16206
  20433890.40706   -754810.40406   -588164.61509  20433758.90406  20433761.89206
  20922132.36906   -777276.07106   -605669.02209  20922000.44306  20922003.40306
 92  8 21 20 32 30.0000000  0  5 17 03 24 20 16
  23142863.72906  -3966902.58606  -3091086.84909  23142731.95706  23142738.32106
  22657022.25706  -3065761.12906  -2388902.26609  22656890.95806  22656895.15206
  23007496.56006   2398614.22806   1869048.86609  23007364.89606  23007368.56306
  20432275.97306   -763294.38106   -594775.52809  20432144.47506  20432147.48606
  20920344.75606   -786670.25806   -612989.15509  20920212.79306  20920215.72006
 92  8 21 20 33  0.0000000  0  5 17 03 24 20 16
  23124221.02706  -4064869.97406  -3167424.92609  23124089.27506  23124095.56506
  22642041.58706  -3144485.08706  -2450245.55409  22641910.25406  22641914.46906
  23019325.97806   2460778.06806   1917488.17609  23019194.29106  23019197.99706
  20430776.16306   -771175.92606   -600917.01309  20430644.66306  20430647.70406
  20918669.27706   -795474.87606   -619849.88209  20918537.34706  20918540.28306
 92  8 21 20 33 30.0000000  0  5 17 03 24 20 16
  23105615.37606  -4162643.67206  -3243612.07709  23105483.46706  23105489.66506
  22627063.23106  -3223196.71006  -2511579.23209  22626931.89206  22626936.06806
  23031151.47406   2522920.59706   1965910.87309  23031019.77006  23031023.41406
  20429390.63206   -778456.79206   -606590.43709  20429259.15006  20429262.20206
  20917107.57506   -803681.88206   -626244.93409  20916975.62506  20916978.53006
 92  8 21 20 34  0.0000000  0  5 17 03 24 20 16
  23087046.66006  -4260221.75006  -3319646.80409  23086914.88706  23086921.06806
  22612086.37306  -3301900.52006  -2572906.82409  22611955.02206  22611959.08706
  23042970.13706   2585027.96906   2014306.18209  23042838.37706  23042842.06506
  20428118.53706   -785141.75406   -611799.51809  20427987.03806  20427990.13906
  20915656.65506   -811306.14606   -632185.90509  20915524.71206  20915527.61706
 92  8 21 20 34 30.0000000  0  5 17 03 24 20 16
  23068511.58406  -4357623.81506  -3395544.37809  23068379.74106  23068385.94906
  22597107.37206  -3380615.27306  -2634242.94609  22596976.10706  22596980.18006
  23054780.51206   2647091.61106   2062667.41009  23054648.72906  23054652.51006
  20426956.10106   -791250.48706   -616559.59109  20426824.60706  20426827.69506
  20914310.39306   -818381.16706   -637698.89309  20914178.39806  20914181.32006
 92  8 21 20 35  0.0000000  0  5 17 03 24 20 16
  23050005.06406  -4454875.74806  -3471324.96709  23049873.29606  23049879.42206
  22582121.40306  -3459366.92906  -2695607.82709  22581990.07706  22581994.08806
  23066582.09806   2709109.23606   2110992.78809  23066450.31306  23066454.09706
  20425898.37006   -796809.11506   -620891.01009  20425766.83806  20425769.95006
  20913061.29506   -824945.17506   -642813.69009  20912929.36106  20912932.28806
 92  8 21 20 35 30.0000000  0  5 17 03 24 20 16
  23031525.47606  -4551986.29906  -3546995.39009  23031393.66106  23031399.76406
  22567127.17606  -3538161.78706  -2757006.37009  22566995.86206  22567000.04406
  23078380.68506   2771110.90706   2159305.72809  23078248.87606  23078252.68806
  20424943.91106   -801824.85406   -624799.39809  20424812.41206  20424815.48306
  20911907.61706   -831008.09906   -647538.03009  20911775.65206  20911778.59206
 92  8 21 20 36  0.0000000  0  5 17 03 24 20 16
  23013075.08406  -4648943.15906  -3622546.05209  23012943.28406  23012949.45006
  22552125.04906  -3616998.77506  -2818437.74009  22551993.68706  22551997.69006
  23090179.69806   2833115.68106   2207621.08809  23090048.01906  23090051.85206
  20424092.85806   -806297.21506   -628284.37309  20423961.39606  20423964.45706
  20910846.62906   -836583.01606   -651882.10509  20910714.67306  20910717.62106
 92  8 21 20 36 30.0000000  0  5 17 03 24 20 16
  22994655.19206  -4745738.93806  -3697971.19909  22994523.40506  22994529.52606
  22537116.55206  -3695867.87506  -2879894.13009  22536985.35906  22536989.43806
  23101983.42806   2895144.62206   2255955.28409  23101851.68906  23101855.49806
  20423347.07406   -810216.59806   -631338.45909  20423215.55006  20423218.63306
  20909881.72106   -841653.27206   -655832.93809  20909749.77706  20909752.74306
 92  8 21 20 37  0.0000000  0  5 17 03 24 20 16
  22976270.06106  -4842353.51606  -3773255.15009  22976138.23106  22976144.34806
  22522104.84706  -3774754.99706  -2941364.56309  22521973.58706  22521977.61706
  23113794.57906   2957212.54906   2304319.85309  23113662.91706  23113666.83106
  20422709.01606   -813569.76506   -633951.33709  20422577.53306  20422580.56006
  20909020.16206   -846180.77806   -659360.84809  20908888.20306  20908891.16406
 92  8 21 20 37 30.0000000  0  5 17 03 24 20 16
  22957921.10906  -4938777.21606  -3848390.36509  22957789.32206  22957795.41806
  22507091.77106  -3853649.68406  -3002840.89109  22506960.36406  22506964.44906
  23125611.98506   3019312.82906   2352709.63809  23125480.17706  23125484.15506
  20422180.55206   -816347.04006   -636115.46809  20422049.02406  20422052.09906
  20908265.55006   -850146.18106   -662450.75509  20908133.63706  20908136.59006
 92  8 21 20 38  0.0000000  0  5 17 03 24 20 16
  22939609.47906  -5035004.90006  -3923372.84209  22939477.68206  22939483.74606
  22492076.76806  -3932553.48706  -3064324.32509  22491945.44606  22491949.51206
  23137430.33206   3081419.11306   2401104.09809  23137298.62906  23137302.61906
  20421761.13906   -818551.06306   -637832.91009  20421629.63606  20421632.70206
  20907615.44006   -853562.47706   -665112.78609  20907483.48906  20907486.45906
 92  8 21 20 38 30.0000000  0  5 17 03 24 20 16
  22921332.99606  -5131047.58506  -3998211.16809  22921201.23206  22921207.27706
  22477059.89906  -4011467.32506  -3125815.58009  22476928.62406  22476932.68406
  23149246.49906   3143512.77806   2449488.72809  23149114.76506  23149118.66906
  20421450.53806   -820183.42806   -639104.90509  20421319.03406  20421322.13506
  20907071.80406   -856419.26806   -667338.84309  20906939.87106  20906942.79806
 92  8 21 20 39  0.0000000  0  5 17 03 24 20 16
  22903092.39506  -5226901.65906  -4072902.52609  22902960.71806  22902966.75706
  22462041.85306  -4090387.80406  -3187312.01109  22461910.47706  22461914.52106
  23161056.41706   3205574.08206   2497848.14009  23160924.65606  23160928.70506
  20421249.20106   -821241.57106   -639929.45509  20421117.68006  20421120.74106
  20906635.24406   -858713.05106   -669126.18909  20906503.29106  20906506.19906
 92  8 21 20 39 30.0000000  0  5 17 03 24 20 16
  22884888.32206  -5322564.42806  -4147444.81509  22884756.55906  22884762.56006
  22447024.80506  -4169302.80006  -3248804.16709  22446893.39706  22446897.43906
  23172859.57806   3267600.48506   2546180.34909  23172727.88206  23172731.87006
  20421159.19806   -821714.17006   -640297.73809  20421027.75006  20421030.86606
  20906303.67606   -860455.73906   -670484.11309  20906171.70206  20906174.62206
 92  8 21 20 40  0.0000000  0  5 17 03 24 20 16
  22866724.31006  -5418016.65206  -4221823.04009  22866592.51506  22866598.46806
  22432011.42306  -4248197.91206  -3310280.83509  22431880.14806  22431884.16906
  23184659.70406   3329608.91306   2594498.55909  23184527.84506  23184531.76806
  20421183.26306   -821588.15306   -640199.56609  20421051.75006  20421054.85906
  20906078.62206   -861638.31206   -671405.58409  20905946.67906  20905949.58706
 92  8 21 20 40 30.0000000  0  5 17 03 24 20 16
  22848602.68806  -5513246.27306  -4296027.80609  22848470.84906  22848476.77906
  22417002.29106  -4327070.71106  -3371740.11009  22416871.10206  22416875.15006
  23196458.01906   3391610.95406   2642811.78609  23196326.45306  23196330.40806
  20421321.48606   -820861.79306   -639633.59709  20421189.99506  20421193.12306
  20905963.09806   -862245.68606   -671878.85109  20905831.09206  20905834.00306
 92  8 21 20 41  0.0000000  0  5 17 03 24 20 16
  22830523.68506  -5608251.10606  -4370057.41409  22830391.96306  22830397.78406
  22401998.84106  -4405914.61006  -3433176.86809  22401867.57806  22401871.63506
  23208260.40106   3453632.32006   2691140.06609  23208128.72606  23208132.74906
  20421575.04206   -819529.49206   -638595.46509  20421443.51906  20421446.66806
  20905958.36306   -862270.11506   -671897.87409  20905826.36906  20905829.27406
 92  8 21 20 41 30.0000000  0  5 17 03 24 20 16
  22812487.89706  -5703030.29506  -4443911.19809  22812356.02906  22812361.82906
  22387001.35306  -4484727.04406  -3494589.10709  22386870.02806  22386874.01806
  23220071.28206   3515697.70306   2739502.65209  23219939.41006  23219943.45606
  20421944.14006   -817589.90306   -637084.12309  20421812.63006  20421815.75206
  20906065.93906   -861704.35806   -671457.01209  20905934.01406  20905936.93406
 92  8 21 20 42  0.0000000  0  5 17 03 24 20 16
  22794497.55106  -5797569.06006  -4517577.63909  22794365.76106  22794371.60206
  22372009.35406  -4563510.75206  -3555978.96309  22371877.94806  22371881.87606
  23231890.33606   3577808.63606   2787900.73009  23231758.74106  23231762.74906
  20422428.07606   -815046.88506   -635102.57209  20422296.59606  20422299.71406
  20906287.59806   -860539.65706   -670549.44209  20906155.67206  20906158.56606
 92  8 21 20 42 30.0000000  4  1
 -2304715.0000 -4722106.0000  3603850.0000                  APPROX POSITION XYZ
 92  8 21 20 42 30.0000000  0  5 17 03 24 20 16
  22776550.37006  -5891882.38906  -4591068.41809  22776418.47506  22776424.28806
  22357022.04006  -4642269.11806  -3617349.07209  22356890.70006  22356894.64206
  23243716.00006   3639951.77906   2836323.90609  23243584.22106  23243588.20406
  20423025.96806   -811905.04106   -632654.40709  20422894.47706  20422897.61506
  20906625.38506   -858764.51106   -669166.20009  20906493.44906  20906496.32406
 92  8 21 20 43  0.0000000  0  5 17 03 24 20 16
  22758641.25106  -5985994.08606  -4664402.08309  22758509.48106  22758515.20506
  22342038.33506  -4721008.69206  -3678704.53809  22341906.99606  22341910.96006
  23255543.21306   3702104.26206   2884754.35309  23255411.45106  23255415.60606
  20423736.46706   -808171.62406   -629745.27809  20423604.94006  20423608.08906
  20907076.17306   -856396.11206   -667320.68709  20906944.18606  20906947.09006
 92  8 21 20 43 30.0000000  0  5 17 03 24 20 16
  22740774.17906  -6079886.27206  -4737564.70209  22740642.29106  22740648.01706
  22327058.95206  -4799725.38006  -3740042.16709  22326927.67206  22326931.61106
  23267368.26706   3764245.47606   2933176.02809  23267236.62706  23267240.63506
  20424559.92706   -803844.22006   -626373.30009  20424428.44806  20424431.57506
  20907636.55906   -853450.86006   -665025.67709  20907504.64206  20907507.51006
 92  8 21 20 44  0.0000000  0  5 17 03 24 20 16
  22722951.18106  -6173545.97106  -4810546.16509  22722819.41206  22722825.02506
  22312086.60906  -4878405.20206  -3801351.06709  22311955.36306  22311959.29306
  23279191.58906   3826376.91706   2981590.07909  23279059.89406  23279063.91106
  20425498.93906   -798909.96006   -622528.44709  20425367.43106  20425370.54706
  20908306.26706   -849931.56706   -662283.36209  20908174.30506  20908177.16506
 92  8 21 20 44 30.0000000  0  5 17 03 24 20 16
  22705171.07606  -6266980.64906  -4883352.28409  22705039.21606  22705044.79406
  22297124.85606  -4957029.70606  -3862616.86409  22296993.53706  22296997.49906
  23291017.97406   3888525.48606   3030017.48509  23290886.40606  23290890.41706
  20426556.58806   -793352.13506   -618197.70209  20426425.08606  20426428.18506
  20909086.59106   -845831.02506   -659088.12909  20908954.64906  20908957.50806
 92  8 21 20 45  0.0000000  0  5 17 03 24 20 16
  22687437.97906  -6360168.30606  -4955965.92009  22687306.10706  22687311.64106
  22282175.50906  -5035588.73506  -3923831.64109  22282044.23406  22282048.19006
  23302852.35806   3950714.80006   3078476.63809  23302720.65606  23302724.77206
  20427734.65706   -787161.38106   -613373.76609  20427603.15506  20427606.29206
  20909975.29006   -841160.91606   -655449.07809  20909843.34606  20909846.19706
 92  8 21 20 45 30.0000000  0  5 17 03 24 20 16
  22669757.38806  -6453080.02306  -5028364.54109  22669625.60506  22669631.07506
  22267241.16006  -5114069.37006  -3984985.33509  22267109.86306  22267113.79006
  23314698.90906   4012968.75706   3126986.15309  23314567.22306  23314571.32006
  20429035.34106   -780326.59106   -608047.98509  20428903.80206  20428906.94406
  20910976.38806   -835899.99206   -651349.65209  20910844.41906  20910847.27906
 92  8 21 20 46  0.0000000  0  5 17 03 24 20 16
  22652129.03006  -6545717.29806  -5100549.31309  22651997.19906  22652002.61306
  22252322.42106  -5192467.89506  -4046075.04409  22252191.10606  22252195.02206
  23326562.78406   4075312.57706   3175565.70309  23326430.89906  23326434.92606
  20430459.07906   -772844.85606   -602218.08909  20430327.53606  20430330.68206
  20912094.45706   -830024.49306   -646771.33509  20911962.51806  20911965.35806
 92  8 21 20 46 30.0000000  0  5 17 03 24 20 16
  22634554.13906  -6638073.34306  -5172514.94409  22634422.34606  22634427.72606
  22237418.17706  -5270789.95206  -4107105.16509  22237286.87506  22237290.82206
  23338442.78206   4137742.51606   3224212.34709  23338310.98006  23338315.17106
  20432004.45606   -764723.94306   -595890.13209  20431872.94506  20431876.07506
  20913329.93506   -823531.86206   -641712.13709  20913198.02406  20913200.88006
 92  8 21 20 47  0.0000000  0  5 17 03 24 20 16
  22617036.84906  -6730127.13806  -5244245.05909  22616905.01106  22616910.43406
  22222527.10106  -5349042.51406  -4168081.13809  22222395.84306  22222399.88006
  23350335.41606   4200238.82006   3272910.70309  23350203.75506  23350207.80606
  20433669.98906   -755971.65906   -589070.19909  20433538.47906  20433541.62406
  20914682.44906   -816424.68506   -636174.07209  20914550.48006  20914553.36206
 92  8 21 20 47 30.0000000  0  5 17 03 24 20 16
  22599573.17306  -6821898.97706  -5315755.46709  22599441.29406  22599446.65006
  22207645.86206  -5427243.76806  -4229017.12809  22207514.59206  22207518.62306
  23362235.52506   4262774.79106   3321639.96309  23362103.96206  23362107.97206
  20435451.95006   -746607.53906   -581773.51209  20435320.41206  20435323.57006
  20916149.34906   -808715.62106   -630167.00509  20916017.44806  20916020.32906
 92  8 21 20 48  0.0000000  0  5 17 03 24 20 16
  22582157.60206  -6913417.66506  -5387068.61709  22582025.83306  22582031.15306
  22192770.81206  -5505412.37906  -4289927.68709  22192639.56606  22192643.60106
  23374137.65806   4325320.79406   3370377.05909  23374006.02706  23374010.17006
  20437346.39706   -736652.27506   -574016.19109  20437214.86506  20437218.03006
  20917725.44106   -800433.20506   -623713.17109  20917593.54806  20917596.43606
 92  8 21 20 48 30.0000000  0  5 17 03 24 20 16
  22564788.65106  -7004691.69406  -5458191.12109  22564656.80306  22564662.21806
  22177901.37206  -5583551.50106  -4350815.26509  22177770.16606  22177774.15406
  23386037.20606   4387851.50906   3419102.21809  23385905.33706  23385909.56506
  20439352.40606   -726110.72806   -565802.02709  20439220.88306  20439224.05806
  20919407.54006   -791594.07906   -616825.53709  20919275.60506  20919278.50606
 92  8 21 20 49  0.0000000  0  5 17 03 24 20 16
  22547463.70406  -7095734.73806  -5529133.63609  22547331.82406  22547337.16206
  22163037.91406  -5661659.66606  -4411678.72309  22162906.60806  22162910.59706
  23397932.77706   4450363.40806   3467812.71809  23397801.05306  23397805.16106
  20441469.93106   -714983.12206   -557131.19009  20441338.38006  20441341.57906
  20921195.20906   -782199.72206   -609505.25309  20921063.27706  20921066.17206
 92  8 21 20 49 30.0000000  0  5 17 03 24 20 16
  22530179.84106  -7186561.04606  -5599907.26309  22530048.08006  22530053.38606
  22148180.80006  -5739733.84406  -4472515.69709  22148049.52406  22148053.55706
  23409827.64606   4512872.53506   3516521.06209  23409696.05506  23409700.19306
  20443699.24106   -703267.95506   -548002.51509  20443567.74706  20443570.93106
  20923088.99206   -772247.91006   -601750.59009  20922957.02406  20922959.89906
 92  8 21 20 50  0.0000000  0  5 17 03 24 20 16
  22512933.65206  -7277190.19206  -5670527.25709  22512801.82706  22512807.09706
  22133330.23106  -5817774.26406  -4533326.37009  22133198.93306  22133202.85806
  23421723.01006   4575380.82006   3565228.75109  23421591.10506  23421595.46006
  20446040.10406   -690966.81306   -538417.23509  20445908.58706  20445911.78206
  20925088.76606   -761739.03906   -593561.85609  20924956.79006  20924959.65906
 92  8 21 20 50 30.0000000  0  5 17 03 24 20 16
  22495725.67806  -7367617.78406  -5740990.19609  22495593.84306  22495599.17906
  22118488.07806  -5895770.02706  -4594102.24309  22118356.83506  22118360.74506
  23433621.03706   4637907.00306   3613950.37609  23433489.51806  23433493.68006
  20448494.10206   -678070.88706   -528368.48609  20448362.59406  20448365.81106
  20927196.83206   -750661.04306   -584929.64709  20927064.86206  20927067.74706
 92  8 21 20 51  0.0000000  0  5 17 03 24 20 16
  22478557.38806  -7457837.30406  -5811291.00009  22478425.60806  22478430.91306
  22103655.70206  -5973714.97806  -4654838.52509  22103524.34906  22103528.25006
  23445526.53506   4700469.69506   3662700.46309  23445394.71606  23445399.04606
  20451062.17806   -664575.77906   -517852.84309  20450930.69806  20450933.88106
  20929414.59106   -739006.34306   -575848.05809  20929282.64006  20929285.53206
 92  8 21 20 51 30.0000000  0  5 17 03 24 20 16
  22461428.42906  -7547850.17406  -5881430.77909  22461296.62906  22461301.87906
  22088833.16006  -6051607.45606  -4715533.91809  22088701.90406  22088705.78806
  23457438.15006   4763065.60606   3711476.42409  23457306.52306  23457310.70006
  20453744.23906   -650481.48906   -506870.30509  20453612.75506  20453615.95606
  20931741.99906   -726775.61906   -566317.62109  20931610.11906  20931612.97806
 92  8 21 20 52  0.0000000  0  5 17 03 24 20 16
  22444338.33006  -7637658.80106  -5951411.40309  22444206.53006  22444211.80806
  22074018.59306  -6129458.60106  -4776197.10309  22073887.27206  22073891.13306
  23469350.20406   4825663.37406   3760253.85409  23469218.47406  23469222.86106
  20456537.85406   -635801.21906   -495431.15809  20456406.34706  20456409.53106
  20934175.44806   -713988.25506   -556353.44109  20934043.52406  20934046.39606
 92  8 21 20 52 30.0000000  0  5 17 03 24 20 16
  22427287.97106  -7727258.73206  -6021229.40709  22427156.15906  22427161.34406
  22059208.04406  -6207287.56806  -4836843.00309  22059076.81206  22059080.74906
  23481257.69006   4888238.14906   3809013.34209  23481126.04706  23481130.47506
  20459438.95806   -620555.92406   -483551.73309  20459307.44806  20459310.66206
  20936711.24906   -700662.06906   -545969.40209  20936579.30606  20936582.16406
 92  8 21 20 53  0.0000000  0  5 17 03 24 20 16
  22410276.53206  -7816653.99706  -6090887.93109  22410144.64006  22410149.78706
  22044398.83506  -6285110.92506  -4897484.53409  22044267.46406  22044271.40106
  23493157.91406   4950773.53206   3857742.15709  23493026.12506  23493030.61406
  20462444.18406   -604763.59906   -471246.05209  20462312.65606  20462315.87706
  20939347.78706   -686807.10106   -535173.32109  20939215.82906  20939218.65906
 92  8 21 20 53 30.0000000  0  5 17 03 24 20 16
  22393301.16806  -7905860.11006  -6160399.06709  22393169.28806  22393174.41406
  22029585.84306  -6362953.59106  -4958141.10809  22029454.43906  22029458.42506
  23505043.87506   5013234.68106   3906413.12209  23504912.29106  23504916.61006
  20465548.23406   -588451.63906   -458535.46109  20465416.74706  20465419.95606
  20942081.32406   -672442.06006   -523979.78409  20941949.36306  20941952.25406
 92  8 21 20 54  0.0000000  0  5 17 03 24 20 16
  22376362.81806  -7994870.57106  -6229757.74409  22376231.12606  22376236.19706
  22014767.95206  -6440821.94006  -5018817.69209  22014636.62106  22014640.48006
  23516915.27806   5075619.87606   3955024.90709  23516783.70306  23516788.07406
  20468749.64006   -571628.39906   -445426.46909  20468618.09706  20468621.31406
  20944910.71306   -657573.92706   -512394.22709  20944778.79106  20944781.59906
 92  8 21 20 54 30.0000000  0  5 17 03 24 20 16
  22359458.25506  -8083704.90306  -6298979.17809  22359326.40206  22359331.42206
  21999942.80706  -6518728.42006  -5079523.99209  21999811.51206  21999815.32706
  23528770.92406   5137920.44906   4003570.74209  23528639.32306  23528643.64406
  20472045.59106   -554308.07806   -431930.14409  20471914.09406  20471917.29306
  20947834.50006   -642209.14006   -500421.66709  20947702.54406  20947705.40406
 92  8 21 20 55  0.0000000  0  5 17 03 24 20 16
  22342588.15106  -8172357.42706  -6368058.94809  22342456.29606  22342461.29206
  21985111.73306  -6596665.65606  -5140254.26109  21984980.55506  21984984.27306
  23540610.80706   5200139.15206   4052052.78709  23540479.10006  23540483.45106
  20475437.18806   -536485.19006   -418042.20909  20475305.67306  20475308.92806
  20950850.80806   -626358.37906   -488070.42609  20950718.85806  20950721.74906
 92  8 21 20 55 30.0000000  0  5 17 03 24 20 16
  22325756.04206  -8260810.01306  -6436982.92209  22325624.19206  22325629.14706
  21970278.93906  -6674612.72306  -5200992.19409  21970147.68206  21970151.44506
  23552437.03806   5262286.11006   4100478.92109  23552305.28706  23552309.88706
  20478927.86106   -518141.62206   -403748.54709  20478796.35806  20478799.61206
  20953958.88906   -610025.14006   -475343.22709  20953826.96206  20953829.83006
 92  8 21 20 56  0.0000000  0  5 17 03 24 20 16
  22308963.48906  -8349055.13206  -6505745.23409  22308831.68306  22308836.58706
  21955448.21906  -6752548.59306  -5261721.40409  21955316.90306  21955320.68306
  23564254.15706   5324385.04006   4148867.63209  23564122.53106  23564126.77306
  20482521.25406   -499258.23406   -389034.24509  20482389.74306  20482393.03006
  20957159.08306   -593208.35506   -462239.24009  20957027.14806  20957030.02506
 92  8 21 20 56 30.0000000  0  5 17 03 24 20 16
  22292214.55306  -8437070.43006  -6574328.46309  22292082.84606  22292087.71406
  21940625.49606  -6830442.07006  -5322417.57709  21940494.22506  21940498.06706
  23576067.82006   5386468.33106   4197244.17409  23575936.48506  23575941.08706
  20486222.92506   -479805.97506   -373876.66809  20486091.42606  20486094.70406
  20960454.66206   -575889.57506   -448744.09009  20960322.72906  20960325.64606
 92  8 21 20 57  0.0000000  0  5 17 03 24 20 16
  22275512.28406  -8524841.17006  -6642721.13109  22275380.44306  22275385.39006
  21925814.71006  -6908273.03706  -5383065.04309  21925683.46106  21925687.21506
  23587884.50706   5448562.03306   4245628.80009  23587752.76906  23587757.28706
  20490036.23706   -459767.06206   -358261.95809  20489904.72806  20489908.01306
  20963847.98506   -558057.77606   -434849.18509  20963716.06006  20963719.00606
 92  8 21 20 57 30.0000000  0  5 17 03 24 20 16
  22258858.08806  -8612359.16006  -6710916.84509  22258726.26106  22258731.14406
  21911021.51106  -6986011.57406  -5443640.48609  21910890.26206  21910894.08006
  23599708.94606   5510701.15606   4294048.84309  23599577.31406  23599581.78206
  20493966.44706   -439113.73406   -342168.48409  20493834.94306  20493838.23406
  20967348.11006   -539664.46806   -420516.74109  20967216.20006  20967219.11906
 92  8 21 20 58  0.0000000  0  5 17 03 24 20 16
  22242250.00306  -8699634.35206  -6778923.36709  22242118.23806  22242123.13506
  21896247.68106  -7063648.98706  -5504137.13409  21896116.33706  21896120.14206
  23611543.61506   5572892.58006   4342509.62409  23611412.10106  23611416.59206
  20498014.82206   -417839.47306   -325591.16509  20497883.33906  20497886.60406
  20970959.05006   -520688.67206   -405730.41109  20970827.14106  20970830.03406
 92  8 21 20 58 30.0000000  0  5 17 03 24 20 16
  22225688.86206  -8786664.05206  -6846738.60009  22225557.00206  22225561.84906
  21881491.89506  -7141190.96006  -5564559.41309  21881360.57606  21881364.31106
  23623385.18106   5635119.30306   4390997.91309  23623253.56206  23623257.91006
  20502179.86206   -395952.17506   -308536.15309  20502048.37206  20502051.64506
  20974681.69606   -501126.44206   -390487.11809  20974549.73606  20974552.65206
 92  8 21 20 59  0.0000000  0  6 17 03 24 26 20 16
  22209173.94206  -8873449.68306  -6914363.65109  22209042.14206  22209046.92106
  21866754.56206  -7218635.95506  -5624906.12709  21866623.23806  21866627.01006
  23635230.82806   5697368.41606   4439503.65009  23635099.14606  23635103.62806
  24261881.65216        -0.03616        -0.35419  24261750.19316  24261760.29716
  20506461.45006   -373452.50006   -291003.96709  20506329.93006  20506333.21306
  20978518.51406   -480963.78606   -374775.96009  20978386.57506  20978389.47806
 92  8 21 20 59 30.0000000  0  6 17 03 24 26 20 16
  22192710.23306  -8959966.65406  -6981779.36109  22192578.47106  22192583.15906
  21852037.17806  -7295976.19406  -5685171.21309  21851905.89906  21851909.57306
  23647080.85706   5759639.34406   4488026.38109  23646948.97406  23646953.40406
  24243939.54106    -94285.29606    -73469.02209  24243808.06306  24243818.22706
  20510860.50006   -350335.34706   -272990.63009  20510729.02406  20510732.28006
  20982469.64506   -460200.36806   -358596.67609  20982337.70106  20982340.63106
 92  8 21 21  0  0.0000000  0  6 16 17 03 24 26 20
  20986533.87106   -438842.37806   -341954.09009  20986401.97706  20986404.85006
  22176306.34306  -9046169.39606  -7048950.21609  22176174.52606  22176179.22006
  21837341.85706  -7373200.49506  -5745345.95909  21837210.54406  21837214.27706
  23658936.28706   5821939.93606   4536572.23609  23658804.44706  23658808.92806
  24226014.30506   -188481.12306   -146868.00009  24225882.87306  24225892.89506
  20515378.78406   -326592.01506   -254489.36409  20515247.25106  20515250.53506
 92  8 21 21  0 30.0000000  0  6 16 17 03 24 26 20
  20990714.10506   -416875.21206   -324836.82309  20990582.15406  20990585.05306
  22159969.21306  -9132021.43906  -7115847.79909  22159837.39106  22159842.13106
  21822671.69406  -7450292.55006  -5805417.65209  21822540.44406  21822544.08706
  23670802.92606   5884299.80006   4585164.27009  23670671.13406  23670675.61506
  24208109.98706   -282567.04106   -220181.32909  24207978.64606  24207988.41506
  20520018.78006   -302208.76406   -235489.45909  20519887.28806  20519890.53306
 92  8 21 21  1  0.0000000  0  6 16 17 03 24 26 20
  20995011.74906   -394291.25106   -307238.93809  20994879.78706  20994882.66506
  22143701.39306  -9217508.57306  -7182461.04309  22143569.61706  22143574.20106
  21808028.74506  -7527241.64506  -5865377.94509  21807897.46906  21807901.19106
  23682686.84006   5946749.38706   4633826.21909  23682554.94006  23682559.53106
  24190226.58806   -376544.24606   -293409.96009  24190095.09306  24190104.87106
  20524782.18206   -277177.23906   -215984.40809  20524650.64206  20524653.89806
 92  8 21 21  1 30.0000000  0  6 16 17 03 24 26 20
  20999424.93706   -371099.83906   -289167.71309  20999292.97306  20999295.85906
  22127502.92006  -9302631.70606  -7248790.64809  22127371.11706  22127375.75806
  21793412.19706  -7604051.75706  -5925229.93909  21793280.94806  21793284.63206
  23694590.20706   6009301.95606   4682568.40109  23694458.32706  23694462.98106
  24172360.10506   -470432.55206   -366569.31309  24172228.55006  24172238.07106
  20529667.63906   -251504.04006   -195979.34909  20529536.11006  20529539.40506
 92  8 21 21  2  0.0000000  0  5 16 17 03 24 20
  21003954.95806   -347294.81706   -270618.34809  21003822.99106  21003825.87606
  22111366.85306  -9387426.89906  -7314864.71909  22111235.05106  22111239.68706
  21778820.51706  -7680731.98206  -5984980.72209  21778689.16406  21778692.91206
  23706512.02106   6071951.87706   4731386.45209  23706380.37206  23706384.84206
  20534672.99206   -225200.92006   -175483.44409  20534541.45506  20534544.74406
 92  8 21 21  2 30.0000000  0  6 16 17 03 24 26 20
  21008603.59306   -322865.82706   -251582.77309  21008471.69306  21008474.55106
  22095286.88206  -9471926.83606  -7380708.72109  22095155.10006  22095159.73906
  21764254.10006  -7757278.60606  -6044627.39909  21764122.79206  21764126.48806
  23718453.16906   6134702.57206   4780283.02009  23718321.45506  23718326.03306
  24136672.41816        -0.44416        -0.49019  24136540.96416  24136550.60816
  20539798.50006   -198266.32506   -154495.48009  20539666.96606  20539670.26206
 92  8 21 21  3  0.0000000  0  6 16 17 03 24 26 20
  21013369.95806   -297818.22906   -232065.16809  21013238.00906  21013240.86606
  22079259.44906  -9556151.06706  -7446337.88609  22079127.72506  22079132.23106
  21749712.87906  -7833693.03006  -6104171.06109  21749581.56606  21749585.26006
  23730410.24606   6197538.71706   4829246.16909  23730278.78106  23730283.36106
  24118851.17306    -93649.18506    -72973.18609  24118720.03406  24118729.40006
  20545043.32706   -170704.46206   -133018.73709  20544911.80806  20544915.11406
 92  8 21 21  3 30.0000000  0  6 16 17 03 24 26 20
  21018251.14906   -272167.17206   -212077.33509  21018119.21506  21018122.07406
  22063280.21106  -9640122.45506  -7511770.02909  22063148.38606  22063152.97606
  21735195.55006  -7909981.66306  -6163616.70409  21735064.27106  21735067.97806
  23742378.20006   6260429.28706   4878251.74109  23742246.51506  23742251.18806
  24101046.19606   -187215.49806   -145881.67009  24100914.65306  24100923.95506
  20550405.85606   -142524.50706   -111060.36309  20550274.31606  20550277.63806
 92  8 21 21  4  0.0000000  0  6 16 17 03 24 26 20
  21023241.72406   -245942.06306   -191642.19109  21023109.76206  21023112.60306
  22047346.70306  -9723853.44306  -7577014.85309  22047214.89306  22047219.40006
  21720699.81606  -7986157.52206  -6222974.47309  21720568.42606  21720572.09606
  23754351.43606   6323347.91506   4927279.16809  23754219.63006  23754224.33906
  24083254.42606   -280710.10606   -218734.28809  24083123.03106  24083132.15006
  20555883.03206   -113741.66706    -88632.20909  20555751.53306  20555754.85306
 92  8 21 21  4 30.0000000  0  6 16 17 03 24 26 20
  21028337.56706   -219163.52106   -170775.79709  21028205.61606  21028208.45506
  22031463.93306  -9807317.69306  -7642051.82709  22031332.10606  22031336.52806
  21706225.79206  -8062218.69006  -6282242.87409  21706094.44706  21706098.09606
  23766329.42106   6386292.88306   4976327.11709  23766197.75406  23766202.26006
  24065474.06806   -374144.43506   -291539.93309  24065342.71406  24065351.95106
  20561474.76006    -84357.18606    -65735.24509  20561343.22306  20561346.55606
 92  8 21 21  5  0.0000000  0  6 16 17 03 24 26 20
  21033535.30506   -191849.39906   -149492.06709  21033403.35006  21033406.13806
  22015634.48106  -9890501.70006  -7706870.43309  22015502.63506  22015507.04506
  21691772.13106  -8138172.66806  -6341427.75109  21691640.86206  21691644.51306
  23778309.12306   6449246.30006   5025381.66709  23778177.44606  23778182.01906
  24047702.05906   -467536.73306   -364312.83209  24047570.60506  24047579.87706
  20567178.97806    -54381.48206    -42377.58709  20567047.44906  20567050.76806
 92  8 21 21  5 30.0000000  0  6 17 03 16 24 26 20
  21999857.64006  -9973409.23306  -7771473.60409  21999725.78706  21999730.17706
  21677334.97306  -8214040.40906  -6400545.43109  21677203.66306  21677207.31106
  21038830.66406   -164021.63406   -127808.09509  21038698.69206  21038701.55206
  23790286.91706   6512189.67506   5074428.37309  23790155.20106  23790159.88206
  24029931.61006   -560919.53706   -437078.33409  24029800.24106  24029809.24906
  20572991.16306    -23838.34806    -18577.77909  20572859.60506  20572863.00606
 92  8 21 21  6  0.0000000  0  6 17 03 16 24 26 20
  21984130.98806 -10056052.48306  -7835870.84309  21983999.22606  21984003.51906
  21662909.15106  -8289848.69606  -6459616.78509  21662777.83506  21662781.42906
  21044219.77306   -135701.66106   -105740.58909  21044087.79306  21044090.61106
  23802259.49906   6575106.67006   5123454.52709  23802127.82506  23802132.75306
  24012158.66806   -654315.94506   -509854.43509  24012027.16506  24012036.03306
  20578905.72206      7242.63906      5641.13409  20578774.17506  20578777.54206
 92  8 21 21  6 30.0000000  0  6 17 03 16 24 26 20
  21968448.12806 -10138466.11206  -7900089.15509  21968316.34906  21968320.67106
  21648489.59006  -8365623.93406  -6518662.39209  21648358.26506  21648361.85206
  21049700.62806   -106899.43606    -83297.30409  21049568.65106  21049571.51506
  23814221.51606   6637966.07406   5172435.79709  23814089.79406  23814094.32006
  23994379.86206   -747742.05506   -582653.68509  23994248.56406  23994257.52006
  20584917.04706     38832.28106     30256.40009  20584785.49006  20584788.89706
 92  8 21 21  7  0.0000000  0  6 17 03 16 24 26 20
  21952803.26806 -10220680.34106  -7964152.09009  21952671.45406  21952675.77806
  21634073.93806  -8441378.46806  -6577691.86609  21633942.62006  21633946.21606
  21055271.70106    -77623.33806    -60484.76609  21055139.77306  21055142.57806
  23826170.82606   6700760.19106   5221366.21209  23826039.06606  23826043.93906
  23976596.90106   -841192.10506   -655471.57909  23976465.37006  23976474.15906
  20591022.29906     70915.53506     55256.29809  20590890.77506  20590894.18606
 92  8 21 21  7 30.0000000  0  6 17 03 16 24 26 20
  21937194.49906 -10302704.33306  -8028066.79109  21937062.66606  21937067.02606
  21619661.60706  -8517115.41406  -6636707.63209  21619530.32206  21619533.93206
  21060932.03106    -47877.94206    -37306.54409  21060800.11306  21060802.91306
  23838108.86906   6763495.54306   5270250.82809  23837977.27506  23837982.08806
  23958813.17306   -934645.67806   -728292.25009  23958681.58306  23958690.14506
  20597220.33806    103486.17406     80635.97509  20597088.79306  20597092.21906
 92  8 21 21  8  0.0000000  0  7 17 03 16 24 26 23 20
  21921620.36306 -10384546.49306  -8091839.81009  21921488.57706  21921492.89806
  21605252.53306  -8592835.74706  -6695710.45509  21605121.18206  21605124.79206
  21066679.20506    -17676.40406    -13772.88809  21066547.25406  21066550.06106
  23850034.24606   6826161.75506   5319081.55609  23849902.58806  23849907.39606
  23941030.82206  -1028089.43106   -801105.25609  23940899.45306  23940908.16806
  24355312.28016         0.26016        -0.20119  24355180.21916  24355192.81516
  20603510.39506    136540.47406    106392.53009  20603378.86106  20603382.30506
 92  8 21 21  8 30.0000000  0  7 17 03 16 24 26 23 20
  21906080.90406 -10466206.34006  -8155470.76909  21905949.16506  21905953.46006
  21590847.62906  -8668534.01606  -6754696.08809  21590716.25806  21590719.78806
  21072510.42006     12966.35506     10104.57409  21072378.48506  21072381.27606
  23861946.67906   6888761.92606   5367860.83209  23861814.87706  23861819.70006
  23923251.56206  -1121521.19606   -873908.93909  23923119.91406  23923128.40606
  24331422.24406   -125540.52206    -97823.66909  24331290.45106  24331302.86806
  20609892.94506    170080.80106    132527.80809  20609761.42106  20609764.84106
 92  8 21 21  9  0.0000000  0  7 17 03 16 24 26 23 20
  21890578.90906 -10547669.89006  -8218948.77409  21890447.10606  21890451.37106
  21576447.65206  -8744205.91706  -6813661.17709  21576316.38006  21576319.92206
  21078423.17706     44038.66906     34316.75009  21078291.31206  21078294.12506
  23873847.80806   6951303.98906   5416594.84109  23873716.22206  23873721.13706
  23905475.02406  -1214936.99006   -946700.19309  23905343.31406  23905351.78906
  24307537.24706   -251054.96406   -195626.63009  24307405.31406  24307417.72206
  20616368.26406    204108.66706    159042.98609  20616236.73206  20616240.18706
 92  8 21 21  9 30.0000000  0  7 17 03 16 24 26 23 20
  21875121.33406 -10628899.26906  -8282244.30509  21874989.55406  21874993.75406
  21562058.84506  -8819819.89506  -6872581.13309  21561927.50806  21561931.03106
  21084424.20406     75574.05806     58889.76709  21084292.30406  21084295.12806
  23885740.96606   7013803.12806   5465295.39609  23885609.45106  23885614.47306
  23887706.81806  -1308306.85506  -1019455.65009  23887575.31306  23887583.84406
  24283666.11206   -376497.32106   -293373.42009  24283534.23006  24283546.20806
  20622941.68206    238652.03506    185959.85409  20622810.14306  20622813.61506
 92  8 21 21 10  0.0000000  0  7 17 03 16 24 26 23 20
  21859713.34406 -10709868.64806  -8345337.23709  21859581.50906  21859585.69706
  21547687.26106  -8895343.02206  -6931430.29709  21547555.96006  21547559.41706
  21090519.93906    107607.21306     83850.65409  21090387.98706  21090390.85006
  23897632.16206   7076288.83606   5513985.47209  23897500.35506  23897505.27806
  23869952.44206  -1401606.49106  -1092156.38609  23869820.88206  23869829.12606
  24259811.22606   -501852.34606   -391052.15509  24259679.44806  24259691.67806
  20629618.97406    273741.33206    213302.12409  20629487.43706  20629490.91306
 92  8 21 21 10 30.0000000  0  7 17 03 16 24 26 23 20
  21844355.55906 -10790574.20106  -8408224.59009  21844223.73006  21844227.90306
  21533335.74906  -8970760.49806  -6990197.13209  21533204.41506  21533207.89606
  21096717.56606    140175.74506    109228.71509  21096585.59406  21096588.48006
  23909523.97706   7138782.49106   5562681.76409  23909392.27206  23909397.15006
  23852215.45306  -1494813.63506  -1164785.06209  23852083.92406  23852092.23606
  24235975.66906   -627107.62806   -488653.17309  24235843.74606  24235855.64206
  20636402.28606    309387.65306    241078.43709  20636270.71706  20636274.26906
 92  8 21 21 11  0.0000000  0  7 17 03 16 24 26 23 20
  21829045.58206 -10871028.23206  -8470915.95509  21828913.81306  21828917.90606
  21519002.86206  -9046079.97106  -7048887.59709  21518871.56506  21518875.07406
  21103019.99906    173295.28006    135036.13109  21102888.03506  21102890.91206
  23921416.80406   7201278.03206   5611379.53809  23921284.89406  23921289.91606
  23834495.74206  -1587930.31006  -1237343.23409  23834364.12806  23834372.40306
  24212156.91206   -752274.46206   -586185.27709  24212024.81606  24212036.86706
  20643289.43506    345580.04106    269280.25609  20643157.93206  20643161.50006
 92  8 21 21 11 30.0000000  0  7 17 03 16 24 26 23 20
  21813781.84006 -10951239.53406  -8533418.18009  21813650.00706  21813654.12206
  21504687.86906  -9121305.69706  -7107505.00809  21504556.54206  21504560.07306
  21109427.09606    206965.00906    161272.27209  21109295.17506  21109298.04706
  23933308.74306   7263769.98606   5660074.47509  23933176.93306  23933182.03406
  23816791.55406  -1680965.14906  -1309837.63709  23816660.04906  23816668.28506
  24188352.00906   -877368.24706   -683660.46909  24188219.96606  24188232.02206
  20650279.19406    382311.18206    297901.88209  20650147.67806  20650151.23106
 92  8 21 21 12  0.0000000  0  7 17 03 16 24 26 23 20
  21798564.43606 -11031207.56206  -8595730.84409  21798432.59206  21798436.66406
  21490391.60906  -9196433.14806  -7166045.84209  21490260.24506  21490263.81506
  21115940.38206    241192.28506    187942.86309  21115808.45006  21115811.32606
  23945201.78806   7326270.43206   5708776.04209  23945070.03306  23945075.05106
  23799102.53806  -1773919.14306  -1382269.03009  23798971.13906  23798979.30906
  24164560.50606  -1002391.95006   -781081.07609  24164428.44806  24164440.04806
  20657371.79506    419582.69306    326944.57509  20657240.26306  20657243.83106
 92  8 21 21 12 30.0000000  4  1
 -2304715.0000 -4722106.0000  3603850.0000                  APPROX POSITION XYZ
 92  8 21 21 12 30.0000000  0  7 17 03 16 24 26 23 20
  21783392.77906 -11110934.30306  -8657855.49009  21783261.00706  21783265.08506
  21476113.13906  -9271467.07506  -7224513.80109  21475981.76206  21475985.24706
  21122556.74306    275961.35006    215035.62909  21122424.79206  21122427.64206
  23957096.14206   7388774.80706   5757480.69309  23956964.52706  23956969.58406
  23781428.29506  -1866796.90206  -1454641.02409  23781296.78606  23781304.88706
  24140784.61906  -1127332.17106   -878436.63309  24140652.69206  24140664.36606
  20664565.74306    457386.77706    356402.25609  20664434.17306  20664437.74506
 92  8 21 21 13  0.0000000  0  7 17 03 16 24 26 23 20
  21768265.31606 -11190429.39606  -8719799.63109  21768133.51806  21768137.55806
  21461849.15106  -9346424.49706  -7282922.14309  21461717.85106  21461721.27406
  21129266.44006    311221.02206    242510.68409  21129134.48406  21129137.36106
  23968986.67906   7451259.64006   5806170.08409  23968854.99806  23968860.09806
  23763763.45306  -1959626.67206  -1526975.62809  23763631.85906  23763639.78406
  24117021.66606  -1252205.26206   -975739.88809  24116889.71506  24116901.36006
  20671856.99406    495702.56206    386258.66709  20671725.48806  20671729.05106
 92  8 21 21 13 30.0000000  0  7 17 03 16 24 26 23 20
  21753179.17406 -11269707.34706  -8781574.56909  21753047.37006  21753051.34706
  21447597.62206  -9421317.20106  -7341280.06109  21447466.22006  21447469.62306
  21136064.03106    346942.78406    270345.81209  21135932.09406  21135934.96406
  23980869.21806   7513703.69306   5854827.70409  23980737.78906  23980742.89406
  23746105.34906  -2052418.41906  -1599280.59209  23745973.89906  23745981.88406
  24093270.21506  -1377020.27106  -1072997.89609  24093138.11106  24093149.27206
  20679242.81006    534514.97506    416502.06209  20679111.26306  20679114.84306
 92  8 21 21 14  0.0000000  0  7 17 03 16 24 26 23 20
  21738135.55206 -11348761.82106  -8843175.37109  21738003.70806  21738007.71806
  21433358.49106  -9496143.62106  -7399586.32609  21433227.20606  21433230.56606
  21142947.33406    383114.62106    298531.64809  21142815.41806  21142818.30406
  23992744.09006   7576104.37706   5903451.52209  23992612.39106  23992617.36706
  23728457.40406  -2145158.73006  -1671545.48309  23728325.86706  23728333.62206
  24069529.19706  -1501776.71906  -1170210.27009  24069397.27906  24069408.51206
  20686722.81306    573822.41206    447131.18709  20686591.23606  20686594.87906
 92  8 21 21 14 30.0000000  0  7 17 03 16 24 26 23 20
  21723135.10706 -11427589.01106  -8904599.06809  21723003.37106  21723007.27206
  21419133.29306  -9570896.96306  -7457835.64409  21419002.06106  21419005.46106
  21149913.56406    419722.34606    327057.13509  21149781.63106  21149784.53306
  24004609.69306   7638458.49506   5952039.11109  24004478.03206  24004482.79006
  23710822.65006  -2237827.98906  -1743755.01809  23710691.20206  23710698.85306
  24045802.86006  -1626459.00706  -1267364.87009  24045670.83406  24045681.85506
  20694297.61506    613628.18906    478148.62709  20694166.06406  20694169.70206
 92  8 21 21 15  0.0000000  0  7 17 03 16 24 26 23 20
  21708178.92306 -11506184.25906  -8965842.03109  21708047.12706  21708051.08906
  21404921.85006  -9645578.68706  -7516029.15509  21404790.52806  21404794.01906
  21156962.51406    456764.70506    355921.29709  21156830.57306  21156833.54006
  24016463.68906   7700752.30606   6000579.64209  24016332.07306  24016337.26306
  23693203.61706  -2330417.10606  -1815902.09409  23693071.95006  23693079.52006
  24022087.39106  -1751082.41506  -1364473.59409  24021955.43506  24021966.25206
  20701966.32906    653927.62406    509550.73609  20701834.79506  20701838.43506
 92  8 21 21 15 30.0000000  0  7 17 03 16 24 26 23 20
  21693265.56506 -11584553.50806  -9026908.89309  21693133.77306  21693137.75006
  21390724.03306  -9720188.55406  -7574166.67309  21390592.72506  21390596.15006
  21164095.61906    494249.78606    385130.44109  21163963.69206  21163966.63406
  24028306.79106   7762986.53506   6049073.78109  24028175.18506  24028180.22606
  23675601.53306  -2422914.76006  -1887977.88909  23675470.03906  23675477.56006
  23998380.93806  -1875658.61406  -1461545.54509  23998249.00506  23998259.90206
  20709728.40606    694717.49206    541335.00109  20709596.89406  20709600.54806
 92  8 21 21 16  0.0000000  0  7 17 03 16 24 26 23 20
  21678395.20106 -11662698.14406  -9087800.73409  21678263.37406  21678267.33006
  21376541.46006  -9794718.20106  -7632241.68209  21376410.25806  21376413.64606
  21171313.15106    532177.57206    414684.55009  21171181.16506  21171184.12706
  24040138.44106   7825164.35006   6097523.92009  24040006.95606  24040012.06906
  23658020.56006  -2515302.51906  -1959968.07009  23657888.97906  23657896.41006
  23974684.66306  -2000181.22806  -1558575.75109  23974552.96206  23974563.76906
  20717584.71406    736002.40006    573505.01309  20717453.17806  20717456.85306
 92  8 21 21 16 30.0000000  0  7 17 03 16 24 26 23 20
  21663568.99806 -11740610.07106  -9148511.24609  21663437.20806  21663441.10206
  21362378.58006  -9869145.59806  -7690237.01609  21362247.12306  21362250.52306
  21178620.54606    570578.93806    444607.68009  21178488.66406  21178491.63206
  24051963.94306   7887305.00306   6145945.14609  24051832.17606  24051837.01406
  23640463.53406  -2607563.83106  -2031859.71909  23640331.91206  23640339.37506
  23951004.18706  -2124622.33306  -1655542.45309  23950872.35906  23950882.76106
  20725538.74406    777800.99306    606075.30009  20725407.22106  20725410.87206
 92  8 21 21 17  0.0000000  0  7 17 03 16 24 26 23 20
  21648788.62306 -11818280.30806  -9209033.42809  21648656.84606  21648660.79906
  21348235.85106  -9943465.75206  -7748148.79109  21348104.48806  21348107.81306
  21186021.46706    609470.77106    474912.99209  21185889.55106  21185892.53306
  24063785.42706   7949427.67506   6194352.34909  24063653.70306  24063658.96506
  23622930.93906  -2699697.53506  -2103651.93609  23622799.40006  23622806.67406
  23927339.28406  -2248981.23406  -1752445.10509  23927207.33606  23927217.69906
  20733590.81906    820114.64606    639046.93109  20733459.28706  20733462.94406
 92  8 21 21 17 30.0000000  0  7 17 03 16 24 26 23 20
  21634053.74806 -11895712.84006  -9269370.38609  21633921.94906  21633925.82506
  21334114.14306 -10017675.31606  -7805974.39009  21333982.86306  21333986.16406
  21193517.67906    648863.58306    505608.68009  21193385.77606  21193388.76506
  24075606.06506   8011545.31706   6242755.62509  24075474.48806  24075479.74106
  23605421.36606  -2791708.75106  -2175348.71209  23605289.89606  23605297.31106
  23903693.62806  -2373237.29706  -1849267.62809  23903561.76206  23903572.14406
  20741740.92706    862943.51606    672420.03109  20741609.39306  20741613.05106
 92  8 21 21 18  0.0000000  0  7 17 03 16 24 26 23 20
  21619367.05206 -11972891.83606  -9329509.78309  21619235.23106  21619239.09006
  21320013.60006 -10091774.10906  -7863713.67409  21319882.26206  21319885.62006
  21201111.07506    688766.92906    536702.18709  21200979.11206  21200982.13406
  24087425.95106   8073659.21206   6291155.98909  24087294.36206  24087299.49406
  23587934.85706  -2883599.91106  -2246951.94109  23587803.45006  23587810.71106
  23880071.28006  -2497371.98706  -1945995.56809  23879939.40006  23879949.69906
  20749988.36806    906283.93606    706191.74109  20749856.84106  20749860.50306
 92  8 21 21 18 30.0000000  0  7 17 03 16 24 26 23 20
  21604731.07506 -12049804.28206  -9389441.47709  21604599.21506  21604603.07206
  21305933.11306 -10165767.46406  -7921370.80209  21305801.78306  21305805.08806
  21208800.79906    729176.57806    568190.21709  21208668.88206  21208671.86606
  24099248.56606   8135787.04406   6339567.18609  24099116.88906  24099122.19906
  23570467.20706  -2975393.23706  -2318478.94509  23570335.59606  23570342.87106
  23856471.99106  -2621386.24606  -2042629.65909  23856339.90406  23856350.17706
  20758331.49206    950127.19306    740355.27309  20758199.98306  20758203.65506
 92  8 21 21 19  0.0000000  0  7 17 03 16 24 26 23 20
  21590145.18406 -12126453.29006  -9449167.90009  21590013.38306  21590017.17706
  21291870.33006 -10239667.82006  -7978955.46309  21291738.98206  21291742.27506
  21216583.26106    770073.72906    600058.11809  21216451.35806  21216454.34206
  24111073.61806   8197927.69806   6387988.38509  24110941.98706  24110946.97106
  23553016.69906  -3067094.30006  -2389934.04409  23552885.21506  23552892.41406
  23832893.53406  -2745290.06406  -2139177.69209  23832761.61706  23832771.65006
  20766767.25106    994456.95106    774897.89709  20766635.68106  20766639.35506
 92  8 21 21 19 30.0000000  0  7 17 03 16 24 26 23 20
  21575605.03606 -12202861.59506  -9508706.76209  21575473.23906  21575477.01106
  21277822.67706 -10313488.61006  -8036478.12609  21277691.34306  21277694.62406
  21224452.52506    811426.46606    632281.02209  21224320.48906  21224323.51106
  24122897.54206   8260060.75206   6436403.71009  24122765.71206  24122770.81006
  23535582.44306  -3158710.82006  -2461323.27409  23535450.94806  23535457.92206
  23809334.27706  -2869093.46206  -2235647.48709  23809202.43606  23809212.47306
  20775292.21806   1039256.32206    809806.45309  20775160.73506  20775164.42606
 92  8 21 21 20  0.0000000  0  7 17 03 16 24 26 23 20
  21561108.39606 -12279041.37706  -9568067.55309  21560976.64806  21560980.42806
  21263788.80506 -10387237.32006  -8093944.62509  21263657.43606  21263660.73806
  21232401.33606    853198.16306    664830.38809  21232269.39006  21232272.40206
  24134715.65606   8322167.15706   6484798.19109  24134584.01706  24134589.91006
  23518163.54606  -3250246.52306  -2532649.53909  23518032.22206  23518039.19706
  23785792.52006  -2992805.36406  -2332045.99709  23785660.55206  23785670.37306
  20783904.51206   1084513.87806    845072.03709  20783772.99406  20783776.68406
 92  8 21 21 20 30.0000000  0  7 17 03 16 24 26 23 20
  21546650.85406 -12355016.43706  -9627268.81809  21546519.00406  21546522.74506
  21249768.97906 -10460911.71206  -8151353.21309  21249637.67306  21249640.91106
  21240427.25306    895374.43006    697695.00509  21240295.29306  21240298.31406
  24146527.40406   8384236.82706   6533164.08409  24146395.57406  24146400.60706
  23500759.79006  -3341703.57506  -2603914.50509  23500628.32506  23500635.16206
  23762268.69106  -3116422.32006  -2428370.53109  23762136.66606  23762146.33806
  20792603.79506   1130228.31906    880693.63409  20792472.21106  20792475.92906
 92  8 21 21 21  0.0000000  0  7 17 03 16 24 26 23 20
  21532227.03906 -12430813.27106  -9686331.20909  21532095.20606  21532099.05706
  21235762.89106 -10534513.85606  -8208705.50309  21235631.58106  21235634.86906
  21248529.40606    937951.43706    730871.88709  21248397.46406  21248400.47106
  24158326.69006   8446240.91406   6581478.89909  24158194.77306  24158199.59606
  23483373.38106  -3433069.33206  -2675108.34309  23483241.87106  23483248.64406
  23738762.14906  -3239947.24806  -2524623.36209  23738630.36406  23738640.03606
  20801388.66706   1176393.31806    916666.31909  20801257.15006  20801260.88106
 92  8 21 21 21 30.0000000  0  7 17 03 16 24 26 23 20
  21517836.64006 -12506435.08306  -9745257.21709  21517704.84606  21517708.65806
  21221771.07806 -10608041.00706  -8265999.35709  21221639.77606  21221643.07906
  21256706.82106    980924.22906    764357.17209  21256574.87606  21256577.89306
  24170109.38506   8508159.48806   6629727.06909  24169977.65506  24169983.09106
  23466003.35406  -3524348.17806  -2746234.45009  23465871.84106  23465878.52806
  23715272.32906  -3363386.37306  -2620809.33109  23715140.38806  23715149.96006
  20810259.23706   1223008.29906    952989.64109  20810127.72906  20810131.49006
 92  8 21 21 22  0.0000000  0  7 17 03 16 24 26 23 20
  21503483.83206 -12581859.04906  -9804029.06109  21503352.05106  21503355.85606
  21207795.87306 -10681481.36506  -8323225.58609  21207664.52106  21207667.78106
  21264962.40206   1024308.10206    798162.77909  21264830.51706  21264833.51306
  24181874.48006   8569989.79606   6677906.42409  24181742.99206  24181748.93906
  23448650.69706  -3615535.81906  -2817289.48909  23448519.16806  23448525.79106
  23691800.83106  -3486727.68906  -2716919.08009  23691669.07506  23691678.50706
  20819216.95806   1270081.41906    989669.95209  20819085.46206  20819089.24206
 92  8 21 21 22 30.0000000  0  7 17 03 16 24 26 23 20
  21489168.71206 -12657085.57306  -9862647.05409  21489036.91306  21489040.69206
  21193837.29006 -10754833.91506  -8380383.39009  21193706.01406  21193709.17906
  21273299.07806   1068117.45906    832299.93109  21273167.14906  21273170.11906
  24193625.94506   8631738.72006   6726022.37909  24193494.27906  24193499.12406
  23431317.04606  -3706624.12806  -2888267.13509  23431185.43306  23431192.10306
  23668346.02406  -3609982.86806  -2812961.71309  23668214.06406  23668223.63606
  20828261.20706   1317609.06806   1026704.44209  20828129.67306  20828133.45806
 92  8 21 21 23  0.0000000  0  7 17 03 16 24 26 23 20
  21474894.92106 -12732094.36906  -9921095.39009  21474763.11606  21474766.86506
  21179895.88606 -10828096.38106  -8437471.00009  21179764.60106  21179767.83106
  21281716.44206   1112351.02706    866767.63809  21281584.49106  21281587.52106
  24205361.18906   8693409.21606   6774077.28109  24205229.44906  24205234.79806
  23414005.23806  -3797598.06806  -2959155.67209  23413873.60206  23413880.18106
  23644906.78406  -3733155.12306  -2908939.72709  23644774.93006  23644784.31506
  20837391.77006   1365590.40606   1064092.45809  20837260.28306  20837264.04706
 92  8 21 21 23 30.0000000  0  7 17 03 16 24 26 23 20
  21460668.28906 -12806855.12606  -9979350.44609  21460536.43706  21460540.14306
  21165972.73406 -10901263.06506  -8494483.97309  21165841.41406  21165844.64206
  21290215.22206   1157012.07506    901568.44409  21290083.24006  21290086.22406
  24217082.56106   8755006.72406   6822075.23509  24216950.78006  24216956.53806
  23396714.70506  -3888459.62906  -3029956.63409  23396583.03606  23396589.54906
  23621486.65706  -3856227.22306  -3004839.70509  23621354.80606  23621364.13506
  20846608.97406   1414027.04206   1101835.24909  20846477.46106  20846481.29606
 92  8 21 21 24  0.0000000  0  7 17 03 16 24 26 23 20
  21446489.24506 -12881366.75706 -10037411.38009  21446357.43606  21446361.12106
  21152068.90706 -10974327.92106  -8551417.59809  21151937.58206  21151940.85606
  21298797.89706   1202113.75506    936712.59909  21298665.89306  21298668.89406
  24228795.21206   8816555.66106   6870035.36609  24228663.63206  24228669.07106
  23379448.38306  -3979193.09306  -3100657.79309  23379316.76906  23379323.14006
  23598088.15106  -3979185.47006  -3100650.97909  23597956.38706  23597965.54206
  20855913.27406   1462921.36206   1139934.67609  20855781.75606  20855785.58106
 92  8 21 21 24 30.0000000  0  7 17 03 16 24 26 23 20
  21432356.85006 -12955632.56906 -10095280.76109  21432225.07906  21432228.70906
  21138186.04306 -11047283.19206  -8608265.83209  21138054.67706  21138057.92106
  21307466.53206   1247667.89206    972209.31609  21307334.61406  21307337.59506
  24240502.00306   8878073.63406   6917971.38209  24240370.32706  24240375.77606
  23362209.18506  -4069783.50706  -3171247.48409  23362077.76206  23362084.13006
  23574713.90706  -4102016.73006  -3196363.30709  23574582.03106  23574591.19806
  20865305.29706   1512276.63006   1178393.28209  20865173.76406  20865177.60306
 92  8 21 21 25  0.0000000  0  7 17 03 16 24 26 23 20
  21418275.55006 -13029629.98606 -10152941.00509  21418143.77106  21418147.37506
  21124327.92206 -11120107.66906  -8665012.14609  21124196.59006  21124199.82206
  21316224.97306   1293694.01906   1008073.81509  21316093.03306  21316096.00006
  24252206.25206   8939581.53006   6965899.51309  24252074.70506  24252080.21806
  23344999.50306  -4160219.87106  -3241717.14209  23344868.10906  23344874.34606
  23551370.82506  -4224684.94106  -3291948.59109  23551238.87206  23551247.91206
  20874788.35306   1562110.24106   1217224.62209  20874656.85006  20874660.68506
 92  8 21 21 25 30.0000000  0  7 17 03 16 24 26 23 20
  21404244.78006 -13103361.77606 -10210394.26409  21404112.95006  21404116.54106
  21110497.49406 -11192786.67306  -8721645.10309  21110366.18606  21110369.45306
  21325075.47206   1340203.40806   1044314.87909  21324943.44606  21324946.43806
  24263914.02306   9001105.22806   7013839.98509  24263782.18806  24263787.77206
  23327820.89106  -4250494.17706  -3312060.52109  23327689.37606  23327695.44906
  23528061.03306  -4347176.94106  -3387396.56109  23527929.18706  23527938.06206
  20884364.44906   1612432.69806   1256436.88109  20884232.94906  20884236.76106
 92  8 21 21 26  0.0000000  0  7 17 03 16 24 26 23 20
  21390263.74706 -13176831.99606 -10267643.70309  21390131.94406  21390135.54406
  21096698.34806 -11265301.77806  -8778150.34709  21096567.00106  21096570.25506
  21334017.09406   1387192.25206   1080929.54409  21333885.14606  21333888.13906
  24275628.98706   9062668.26906   7061811.13409  24275497.39106  24275503.16506
  23310678.54906  -4340577.09306  -3382254.78109  23310546.95906  23310553.19106
  23504785.97006  -4469486.97106  -3482702.73609  23504653.97406  23504662.87006
  20894036.34806   1663258.55406   1296041.39909  20893904.79406  20893908.65806
 92  8 21 21 26 30.0000000  0  7 17 03 16 24 26 23 20
  21376333.84706 -13250033.77006 -10324683.96409  21376202.07306  21376205.61106
  21082932.15506 -11337643.49406  -8834520.48409  21082800.80806  21082804.01806
  21343047.47406   1434646.98506   1117907.23909  21342915.50206  21342918.52106
  24287350.46606   9124263.60006   7109807.41709  24287218.95206  24287224.63706
  23293575.85206  -4430450.19406  -3452285.54309  23293444.35006  23293450.44606
  23481545.34506  -4591615.68306  -3577867.62309  23481413.43006  23481422.41106
  20903805.09906   1714593.50206   1336042.61109  20903673.56806  20903677.41206
 92  8 21 21 27  0.0000000  0  7 17 03 16 24 26 23 20
  21362457.34406 -13322954.78406 -10381505.45109  21362325.60206  21362329.03406
  21069200.51606 -11409803.90506  -8890749.34509  21069069.13806  21069072.34806
  21352167.14306   1482571.46906   1155250.97209  21352035.24506  21352038.28006
  24299079.27506   9185900.87606   7157836.37009  24298947.57206  24298953.85306
  23276516.57106  -4520096.96606  -3522139.95109  23276385.07406  23276391.16906
  23458339.30806  -4713562.86906  -3672891.06009  23458207.44006  23458216.17506
  20913671.34806   1766440.84506   1376443.09009  20913539.83306  20913543.66606
 92  8 21 21 27 30.0000000  0  7 17 03 16 24 26 23 20
  21348638.05706 -13395575.69606 -10438093.09209  21348506.25806  21348509.74306
  21055506.50006 -11481765.90006  -8946823.59709  21055375.19706  21055378.36006
  21361376.75106   1530967.93006   1192962.47809  21361244.80706  21361247.81106
  24310820.51606   9247600.12306   7205913.60209  24310688.84806  24310694.06806
  23259504.41406  -4609495.51206  -3591800.93609  23259372.86906  23259378.81006
  23435170.16406  -4835316.36006  -3767763.57009  23435038.19206  23435046.97406
  20923637.63206   1818813.77206   1417253.11309  20923506.09706  20923509.94106
 92  8 21 21 28  0.0000000  0  7 17 03 16 24 26 23 20
  21334879.20506 -13467878.62106 -10494432.95309  21334747.37306  21334750.92306
  21041853.20506 -11553514.38906  -9002731.47809  21041721.86406  21041725.07106
  21370679.40106   1579853.42206   1231055.04509  21370547.39306  21370550.40106
  24322575.30206   9309368.62206   7254044.90509  24322443.55206  24322448.69906
  23242544.03606  -4698622.97106  -3661250.69009  23242412.44806  23242418.38806
  23412041.76706  -4956855.47006  -3862469.03509  23411909.76106  23411918.52106
  20933706.07006   1871723.46906   1458481.39809  20933574.48506  20933578.38906
 92  8 21 21 28 30.0000000  0  7 17 03 16 24 26 23 20
  21321182.75906 -13539853.24706 -10550517.00209  21321050.98706  21321054.43906
  21028240.73606 -11625048.35306  -9058472.19809  21028109.37006  21028112.61206
  21380079.72806   1629252.42606   1269547.75409  21379947.77206  21379950.74206
  24334343.98006   9371214.81706   7302236.62209  24334212.18306  24334218.13806
  23225632.76706  -4787490.66006  -3730498.02809  23225501.37306  23225507.20406
  23388957.53806  -5078161.73706  -3956993.07309  23388825.75206  23388834.42406
  20943875.97806   1925166.53006   1500125.29009  20943744.45206  20943748.34206
 92  8 21 21 29  0.0000000  0  7 17 03 16 24 26 23 20
  21307547.49506 -13611507.20206 -10606351.17809  21307415.65906  21307419.06806
  21014667.66806 -11696374.59606  -9114051.06009  21014536.36906  21014539.64506
  21389578.18406   1679166.90306   1308442.12809  21389446.21206  21389449.22406
  24346128.08606   9433142.28906   7350491.67109  24345996.32706  24346002.34306
  23208765.47606  -4876128.12706  -3799565.97809  23208634.04006  23208639.79306
  23365920.01106  -5199224.26706  -4051327.18909  23365788.10106  23365796.63706
  20954145.35006   1979132.33706   1542176.51709  20954013.84106  20954017.75406
 92  8 21 21 29 30.0000000  0  7 17 03 16 24 26 23 20
  21293971.16706 -13682850.40506 -10661943.20909  21293839.42906  21293842.92606
  21001134.50006 -11767492.32406  -9169467.44609  21001003.14206  21001006.34606
  21399170.03906   1729572.36906   1347719.09109  21399038.08006  21399041.10006
  24357924.59806   9495131.09706   7398794.51709  24357793.00306  24357798.68606
  23191941.16106  -4964539.60706  -3868457.83009  23191809.63806  23191815.44606
  23342928.81606  -5320041.89106  -4145470.47209  23342796.95706  23342805.42606
  20964513.51606   2033617.08706   1584632.11209  20964381.98606  20964385.89206
 92  8 21 21 30  0.0000000  0  7 17 16 26 24 23 03 20
  21280452.68706 -13753890.73406 -10717299.23309  21280320.88706  21280324.28706
  21408857.11006   1780478.15806   1387385.91609  21408725.13106  21408728.11806
  23175161.09006  -5052718.89206  -3937168.75209  23175029.57306  23175035.28206
  24369728.24606   9557157.55206   7447126.80609  24369596.32506  24369601.16606
  23319982.62406  -5440623.91406  -4239430.17409  23319850.69406  23319859.09606
  20987640.31406 -11838404.42806  -9224723.60809  20987509.02606  20987512.23806
  20974979.09006   2088613.85306   1627486.68209  20974847.55506  20974851.45806
 92  8 21 21 30 30.0000000  0  7 17 20 16 24 26 23 03
  21266989.62806 -13824639.05306 -10772427.72109  21266857.78706  21266861.24706
  20985537.57606   2144098.94706   1670721.76509  20985406.06406  20985409.96106
  21418633.56806   1831853.43106   1427418.57209  21418501.60206  21418504.56806
  24381530.42106   9619183.88806   7495458.94509  24381399.02706  24381405.08506
  23158420.09106  -5140692.74906  -4005719.60609  23158288.58306  23158294.24606
  23297076.15706  -5560997.29906  -4333227.31009  23296944.24706  23296952.48606
  20974181.63006 -11909130.11006  -9279834.50209  20974050.32806  20974053.54706
 92  8 21 21 31  0.0000000  0  7 17 20 16 24 26 23 03
  21253579.41006 -13895109.78006 -10827339.90209  21253447.58806  21253451.04106
  20996185.94306   2200056.46606   1714324.97109  20996054.44306  20996058.38106
  21428493.01406   1883665.84606   1467791.85509  21428361.07506  21428364.07606
  24393329.51106   9681182.18106   7543769.18609  24393197.55606  24393203.40606
  23141721.28206  -5228444.34406  -4074097.25809  23141589.87406  23141595.57106
  23274203.94506  -5681190.27306  -4426883.86309  23274072.07606  23274080.29706
  20960756.17206 -11979681.30606  -9334809.43509  20960624.86406  20960627.99706
 92  8 21 21 31 30.0000000  0  7 17 20 16 24 26 23 03
  21240219.96806 -13965313.94906 -10882044.37509  21240088.17506  21240091.61506
  21006920.05406   2256464.13506   1758278.94109  21006788.51106  21006792.46706
  21438432.05306   1935895.55506   1508490.30509  21438300.08406  21438303.16006
  24405117.04506   9743126.24306   7592037.15609  24404985.13806  24404990.62206
  23125064.97706  -5315973.46106  -4142301.55709  23124933.49706  23124938.99006
  23251360.33506  -5801232.82806  -4520423.21509  23251228.52606  23251236.61306
  20947360.45806 -12050076.16806  -9389662.54809  20947229.16506  20947232.26706
 92  8 21 21 32  0.0000000  0  7 17 20 16 24 26 23 03
  21226912.97906 -14035242.42006 -10936534.01709  21226781.20106  21226784.65706
  21017737.82406   2313311.88406   1802575.83309  21017606.31106  21017610.27406
  21448451.83206   1988549.50506   1549519.33409  21448319.88706  21448322.88406
  24416895.61206   9805025.89206   7640270.64809  24416764.06506  24416769.46506
  23108450.84006  -5403280.54906  -4210332.85409  23108319.29906  23108324.73806
  23228543.98206  -5921131.99206  -4613850.83909  23228412.19206  23228420.33406
  20933993.53006 -12120319.80806  -9444397.82709  20933862.23506  20933865.33006
 92  8 21 21 32 30.0000000  0  7 17 20 16 24 26 23 03
  21213659.83306 -14104887.53206 -10990802.85909  21213528.05206  21213531.45606
  21028640.54006   2370605.78106   1847220.37209  21028509.01306  21028512.97006
  21458552.40306   2041628.50806   1590879.57509  21458420.43606  21458423.47506
  24428671.96306   9866913.55106   7688494.68009  24428540.63006  24428545.91706
  23091881.13706  -5490354.13506  -4278182.20209  23091749.58306  23091755.07106
  23205758.20506  -6040870.71606  -4707153.44809  23205626.39306  23205634.42806
  20920657.25906 -12190402.17706  -9499007.44209  20920525.91506  20920529.05006
 92  8 21 21 33  0.0000000  0  7 17 20 16 24 26 23 03
  21200461.51706 -14174245.09906 -11044847.64109  21200329.67006  21200333.04806
  21039629.77106   2428354.44206   1892219.27209  21039498.28006  21039502.23606
  21468736.63206   2095146.11206   1632581.58609  21468604.65806  21468607.69006
  24440453.89106   9928821.87206   7736734.87109  24440322.20606  24440327.96806
  23075357.75306  -5577184.53206  -4345842.04909  23075226.14506  23075231.60706
  23183006.64906  -6160430.00606  -4800316.24009  23182874.83306  23182882.63906
  20907354.12706 -12260310.37506  -9553481.33609  20907222.86106  20907225.92806
 92  8 21 21 33 30.0000000  0  7 17 20 16 24 26 23 03
  21187319.32906 -14243307.54806 -11098662.46109  21187187.54306  21187190.88606
  21050707.96206   2486570.54006   1937582.41009  21050576.45406  21050580.45806
  21479008.91006   2149127.73306   1674645.16909  21478876.90406  21478880.00606
  24452242.17106   9990770.12106   7785006.12409  24452110.41406  24452116.36506
  23058878.59006  -5663781.75706  -4413320.20909  23058747.07406  23058752.45806
  23160292.98406  -6279790.10006  -4893323.82109  23160161.17406  23160168.95706
  20894087.50506 -12330027.24606  -9607806.14309  20893956.14406  20893959.27106
 92  8 21 21 34  0.0000000  0  7 17 20 16 24 26 23 03
  21174231.08406 -14312086.39706 -11152256.29409  21174099.27806  21174102.63806
  21061874.72106   2545251.82906   1983308.03209  21061743.19506  21061747.17606
  21489367.46406   2203562.39106   1717061.76809  21489235.50306  21489238.57006
  24464037.76706  10052759.55706   7833309.48809  24463906.31906  24463912.01006
  23042442.56106  -5750152.83406  -4480622.14609  23042311.10006  23042316.45106
  23137618.71406  -6398942.32206  -4986169.42209  23137486.94506  23137494.78706
  20880857.67606 -12399550.59406  -9661980.15409  20880726.30906  20880729.31806
 92  8 21 21 34 30.0000000  0  7 17 20 16 24 26 23 03
  21161194.45706 -14380594.09306 -11205638.84409  21161062.64006  21161065.97306
  21073129.62506   2604396.45106   2029394.69209  21072998.10506  21073002.15806
  21499812.03906   2258448.87206   1759830.43809  21499680.07906  21499683.10506
  24475839.58806  10114776.72706   7881634.46809  24475707.98706  24475713.36606
  23026049.75506  -5836297.23806  -4547747.45609  23025918.16406  23025923.45906
  23114987.74106  -6517868.83306  -5078839.14209  23114855.79406  23114863.57606
  20867665.14206 -12468877.58206  -9716001.15709  20867533.78906  20867536.82906
 92  8 21 21 35  0.0000000  0  7 17 20 16 24 26 23 03
  21148207.27206 -14448841.79906 -11258818.80409  21148075.46706  21148078.74406
  21084470.67406   2663993.63506   2075833.99509  21084339.09306  21084343.17306
  21510338.73306   2313766.89406   1802935.37209  21510206.74006  21510209.82506
  24487641.62006  10176793.32706   7929959.05809  24487510.06506  24487515.51606
  23009700.95106  -5922209.64206  -4614691.98909  23009569.43306  23009574.64506
  23092399.86906  -6636567.15606  -5171331.05209  23092268.07006  23092275.71706
  20854508.69606 -12538014.79406  -9769874.28309  20854377.39206  20854380.42706
 92  8 21 21 35 30.0000000  0  7 17 20 16 24 26 23 03
  21135267.93406 -14516838.13606 -11311802.89209  21135136.15806  21135139.45606
  21095895.82706   2724033.25906   2122618.05409  21095764.30906  21095768.36306
  21520944.18106   2369498.94006   1846362.92309  21520812.24806  21520815.35006
  24499438.88806  10238790.94206   7978268.79609  24499307.08506  24499313.28006
  22993399.13006  -6007876.24906  -4681445.00009  22993267.45406  22993272.71506
  23069854.19106  -6755044.16806  -5263650.50909  23069722.24006  23069729.86306
  20841387.30706 -12606967.71506  -9823603.80609  20841256.02006  20841259.09206
 92  8 21 21 36  0.0000000  0  7 17 20 16 24 26 23 03
  21122379.13706 -14584568.84806 -11364580.00309  21122247.35906  21122250.64706
  21107404.03106   2784509.01606   2169741.95809  21107272.53506  21107276.57806
  21531625.09806   2425626.97206   1890099.03609  21531493.08906  21531496.17106
  24511231.33106  10300760.27306   8026556.45609  24511099.53906  24511105.64106
  22977148.37106  -6093273.30506  -4747987.98209  22977016.86506  22977021.88706
  23047350.80506  -6873298.88806  -5355796.75509  23047218.99206  23047226.50406
  20828300.63906 -12675738.76606  -9877191.61209  20828169.30706  20828172.37006
 92  8 21 21 36 30.0000000  0  7 17 20 16 24 26 23 03
  21109543.52506 -14652019.90306 -11417139.20109  21109411.75606  21109415.04206
  21118995.50506   2845422.24806   2217206.74809  21118863.96206  21118868.03706
  21542383.19406   2482161.52606   1934151.91809  21542251.24806  21542254.38906
  24523018.85006  10362704.03406   8074824.22009  24522887.60406  24522892.65206
  22960952.34306  -6178382.97506  -4814307.03609  22960820.80306  22960825.93006
  23024891.25106  -6991323.80906  -5447763.94009  23024759.34006  23024766.80006
  20815249.79806 -12744321.28306  -9930632.51009  20815118.45906  20815121.58206
 92  8 21 21 37  0.0000000  0  7 17 20 16 24 26 23 03
  21096761.68306 -14719188.86506 -11469478.58609  21096629.86806  21096633.14806
  21130670.85806   2906776.12506   2265014.89909  21130539.30506  21130543.37806
  21553218.29506   2539100.45006   1978519.89309  21553086.32406  21553089.46206
  24534806.99306  10424649.30506   8123093.25409  24534675.33906  24534680.94106
  22944809.49806  -6263212.66406  -4880407.92809  22944678.13106  22944683.10006
  23002473.85306  -7109126.93806  -5539558.30309  23002341.95906  23002349.45306
  20802236.24706 -12812707.75406  -9983920.64409  20802104.93606  20802108.02806
 92  8 21 21 37 30.0000000  0  7 17 20 16 24 26 23 03
  21084034.64506 -14786069.79506 -11521593.52909  21083902.86106  21083906.12406
  21142429.72406   2968569.22206   2313165.29809  21142298.16506  21142302.27006
  21564132.10306   2596453.08406   2023210.24209  21564000.19606  21564003.32006
  24546598.18706  10486610.69706   8171374.75309  24546466.20106  24546472.36506
  22928715.93506  -6347785.51106  -4946308.68609  22928584.30106  22928589.32106
  22980097.90006  -7226711.89706  -5631182.66309  22979965.98806  22979973.46406
  20789260.65806 -12880895.09506 -10037053.61209  20789129.33306  20789132.35006
 92  8 21 21 38  0.0000000  0  7 17 20 16 24 26 23 03
  21071360.62206 -14852672.03606 -11573491.31409  21071228.81806  21071232.09106
  21154269.87306   3030789.10806   2361648.25909  21154138.27106  21154142.39006
  21575124.38406   2654217.75306   2068221.65309  21574992.47006  21574995.63106
  24558390.19706  10548582.36006   8219664.21809  24558258.78206  24558265.36306
  22912666.97506  -6432122.79006  -5012025.87409  22912535.47406  22912540.36906
  22957764.16906  -7344075.93506  -5722634.88509  22957632.14306  22957639.48406
  20776321.35806 -12948891.43706 -10090037.74709  20776190.04406  20776193.07906
 92  8 21 21 38 30.0000000  0  7 17 20 16 26 24 23 03
  21058732.55406 -14919032.41006 -11625200.63209  21058600.74306  21058603.98406
  21166188.65406   3093422.72706   2410453.61109  21166057.08006  21166061.23606
  21586194.19106   2712389.83606   2113550.52909  21586062.23206  21586065.37606
  22896657.52406  -6516252.42806  -5077581.27409  22896525.92306  22896530.84306
  24570186.04106  10610566.97006   8267963.81809  24570054.61206  24570060.15106
  22935472.27406  -7461218.87706  -5813914.82709  22935340.43406  22935347.71806
  20763416.88206 -13016704.69806 -10142879.22109  20763285.56606  20763288.60406
 92  8 21 21 39  0.0000000  0  7 17 20 16 26 24 23 03
  21046147.27306 -14985168.54106 -11676735.21509  21046015.45706  21046018.63106
  21178183.74206   3156457.09306   2459571.23209  21178052.20506  21178056.34406
  21597337.33206   2770947.40106   2159179.77809  21597205.39306  21597208.56206
  22880686.29106  -6600180.32806  -5142979.47809  22880554.79006  22880559.73106
  24581981.88406  10672554.68006   8316265.93509  24581850.07006  24581856.13606
  22913221.86006  -7578145.44706  -5905026.17209  22913089.89706  22913097.12906
  20750545.64706 -13084343.25406 -10195584.56409  20750414.35106  20750417.42006
 92  8 21 21 39 30.0000000  0  7 17 20 16 26 24 23 03
  21033605.84506 -15051073.54906 -11728089.70009  21033474.06306  21033477.24906
  21190253.66006   3219884.74106   2508995.30609  21190122.11306  21190126.33806
  21608554.09406   2829891.97806   2205110.59509  21608422.19606  21608425.40406
  22864756.95206  -6683888.14206  -5208206.19009  22864625.53706  22864630.43706
  24593773.25606  10734517.78106   8364548.75109  24593641.31506  24593647.36106
  22891012.97106  -7694851.80206  -5995965.92709  22890881.23006  22890888.37906
  20737707.05506 -13151810.26406 -10248156.23309  20737575.73106  20737578.83806
 92  8 21 21 40  0.0000000  0  7 17 20 16 26 24 23 03
  21021107.10706 -15116755.15906 -11779270.10709  21020975.33306  21020978.47106
  21202396.18206   3283693.82906   2558716.60709  21202264.65306  21202268.86706
  21619841.36306   2889206.37206   2251329.58009  21619709.36206  21619712.53906
  22848873.27806  -6767357.77006  -5273247.30309  22848741.86506  22848746.60306
  24605557.08206  10796440.80806   8412800.36209  24605425.40606  24605431.45606
  22868843.81306  -7811351.05706  -6086744.30509  22868711.94506  22868718.97906
  20724899.82106 -13219112.80806 -10300599.74809  20724768.52406  20724771.51706
 92  8 21 21 40 30.0000000  0  7 17 20 16 26 24 23 03
  21008652.47006 -15182204.37506 -11830269.42709  21008520.67906  21008523.82406
  21214610.44706   3347880.25306   2608731.93609  21214478.96006  21214483.19806
  21631195.84406   2948874.33206   2297824.07209  21631063.92206  21631067.06906
  22833035.90706  -6850583.35706  -5338098.24909  22832904.34006  22832909.12106
  24617331.60706  10858315.46906   8461014.33109  24617199.75106  24617205.77406
  22846709.37706  -7927667.58706  -6177380.30509  22846577.42806  22846584.54406
  20712123.93506 -13286250.50706 -10352914.81409  20711992.64806  20711995.67706
 92  8 21 21 41  0.0000000  0  7 17 20 16 26 24 23 03
  20996245.41306 -15247403.81106 -11881074.11409  20996113.60406  20996116.67506
  21226896.51006   3412443.37206   2659040.79609  21226764.95706  21226769.21306
  21642616.66206   3008891.46106   2344590.64409  21642484.77606  21642487.93606
  22817247.49006  -6933551.51706  -5402748.59709  22817115.93806  22817120.64106
  24629094.74706  10920134.82206   8509185.18209  24628963.18706  24628969.50606
  22824608.82506  -8043805.55706  -6267877.17009  22824476.94506  22824483.89306
  20699380.23906 -13353219.04406 -10405098.06909  20699248.96006  20699251.92506
 92  8 21 21 41 30.0000000  0  7 20 16 26 23 24 17 03
  21239253.70506   3477380.72506   2709641.26409  21239122.16406  21239126.43706
  21654106.08206   3069268.38906   2391637.57709  21653974.10306  21653977.30406
  22801508.58106  -7016259.33906  -5467196.09609  22801376.94306  22801381.66006
  22802538.94906  -8159781.89906  -6358248.09709  22802407.16806  22802414.01706
  24640848.23106  10981897.72106   8557312.04909  24640716.67706  24640722.36406
  20983886.56206 -15312349.69806 -11931681.23109  20983754.77206  20983757.83406
  20686669.21606 -13420016.02806 -10457147.64509  20686537.88406  20686540.86806
 92  8 21 21 42  0.0000000  0  7 20 16 26 23 24 17 03
  21251680.29206   3542682.60606   2760525.78009  21251548.76806  21251553.06406
  21665661.03306   3129990.26006   2438953.29809  21665529.06106  21665532.26906
  22785817.78206  -7098714.27706  -5531446.54409  22785686.36506  22785690.96306
  22780498.63906  -8275604.57806  -6448499.29309  22780366.69906  22780373.61806
  24652590.46906  11043603.83906   8605394.69009  24652458.97106  24652465.10306
  20971573.61706 -15377054.20606 -11982100.26009  20971441.81206  20971444.85806
  20673989.81606 -13486646.55206 -10509067.51609  20673858.45906  20673861.49806
 92  8 21 21 42 30.0000000  4  1
 -2304715.0000 -4722106.0000  3603850.0000                  APPROX POSITION XYZ
 92  8 21 21 42 30.0000000  0  7 20 16 26 23 24 17 03
  21264173.58406   3608335.16406   2811683.54909  21264042.06306  21264046.38806
  21677279.39106   3191045.04906   2486528.43109  21677147.42806  21677150.57106
  22770171.23906  -7180937.23106  -5595516.22209  22770039.62106  22770044.31006
  22758488.24306  -8391269.25506  -6538627.37409  22758356.32906  22758363.05706
  24664321.46506  11105247.64006   8653428.78109  24664189.54706  24664195.64406
  20959300.67406 -15441548.55206 -12032355.52709  20959168.92406  20959171.95706
  20661340.35506 -13553119.79506 -10560864.82909  20661209.03506  20661212.01606
 92  8 21 21 43  0.0000000  0  7 20 16 26 23 24 17 03
  21276731.29306   3674325.79506   2863104.75009  21276599.76906  21276604.07906
  21688961.12706   3252432.64006   2534362.89009  21688829.18906  21688832.29806
  22754568.64006  -7262928.88206  -5659405.67509  22754437.01206  22754441.61406
  22736510.49606  -8506761.83206  -6628621.35809  22736378.56006  22736385.29106
  24676039.43006  11166827.70706   8701413.14309  24675907.54306  24675914.29206
  20947062.21106 -15505862.34706 -12082470.10809  20946930.36606  20946933.35806
  20648719.36306 -13619443.47706 -10612545.60209  20648588.05206  20648591.03806
 92  8 21 21 43 30.0000000  0  7 20 16 26 23 24 17 03
  21289355.36006   3740665.52806   2914797.97709  21289223.82106  21289228.10706
  21700708.53706   3314165.94706   2582466.73909  21700576.65506  21700579.79806
  22739013.46306  -7344670.51306  -5723100.31009  22738881.99106  22738886.56006
  22714568.97506  -8622064.25906  -6718467.17809  22714437.09406  22714443.72106
  24687749.10706  11228363.28206   8749362.81309  24687617.39506  24687624.00906
  20934860.26506 -15569983.75206 -12132434.77609  20934728.42806  20934731.42906
  20636129.88206 -13685601.66206 -10664097.41609  20635998.60106  20636001.53606
 92  8 21 21 44  0.0000000  0  7 20 16 26 23 24 17 03
  21302049.06606   3807371.13206   2966776.30209  21301917.51206  21301921.90906
  21712522.21906   3376247.29806   2630841.78809  21712390.33206  21712393.47706
  22723508.72806  -7426148.12706  -5786589.20409  22723377.21206  22723381.83106
  22692672.49406  -8737130.53806  -6808128.99009  22692540.63206  22692547.20106
  24699456.68106  11289885.62506   8797302.31909  24699324.97006  24699330.55006
  20922698.52206 -15633893.73706 -12182234.70309  20922566.73406  20922569.72906
  20623575.97706 -13751572.95706 -10715503.60009  20623444.65206  20623447.59806
 92  8 21 21 44 30.0000000  0  7 20 16 26 23 24 17 03
  21314814.10506   3874451.58006   3019046.71209  21314682.56006  21314686.94106
  21724403.29106   3438682.50306   2679492.56509  21724271.40806  21724274.51606
  22708056.87306  -7507347.59306  -5849861.36609  22707925.30206  22707929.88706
  22670825.21906  -8851937.89106  -6897589.04509  22670693.31806  22670699.89206
  24711165.31806  11351412.85606   8845245.56709  24711033.57206  24711039.60506
  20910580.00806 -15697577.05706 -12231858.00909  20910448.16106  20910451.06606
  20611060.26706 -13817343.51406 -10766753.36809  20610928.94006  20610931.85906
 92  8 21 21 45  0.0000000  0  7 20 16 26 23 24 17 03
  21327650.04906   3941904.90706   3071607.67909  21327518.54606  21327522.91806
  21736350.86206   3501467.01706   2728415.53409  21736218.87506  21736222.03806
  22692659.51406  -7588259.38206  -5912909.37609  22692528.13206  22692532.56106
  22649025.84006  -8966493.31006  -6986852.79109  22648893.85406  22648900.40606
  24722875.60806  11412949.96806   8893196.48909  24722743.63206  24722750.15306
  20898509.25506 -15761009.02506 -12281285.45709  20898377.46306  20898380.35606
  20598583.29406 -13882910.45606 -10817844.47409  20598451.94506  20598454.89506
 92  8 21 21 45 30.0000000  0  7 20 16 26 23 24 17 03
  21340552.61806   4009707.86106   3124441.07909  21340421.08106  21340425.45206
  21748359.90906   3564575.16406   2777590.67909  21748227.98106  21748231.09606
  22677310.82406  -7668917.58006  -5975759.78309  22677179.39906  22677183.80806
  22627270.79506  -9080816.06506  -7075935.24209  22627138.86606  22627145.31206
  24734583.94806  11474479.14606   8941141.09709  24734452.05006  24734458.46206
  20886487.05006 -15824186.09906 -12330514.29009  20886355.24906  20886358.13206
  20586141.51906 -13948291.99806 -10868791.11409  20586010.18706  20586013.17506
 92  8 21 21 46  0.0000000  0  7 20 16 26 23 24 17 03
  21353520.19006   4077852.76906   3177540.93709  21353388.66806  21353393.06806
  21760429.24506   3627999.54006   2827012.23909  21760297.33906  21760300.43706
  22662009.23006  -7749328.04006  -6038417.15409  22661877.69506  22661882.17306
  22605559.51406  -9194908.51806  -7164838.23909  22605427.65906  22605434.07206
  24746289.60606  11535991.68906   8989072.93809  24746158.06106  24746163.89106
  20874512.92706 -15887109.69706 -12379545.61009  20874381.11706  20874384.02606
  20573734.44706 -14013491.50706 -10919595.91009  20573603.14206  20573606.12206
 92  8 21 21 46 30.0000000  0  7 20 16 26 23 24 17 03
  21366553.90206   4146345.01906   3230911.44909  21366422.41706  21366426.82706
  21772561.93606   3691757.12706   2876693.44109  21772429.96006  21772433.05406
  22646756.87006  -7829478.23906  -6100871.71509  22646625.40106  22646629.84106
  22583891.30306  -9308774.45006  -7253564.72609  22583759.53906  22583765.88006
  24757991.41506  11597483.93306   9036988.91909  24757859.57706  24757865.44306
  20862586.68606 -15949782.52806 -12428381.52809  20862454.85906  20862457.78006
  20561364.04506 -14078498.34506 -10970250.57109  20561232.75706  20561235.69906
 92  8 21 21 47  0.0000000  0  7 20 16 26 23 24 17 03
  21379656.29006   4215198.00506   3284563.05109  21379524.72506  21379529.15306
  21784763.51406   3755876.76406   2926656.76109  21784631.56906  21784634.66706
  22631558.39406  -7909348.05706  -6163107.80109  22631426.61906  22631431.00906
  22562267.83206  -9422405.86906  -7342108.47409  22562135.98406  22562142.30306
  24769690.09606  11658962.44606   9084894.28609  24769558.45006  24769564.70706
  20850711.28606 -16012188.05106 -12477009.15509  20850579.44806  20850582.36106
  20549033.82906 -14143294.04406 -11020740.70409  20548902.51206  20548905.48406
 92  8 21 21 47 30.0000000  0  6 20 16 26 23 17 03
  21392828.49606   4284418.11906   3338500.72609  21392696.96506  21392701.38406
  21797036.06506   3820368.92606   2976910.35609  21796904.04706  21796907.17306
  22616414.92506  -7988926.05206  -6225116.49909  22616283.48406  22616287.80406
  22540690.57006  -9535794.89306  -7430463.34609  22540558.69406  22540564.95606
  20838887.37506 -16074322.99506 -12525425.93809  20838755.57506  20838758.46006
  20536745.95806 -14207867.23306 -11071057.45209  20536614.61506  20536617.56606
 92  8 21 21 48  0.0000000  0  6 20 16 26 23 17 03
  21406069.71006   4354001.09406   3392721.14709  21405938.19706  21405942.64606
  21809377.90806   3885225.88306   3027448.20609  21809245.97806  21809249.07106
  22601331.42106  -8068189.63806  -6286880.19909  22601199.98806  22601204.40506
  22519157.57806  -9648950.21006  -7518636.11109  22519025.74506  22519031.91406
  20827110.36206 -16136211.52706 -12573650.71309  20826978.56106  20826981.45406
  20524500.50906 -14272217.35306 -11121200.37809  20524369.18506  20524372.14306
 92  8 21 21 48 30.0000000  0  6 20 16 26 23 17 03
  21419377.77406   4423935.17206   3447215.15509  21419246.25806  21419250.77306
  21821787.03306   3950436.18006   3078261.38809  21821655.07606  21821658.20306
  22586307.86006  -8147138.98406  -6348399.03909  22586176.24406  22586180.53706
  22497666.81706  -9761884.89606  -7606636.95909  22497534.88706  22497541.01306
  20815380.35506 -16197853.08506 -12621683.03909  20815248.49306  20815251.39106
  20512296.18806 -14336351.44506 -11171174.97009  20512164.87006  20512167.77306
 92  8 21 21 49  0.0000000  0  6 20 16 26 23 17 03
  21432748.05606   4494195.98406   3501963.76009  21432616.53106  21432621.04306
  21834257.53906   4015969.03906   3129325.91309  21834125.63406  21834128.81706
  22571342.53506  -8225780.62806  -6409678.12109  22571211.15306  22571215.53006
  22476214.09606  -9874618.41306  -7694481.05609  22476082.20306  22476088.28306
  20803696.64606 -16259250.98906 -12669525.50409  20803564.83906  20803567.71406
  20500129.35606 -14400288.62106 -11220996.11909  20499998.03206  20500000.89606
 92  8 21 21 49 30.0000000  0  6 20 16 26 23 17 03
  21446177.85106   4564769.78106   3556956.24909  21446046.31706  21446050.80906
  21846782.71206   4081788.57106   3180613.82709  21846650.69206  21846653.94006
  22556433.80006  -8304126.74306  -6470726.92109  22556302.30706  22556306.62306
  22454800.36506  -9987147.92506  -7782166.18809  22454668.40606  22454674.52306
  20792055.81706 -16320423.59606 -12717192.41209  20791923.98706  20791926.85506
  20487998.30006 -14464037.61106 -11270670.62909  20487866.94906  20487869.83806
 92  8 21 21 50  0.0000000  0  6 20 16 26 23 17 03
  21459665.17606   4635645.89306   3612184.30709  21459533.66106  21459538.19706
  21859359.86406   4147881.84106   3232115.03809  21859227.98106  21859231.10906
  22541579.69306  -8382184.89706  -6531551.35009  22541448.19106  22541452.40806
  22433425.41006 -10099473.34206  -7869692.29109  22433293.53406  22433299.48306
  20780454.79206 -16381386.95106 -12764696.26809  20780322.98206  20780325.85806
  20475901.91606 -14527604.35306 -11320203.12809  20475770.59206  20475773.46706
 92  8 21 21 50 30.0000000  0  6 20 16 26 23 17 03
  21473207.54906   4706811.31706   3667637.80309  21473075.99606  21473080.60206
  21871987.36506   4214239.53706   3283822.30009  21871855.40706  21871858.47606
  22526776.38506  -8459976.77806  -6592168.29309  22526644.89606  22526649.10306
  22412089.33206 -10211594.14106  -7957058.95409  22411957.44206  22411963.33206
  20768893.63206 -16442141.47806 -12812037.39909  20768761.80106  20768764.63606
  20463838.79806 -14590996.48206 -11369599.56709  20463707.44806  20463710.33906
 92  8 21 21 51  0.0000000  0  6 20 16 26 23 17 03
  21486803.02206   4778255.75206   3723308.71009  21486671.52906  21486676.11006
  21884661.40806   4280842.27406   3335720.50109  21884529.42806  21884532.61706
  22512020.66606  -8537518.50506  -6652590.31209  22511889.10006  22511893.33806
  22390792.64606 -10323508.15706  -8044264.48909  22390660.81106  22390666.70706
  20757366.27006 -16502717.74206 -12859239.62609  20757234.47906  20757237.27006
  20451807.83806 -14654219.48306 -11418864.21809  20451676.53006  20451679.41906
 92  8 21 21 51 30.0000000  0  6 20 16 26 23 17 03
  21500449.22406   4849966.61806   3779187.22609  21500317.69406  21500322.29306
  21897382.82406   4347693.76606   3387812.53609  21897250.84806  21897254.01206
  22497308.00306  -8614834.08506  -6712836.11109  22497176.49206  22497180.49506
  22369533.00006 -10435227.22406  -8131318.12009  22369401.19106  22369407.03106
  20745869.91806 -16563131.62406 -12906315.32309  20745738.13206  20745740.91406
  20439807.72006 -14717280.68906 -11468002.80009  20439676.37206  20439679.22206
 92  8 21 21 52  0.0000000  0  6 20 16 26 23 17 03
  21514146.63706   4921946.57606   3835275.42409  21514015.06606  21514019.70606
  21910155.96206   4414817.00006   3440116.32309  21910024.01006  21910027.20506
  22482640.16306  -8691913.24106  -6772897.67909  22482508.67406  22482512.75906
  22348308.91106 -10546759.80706  -8218226.43709  22348177.09606  22348182.83706
  20734405.93106 -16623375.08306 -12953258.22409  20734274.11506  20734276.85206
  20427839.75206 -14780172.47906 -11517009.37209  20427708.45306  20427711.26506
 92  8 21 21 52 30.0000000  0  6 20 16 26 23 17 03
  21527896.79006   4994203.96206   3891579.79809  21527765.24206  21527769.93406
  21922983.87206   4482228.02506   3492644.36209  21922851.92606  21922855.12006
  22468019.71506  -8768743.99806  -6832765.69309  22467888.11706  22467892.10606
  22327121.51906 -10658100.17706  -8304984.97909  22326989.60906  22326995.36406
  20722977.24306 -16683432.97206 -13000056.52609  20722845.40406  20722848.14806
  20415906.51906 -14842881.86606 -11565873.81609  20415775.20606  20415778.03606
 92  8 21 21 53  0.0000000  0  6 20 16 26 23 17 03
  21541701.56606   5066748.27706   3948107.75109  21541570.04106  21541574.70006
  21935868.01306   4549934.70006   3545402.77809  21935736.10306  21935739.24506
  22453450.84806  -8845302.45006  -6892421.53009  22453319.33406  22453323.41006
  22305973.04406 -10769235.18506  -8391583.49809  22305841.22306  22305846.88906
  20711586.39906 -16743291.99506 -13046699.86709  20711454.56906  20711457.26706
  20404010.81206 -14905394.11106 -11614584.64309  20403879.48006  20403882.35706
 92  8 21 21 53 30.0000000  0  6 20 16 26 23 17 03
  21555561.94906   5139584.59106   4004863.23409  21555430.40606  21555435.08306
  21948810.90206   4617950.19206   3598401.83209  21948679.01706  21948682.23906
  22438938.51806  -8921565.45506  -6951847.14609  22438807.08106  22438811.01906
  22284865.83906 -10880153.76006  -8478013.36909  22284733.87906  22284739.52106
  20700237.72106 -16802928.89106 -13093170.12109  20700105.93406  20700108.59506
  20392154.63306 -14967698.83806 -11663133.77009  20392023.30106  20392026.17006
 92  8 21 21 54  0.0000000  0  6 20 16 26 23 17 03
  21569478.19106   5212714.71706   4061847.66209  21569346.63006  21569351.37806
  21961809.38706   4686257.17206   3651628.01709  21961677.51506  21961680.72606
  22424485.03306  -8997518.39006  -7011031.15209  22424353.55506  22424357.58606
  22263805.05606 -10990828.39506  -8564253.16009  22263673.13006  22263678.78206
  20688932.79306 -16862336.91106 -13139462.03209  20688800.96606  20688803.60806
  20380339.31006 -15029788.99806 -11711515.70609  20380207.98506  20380210.82206
 92  8 21 21 54 30.0000000  0  6 20 16 26 23 17 03
  21583449.81706   5286135.53906   4119058.60309  21583318.27106  21583322.97106
  21974860.55006   4754841.11706   3705070.02109  21974728.59106  21974731.85606
  22410090.60706  -9073160.80306  -7069973.18809  22409959.14206  22409963.21606
  22242793.83406 -11101242.21206  -8650289.71609  22242661.93206  22242667.49006
  20677673.10206 -16921506.86706 -13185568.43809  20677541.27206  20677543.90306
  20368565.08906 -15091663.08306 -11759729.27009  20368433.73806  20368436.55406
 92  8 21 21 55  0.0000000  0  6 20 16 26 23 17 03
  21597474.30406   5359834.32406   4176486.13709  21597342.75506  21597347.45606
  21987961.15206   4823684.85906   3758714.46209  21987829.17306  21987832.45206
  22395756.14906  -9148489.22106  -7128670.55609  22395624.68906  22395628.65306
  22221831.68106 -11211397.65406  -8736124.94109  22221699.82206  22221705.31606
  20666458.62006 -16980439.17606 -13231489.66209  20666326.76806  20666329.40106
  20356830.52406 -15153328.29306 -11807780.07009  20356699.21806  20356702.06006
 92  8 21 21 55 30.0000000  0  6 20 16 26 23 17 03
  21611547.27506   5433787.90706   4234112.21609  21611415.70306  21611420.46606
  22001107.05506   4892766.75806   3812544.47709  22000975.11006  22000978.34106
  22381479.50206  -9223512.75206  -7187130.34209  22381347.93906  22381351.90606
  22200915.21506 -11321313.62906  -8821773.56909  22200783.36306  22200788.77706
  20655285.93606 -17039151.82206 -13277239.71909  20655154.11706  20655156.73606
  20345132.35806 -15214802.54206 -11855682.06609  20345000.98306  20345003.86106
 92  8 21 21 56  0.0000000  0  6 20 16 26 23 17 03
  21625668.60006   5507995.67506   4291936.35809  21625537.06506  21625541.90306
  22014297.80906   4962084.66506   3866558.39809  22014165.88906  22014169.14006
  22367262.57906  -9298223.09806  -7245346.09509  22367131.01606  22367134.92606
  22180045.22006 -11430986.06806  -8907232.43209  22179913.31106  22179918.68506
  20644152.96306 -17097655.43506 -13322826.89409  20644021.17106  20644023.76406
  20333471.31406 -15276081.48706 -11903431.87109  20333339.99806  20333342.82306
 92  8 21 21 56 30.0000000  0  6 20 16 26 23 17 03
  21639838.88206   5582460.55906   4349960.85009  21639707.32606  21639712.21206
  22027536.62206   5031654.54506   3920768.65409  22027404.60806  22027407.86806
  22353108.45806  -9372603.12606  -7303304.45309  22352976.95606  22352980.88406
  22159220.03206 -11540422.69506  -8992507.54609  22159088.15806  22159093.47606
  20633058.62906 -17155956.46906 -13368256.21409  20632926.82006  20632929.40206
  20321849.00806 -15337157.05306 -11951023.19609  20321717.67506  20321720.51506
 92  8 21 21 57  0.0000000  0  6 20 16 26 23 17 03
  21654057.20406   5657177.85706   4408182.02709  21653925.62306  21653930.53106
  22040821.26506   5101465.96506   3975167.12709  22040689.33106  22040692.53606
  22339018.07906  -9446648.50506  -7361002.04409  22338886.56306  22338890.27306
  22138438.28706 -11649630.83506  -9077604.62409  22138306.40306  22138311.75706
  20621998.27206 -17214078.97506 -13413546.42509  20621866.45606  20621869.04706
  20310265.50706 -15398028.78306 -11998455.68609  20310134.19206  20310137.02606
 92  8 21 21 57 30.0000000  0  6 20 16 26 23 17 03
  21668323.59506   5732148.16006   4466600.34909  21668192.09006  21668196.98506
  22054151.54706   5171517.17406   4029752.44809  22054019.60506  22054022.92006
  22324989.95206  -9520365.46306  -7418443.72409  22324858.43706  22324862.27606
  22117701.03006 -11758604.89206  -9162519.29809  22117569.13306  22117574.42506
  20610969.45906 -17272035.43606 -13458707.24909  20610837.65706  20610840.22406
  20298721.92106 -15458690.88006 -12045724.82409  20298590.57106  20298593.36106
 92  8 21 21 58  0.0000000  0  6 20 16 26 23 17 03
  21682638.60306   5807373.60606   4525217.48309  21682507.08706  21682511.96406
  22067529.59506   5241819.19706   4084533.20309  22067397.71406  22067400.95106
  22311021.99406  -9593768.27606  -7475640.61209  22310890.44006  22310894.09106
  22097009.74006 -11867337.33806  -9247245.70909  22096877.92706  22096883.20506
  20599972.20406 -17329826.07806 -13503738.86609  20599840.42006  20599842.97606
  20287219.56106 -15519136.01806 -12092824.90309  20287088.23306  20287091.00706
 92  8 21 21 58 30.0000000  0  6 20 16 26 23 17 03
  21697003.49506   5882861.52706   4584039.14409  21696872.01206  21696876.99606
  22080958.25006   5312386.57006   4139520.73109  22080826.30606  22080829.55806
  22297112.95106  -9666858.85006  -7532594.20209  22296981.53306  22296985.22606
  22076364.17806 -11975830.32706  -9331785.53209  22076232.28706  22076237.47906
  20589009.57106 -17387434.84606 -13548628.76609  20588877.77306  20588880.32906
  20275760.93106 -15579351.41506 -12139745.96209  20275629.61006  20275632.37406
 92  8 21 21 59  0.0000000  0  6 20 16 26 23 17 03
  21711419.66406   5958618.69006   4643070.60109  21711288.19706  21711293.14606
  22094438.03706   5383223.57106   4194718.35109  22094306.11606  22094309.45606
  22283265.21906  -9739629.99506  -7589298.89109  22283133.69506  22283137.36506
  22055766.93206 -12084068.87406  -9416127.09109  22055635.02406  22055640.19506
  20578087.38606 -17444831.69206 -13593353.53309  20577955.51406  20577958.06006
  20264348.27806 -15639325.23606 -12186478.78509  20264216.95206  20264219.70506
 92  8 21 21 59 30.0000000  0  6 20 16 26 23 17 03
  21725887.96306   6034649.48506   4702315.28309  21725756.40506  21725761.42206
  22107974.77306   5454359.47406   4250148.88409  22107842.87106  22107846.16006
  22269479.92106  -9812071.83406  -7645746.97409  22269348.44006  22269352.08106
  22035220.03706 -12192042.59606  -9500262.29609  22035088.17306  22035093.30206
  20567209.93606 -17501992.28806 -13637894.21209  20567078.11206  20567080.67206
  20252983.36906 -15699048.22506 -12233016.15909  20252852.03406  20252854.74006
 92  8 21 22  0  0.0000000  0  6 20 16 26 23 17 03
  21740408.65206   6110955.71206   4761774.58309  21740277.10406  21740282.13306
  22121569.44206   5525800.46606   4305817.14809  22121437.59906  22121440.99006
  22255760.80506  -9884165.33206  -7701923.62209  22255629.41306  22255632.95406
  22014724.19506 -12299748.66806  -9584188.94509  22014592.31006  22014597.36206
  20556381.36506 -17558896.92606 -13682235.44509  20556249.53606  20556252.10706
  20241667.57306 -15758513.07806 -12279352.38709  20241536.22006  20241538.96206
 92  8 21 22  0 30.0000000  0  6 20 16 26 23 17 03
  21754980.60706   6187531.69006   4821444.07909  21754849.11106  21754854.15606
  22135219.38006   5597530.22706   4361710.42409  22135087.35906  22135090.74806
  22242111.10606  -9955895.51106  -7757817.16509  22241979.50006  22241983.08606
  21994279.24306 -12407186.83806  -9667906.84509  21994147.41306  21994152.44306
  20545602.17206 -17615541.58506 -13726374.10009  20545470.39206  20545472.93606
  20230400.72606 -15817720.45406 -12325487.98709  20230269.40806  20230272.11906
 92  8 21 22  1  0.0000000  0  6 20 16 26 23 17 03
  21769603.29506   6264374.02906   4881321.13009  21769471.76406  21769476.89006
  22148921.91206   5669538.36506   4417820.62209  22148790.08006  22148793.47606
  22228531.45606 -10027256.97106  -7813423.40109  22228399.81506  22228403.34506
  21973888.55206 -12514340.04306  -9751402.69609  21973756.69906  21973761.68606
  20534874.83206 -17671914.03106 -13770300.64309  20534743.06606  20534745.61006
  20219183.31806 -15876668.37906 -12371421.42009  20219051.96806  20219054.69606
 92  8 21 22  1 30.0000000  0  6 20 16 26 23 17 03
  21784277.12406   6341484.95906   4941407.46909  21784145.54706  21784150.69006
  22162677.14906   5741821.81606   4474145.35009  22162545.23006  22162548.68006
  22215020.95406 -10098252.98806  -7868744.87509  22214889.59806  22214893.21406
  21953553.54606 -12621200.57206  -9834670.49309  21953421.63306  21953426.66406
  20524196.84406 -17728026.99206 -13814024.99109  20524065.03706  20524067.62506
  20208016.67106 -15935349.36306 -12417146.84809  20207885.32406  20207888.09206
 92  8 21 22  2  0.0000000  0  6 20 16 26 23 17 03
  21799002.99406   6418869.55406   5001707.05309  21798871.47206  21798876.56706
  22176481.58106   5814364.68006   4530672.21509  22176349.58706  22176353.02406
  22201580.60706 -10168883.31906  -7923781.39909  22201448.96906  22201452.55406
  21933276.98006 -12727754.45806  -9917699.34809  21933145.03706  21933149.97806
  20513569.29206 -17783875.11706 -13857542.97209  20513437.51706  20513440.02106
  20196902.82706 -15993752.96106 -12462656.12809  20196771.48706  20196774.25106
 92  8 21 22  2 30.0000000  0  6 20 16 26 23 17 03
  21813780.16406   6496523.64306   5062216.62909  21813648.57806  21813653.74906
  22190333.01206   5887154.77406   4587391.73009  22190201.08206  22190204.54506
  22188209.26606 -10239149.41006  -7978534.10309  22188077.72506  22188081.28706
  21913061.40806 -12833987.57006 -10000478.25109  21912929.44006  21912934.33806
  20502989.85606 -17839470.12006 -13900863.71409  20502858.08106  20502860.59706
  20185841.90906 -16051878.30706 -12507948.59009  20185710.58906  20185713.33206
 92  8 21 22  3  0.0000000  0  6 20 16 26 23 17 03
  21828607.00806   6574439.51406   5122930.19009  21828475.57306  21828480.76706
  22204231.36506   5960190.66106   4644302.76609  22204099.39906  22204102.84306
  22174908.15306 -10309046.25606  -8032999.08209  22174776.70606  22174780.36106
  21892905.62206 -12939906.31706 -10083012.19609  21892773.72206  21892778.53606
  20492455.61006 -17894827.73206 -13943999.47709  20492323.82106  20492326.37306
  20174833.52406 -16109727.61706 -12553025.96109  20174702.20206  20174704.92106
 92  8 21 22  3 30.0000000  0  6 20 16 26 23 17 03
  21843483.01406   6652612.35506   5183843.98409  21843351.44806  21843356.66206
  22218175.99206   6033469.99306   4701403.50209  22218044.02206  22218047.53406
  22161679.91506 -10378561.90106  -8087167.02609  22161548.32706  22161551.86906
  21872809.94606 -13045509.05906 -10165299.90409  21872678.04006  21872682.82506
  20481963.17306 -17949965.68406 -13986964.07409  20481831.36106  20481833.94006
  20163877.70406 -16167300.98806 -12597888.31109  20163746.33006  20163749.09006
 92  8 21 22  4  0.0000000  0  6 20 16 26 23 17 03
  21858408.37906   6731045.67406   5244960.74909  21858276.90106  21858282.11606
  22232169.31506   6107005.24706   4758703.65509  22232037.43306  22232040.91006
  22148530.72906 -10447660.54006  -8141010.03309  22148399.18106  22148402.70206
  21852776.54306 -13150784.79106 -10247332.80009  21852644.70506  21852649.49506
  20471515.99206 -18004865.63406 -14029743.21509  20471384.21106  20471386.75306
  20152976.13606 -16224588.91906 -12642528.23809  20152844.79206  20152847.57006
 92  8 21 22  4 30.0000000  0  6 20 16 26 23 17 03
  21873382.46806   6809734.42506   5306276.54909  21873250.94006  21873256.21006
  22246211.83506   6180798.50006   4816204.84109  22246079.81406  22246083.26206
  22135463.91706 -10516326.14706  -8194515.60509  22135332.42806  22135336.03306
  21832803.16506 -13255744.87806 -10329119.74009  21832671.27206  21832676.01506
  20461112.22306 -18059537.65806 -14072344.75009  20460980.42506  20460982.98606
  20142128.96706 -16281591.23506 -12686945.60509  20141997.62706  20142000.35806
 92  8 21 22  5  0.0000000  0  6 20 16 26 23 17 03
  21888404.62706   6888675.49006   5367788.95809  21888273.04706  21888278.25906
  22260304.99306   6254858.15606   4873913.61809  22260173.00006  22260176.51606
  22122478.48106 -10584565.47306  -8247689.00609  22122346.94306  22122350.45906
  21812887.26206 -13360403.51906 -10410671.79109  21812755.34106  21812760.00606
  20450754.32406 -18113968.45306 -14114758.31109  20450622.49306  20450625.08006
  20131336.51506 -16338305.79906 -12731138.75009  20131205.20006  20131207.93106
 92  8 21 22  5 30.0000000  0  6 20 16 26 23 17 03
  21903473.83406   6967864.53806   5429494.59909  21903342.23106  21903347.56406
  22274447.86806   6329179.75306   4931826.50309  22274315.92506  22274319.52506
  22109572.02106 -10652389.22306  -8300538.57809  22109440.33206  22109443.81506
  21793029.85806 -13464754.57606 -10491984.16509  21792897.91506  21792902.51506
  20440444.52806 -18168146.87306 -14156975.21509  20440312.71906  20440315.25006
  20120599.01306 -16394731.73306 -12775106.98909  20120467.66306  20120470.39406
 92  8 21 22  6  0.0000000  0  6 20 16 26 23 17 03
  21918587.70706   7047288.22206   5491383.07709  21918456.19306  21918461.55006
  22288637.47706   6403746.49706   4989930.41209  22288505.55606  22288509.00706
  22096740.41306 -10719819.09506  -8353081.23709  22096608.86606  22096612.30806
  21773226.36106 -13568821.70006 -10573075.29509  21773094.44706  21773099.03506
  20430181.57106 -18222078.94506 -14199000.16009  20430049.74706  20430052.30006
  20109914.89706 -16450877.05706 -12818856.57309  20109783.55806  20109786.26206
 92  8 21 22  6 30.0000000  0  6 20 16 26 23 17 03
  21933742.77306   7126928.57506   5553440.39009  21933611.29706  21933616.63106
  22302870.55106   6478541.90406   5048212.50309  22302738.68706  22302742.24006
  22083975.62906 -10786897.19906  -8405349.79309  22083844.16606  22083847.57606
  21753472.20906 -13672629.63706 -10653964.46209  21753340.31006  21753344.89906
  20419961.94306 -18275782.90306 -14240847.35409  20419830.11806  20419832.66506
  20099281.64006 -16506755.11006 -12862397.89609  20099150.32506  20099153.01106
 92  8 21 22  7  0.0000000  0  6 20 16 26 23 17 03
  21948936.81006   7206772.91106   5615656.64609  21948805.22106  21948810.61206
  22317146.03206   6553559.90306   5106668.03709  22317014.13506  22317017.74406
  22071273.08506 -10853649.51006  -8457364.48409  22071141.47306  22071144.89806
  21733769.32106 -13776168.19306 -10734643.71909  21733637.48906  21733641.99306
  20409785.61306 -18329259.95606 -14282517.73909  20409653.83806  20409656.31506
  20088698.01106 -16562372.42306 -12905736.04509  20088566.67906  20088569.38606
 92  8 21 22  7 30.0000000  0  6 20 16 26 23 17 03
  21964168.39506   7286815.30206   5678027.23109  21964036.86506  21964042.29206
  22331462.72506   6628794.34806   5165292.22909  22331330.82506  22331334.42006
  22058633.53506 -10920070.31306  -8509120.85809  22058502.06206  22058505.42006
  21714117.57506 -13879438.67006 -10815114.08409  21713985.64206  21713990.13006
  20399648.69106 -18382529.61506 -14324026.51709  20399516.88306  20399519.35506
  20078163.90506 -16617729.48706 -12948871.40109  20078032.59606  20078035.25006
 92  8 21 22  8  0.0000000  0  6 20 16 26 23 17 03
  21979438.12906   7367057.98406   5740553.88309  21979306.69106  21979312.06606
  22345820.70406   6704245.77206   5224085.49909  22345688.76306  22345692.42306
  22046059.16406 -10986148.59806  -8560610.33109  22045927.70606  22045931.12306
  21694514.89706 -13982451.19606 -10895383.44709  21694383.01806  21694387.43806
  20389551.02506 -18435593.31406 -14365374.81009  20389419.27906  20389421.70506
  20067680.79806 -16672818.80306 -12991798.12409  20067549.41106  20067552.10306
 92  8 21 22  8 30.0000000  0  6 20 16 26 23 17 03
  21994748.11306   7447511.80006   5803245.05509  21994616.56806  21994622.03506
  22360222.40706   6779927.17506   5283057.96809  22360090.48106  22360094.08306
  22033555.75906 -11051855.33606  -8611810.29509  22033424.06706  22033427.33806
  21674966.56306 -14085177.96706 -10975430.14409  21674834.66906  21674839.05706
  20379495.81706 -18488433.51306 -14406548.94809  20379364.04506  20379366.44606
  20057251.52706 -16727624.68006 -13034503.98309  20057120.17706  20057122.91706
 92  8 21 22  9  0.0000000  0  6 20 16 26 23 17 03
  22010099.22106   7528181.91206   5866104.76509  22009967.66806  22009973.17206
  22374667.18006   6855834.67006   5342206.62009  22374535.25506  22374538.90006
  22021130.38506 -11117149.89606  -8662689.07709  22020998.87006  22021002.25106
  21655476.12906 -14187600.36606 -11055239.66709  21655344.24806  21655348.63406
  20369483.18806 -18541050.09906 -14447548.84309  20369351.38706  20369353.81106
  20046878.28306 -16782136.22506 -13076980.49209  20046746.96506  20046749.68006
 92  8 21 22  9 30.0000000  0  6 20 16 26 23 17 03
  22025490.62706   7609064.39506   5929129.95909  22025359.13306  22025364.70406
  22389151.74706   6931951.05306   5401518.03609  22389019.85306  22389023.44906
  22008788.12206 -11182008.31106  -8713228.01009  22008656.62706  22008659.94806
  21636041.11306 -14289731.16306 -11134821.96609  21635909.24006  21635913.61406
  20359511.96406 -18593449.10706 -14488379.19609  20359380.16106  20359382.56806
  20036561.31706 -16836352.12106 -13119226.62709  20036429.97606  20036432.69706
 92  8 21 22 10  0.0000000  0  6 20 16 26 23 17 03
  22040919.66306   7690144.07506   5992308.81109  22040788.21806  22040793.78706
  22403672.24806   7008256.47506   5460976.76209  22403540.29306  22403543.98206
  21996527.65706 -11246438.10706  -8763432.95109  21996396.03906  21996399.24606
  21616663.56106 -14391561.26706 -11214169.95809  21616531.56906  21616535.90406
  20349581.04606 -18645636.13706 -14529044.37409  20349449.25006  20349451.66006
  20026298.77406 -16890282.19306 -13161250.03909  20026167.38506  20026170.12606
 92  8 21 22 10 30.0000000  0  6 20 16 26 23 17 03
  22056385.07606   7771414.45306   6055636.25809  22056253.52406  22056259.15806
  22418228.67206   7084751.44806   5520583.18409  22418096.83506  22418100.53106
  21984349.56506 -11310433.75506  -8813299.60309  21984218.01006  21984221.21906
  21597348.17406 -14493062.87106 -11293261.97409  21597216.28206  21597220.59906
  20339688.90706 -18697619.58606 -14569550.91709  20339557.11306  20339559.50706
  20016090.37206 -16943927.49106 -13203051.54909  20015959.03006  20015961.77806
 92  8 21 22 11  0.0000000  0  6 20 16 26 23 17 03
  22071888.12306   7852883.56606   6119118.56009  22071756.71006  22071762.30306
  22432824.06806   7161449.70106   5580348.00409  22432692.06806  22432695.66906
  21972253.24606 -11373999.35206  -8862831.14809  21972121.66106  21972124.91706
  21578096.87106 -14594228.73306 -11372092.37409  21577964.98006  21577969.26806
  20329837.50106 -18749388.76006 -14609890.49709  20329705.72206  20329708.10106
  20005938.77806 -16997274.62006 -13244620.71909  20005807.42106  20005810.11106
 92  8 21 22 11 30.0000000  0  6 20 16 26 23 17 03
  22087429.50506   7934553.97206   6182757.71309  22087298.12806  22087303.83506
  22447460.50406   7238365.35206   5640282.22609  22447328.69106  22447332.32106
  21960235.36306 -11437153.54906  -8912042.12409  21960103.85706  21960107.04406
  21558910.21306 -14695054.57906 -11450657.82509  21558778.34506  21558782.59506
  20320029.42906 -18800930.25706 -14650052.66809  20319897.66706  20319900.04406
  19995845.24506 -17050316.20006 -13285951.80009  19995713.94106  19995716.58406
 92  8 21 22 12  0.0000000  0  6 20 16 26 23 17 03
  22103008.32706   8016419.96006   6246549.26609  22102876.85306  22102882.51906
  22462139.92906   7315505.34906   5700391.26509  22462007.98006  22462011.68706
  21948293.80206 -11499906.74106  -8960940.63209  21948162.29106  21948165.42106
  21539789.24806 -14795535.53806 -11528954.53609  21539657.37906  21539661.60606
  20310266.73806 -18852234.03806 -14690029.60709  20310134.88506  20310137.22906
  19985809.94706 -17103052.10606 -13327044.69209  19985678.60706  19985681.28706
 92  8 21 22 12 30.0000000  4  1
 -2304715.0000 -4722106.0000  3603850.0000                  APPROX POSITION XYZ
 92  8 21 22 12 30.0000000  0  6 20 16 26 23 17 03
  22118623.18806   8098475.65706   6310488.64109  22118491.57706  22118497.33606
  22476860.24006   7392861.07006   5760668.39409  22476728.32206  22476732.06506
  21936427.70906 -11562263.22906  -9009530.01409  21936296.26106  21936299.39906
  21520729.99106 -14895691.60706 -11606998.08509  21520598.16406  21520602.32806
  20300549.84006 -18903296.22706 -14729818.29409  20300418.05906  20300420.39906
  19975832.69006 -17155482.84906 -13367899.79209  19975701.33406  19975704.04106
 92  8 21 22 13  0.0000000  0  6 20 16 26 23 17 03
  22134273.00706   8180715.70206   6374571.66309  22134141.39006  22134147.22806
  22491619.38006   7470420.60106   5821104.34409  22491487.51006  22491491.14506
  21924635.03506 -11624234.18506  -9057818.98209  21924503.39606  21924506.50506
  21501727.18706 -14995551.29706 -11684810.69109  21501595.33006  21501599.43006
  20290879.53506 -18954113.78006 -14769416.35509  20290747.75706  20290750.10206
  19965913.42606 -17207608.73206 -13408517.34009  19965782.12306  19965784.79706
 92  8 21 22 13 30.0000000  0  6 20 16 26 23 17 03
  22149958.46006   8263143.17606   6438800.73109  22149826.93706  22149832.77806
  22506417.14806   7548183.03506   5881698.39209  22506285.20706  22506288.91206
  21912921.17906 -11685789.84206  -9105784.34009  21912789.65906  21912792.76906
  21482782.63306 -15095104.81706 -11762384.72309  21482650.77306  21482654.89206
  20281255.72606 -19004687.13306 -14808824.13109  20281123.94506  20281126.24406
  19956053.87206 -17259420.99306 -13448890.50909  19955922.55606  19955925.21406
 92  8 21 22 14  0.0000000  0  6 20 16 26 23 17 03
  22165677.28806   8345745.62106   6503166.13809  22165545.76606  22165551.71106
  22521250.96806   7626134.75106   5942439.93709  22521118.93906  22521122.69806
  21901289.15406 -11746915.99306  -9153415.01109  21901157.67906  21901160.79606
  21463896.11706 -15194354.22606 -11839721.78609  21463764.11406  21463768.23606
  20271675.25806 -19055032.75506 -14848054.45009  20271543.46806  20271545.77806
  19946252.54606 -17310926.91706 -13489024.97609  19946121.26606  19946123.91106
 92  8 21 22 14 30.0000000  0  6 20 16 26 23 17 03
  22181428.55306   8428518.28806   6567664.18609  22181296.96906  22181302.93506
  22536119.50206   7704269.09106   6003323.78909  22535987.46106  22535991.23606
  21889738.75106 -11807613.70906  -9200711.84009  21889607.20406  21889610.28206
  21445066.88906 -15293301.71406 -11916823.58809  21444934.98906  21444939.04606
  20262134.54606 -19105169.57506 -14887122.06509  20262002.73606  20262005.05006
  19936509.64106 -17362126.24506 -13528920.53609  19936378.35906  19936380.99906
 92  8 21 22 15  0.0000000  0  6 20 16 26 23 17 03
  22197212.40506   8511462.55306   6632295.94709  22197080.90306  22197086.82306
  22551024.91706   7782598.11006   6064359.34109  22550892.99606  22550896.86106
  21878271.05106 -11867876.17306  -9247669.51809  21878139.54406  21878142.60206
  21426297.70406 -15391933.94506 -11993679.73809  21426165.85806  21426169.85106
  20252632.65006 -19155102.27906 -14926030.62709  20252500.83706  20252503.11906
  19926826.40406 -17413012.19406 -13568571.90509  19926695.04506  19926697.71006
 92  8 21 22 15 30.0000000  0  6 20 16 26 23 17 03
  22213027.81706   8594572.57806   6697056.87009  22212896.26006  22212902.23506
  22565966.07106   7861113.76206   6125540.32409  22565834.16306  22565837.85806
  21866887.52406 -11927697.62906  -9294283.55409  21866755.97806  21866758.88606
  21407591.77806 -15490233.31206 -12070276.51609  21407459.93806  21407463.98506
  20243169.00006 -19204833.88706 -14964782.49209  20243037.17206  20243039.45706
  19917202.76206 -17463584.63506 -13607978.98409  19917071.43306  19917074.04306
 92  8 21 22 16  0.0000000  0  6 20 16 26 23 17 03
  22228873.81206   8677843.64306   6761943.27709  22228742.32406  22228748.34106
  22580941.13806   7939808.39306   6186860.76409  22580809.21406  22580812.99306
  21855583.49506 -11987099.83706  -9340570.90409  21855452.09506  21855454.94306
  21388949.44206 -15588199.59506 -12146613.75209  21388817.53206  21388821.53206
  20233745.59406 -19254353.68706 -15003369.31309  20233613.82006  20233616.09106
  19907638.81306 -17513843.56106 -13647141.76809  19907507.46606  19907510.11706
 92  8 21 22 16 30.0000000  0  6 20 16 26 23 17 03
  22244748.32606   8761263.99306   6826946.01209  22244616.82906  22244622.73706
  22595946.32406   8018661.42806   6248304.64609  22595814.42206  22595818.32406
  21844355.03706 -12046105.72406  -9386549.43209  21844223.49406  21844226.47806
  21370368.74606 -15685840.93606 -12222697.79009  21370236.82606  21370240.86506
  20224361.48606 -19303667.36506 -15041795.51909  20224229.70606  20224232.00006
  19898133.33206 -17563795.12606 -13686065.05009  19898001.99606  19898004.63306
 92  8 21 22 17  0.0000000  0  6 20 16 26 23 17 03
  22260650.12106   8844827.47606   6892060.27409  22260518.50806  22260524.59006
  22610981.05606   8097668.78206   6309868.77409  22610849.10906  22610852.99306
  21833202.73306 -12104711.24906  -9432215.99209  21833071.19306  21833074.14406
  21351850.37506 -15783155.29206 -12298527.03609  21351718.53406  21351722.47606
  20215015.49206 -19352780.75306 -15080065.65309  20214883.71406  20214885.97406
  19888686.24006 -17613439.88306 -13724749.26009  19888554.87606  19888557.53306
 92  8 21 22 17 30.0000000  0  6 20 16 26 23 17 03
  22276578.42106   8928531.08706   6957283.72909  22276446.91306  22276453.02206
  22626043.51406   8176822.10906   6371546.64809  22625911.46506  22625915.37906
  21822128.39306 -12162907.25706  -9477563.45409  21821996.76206  21821999.71606
  21333394.24206 -15880142.50606 -12374101.36809  21333262.38806  21333266.34506
  20205707.15806 -19401696.45406 -15118181.74309  20205575.36606  20205577.68706
  19879297.87206 -17662775.88506 -13763192.88109  19879166.52906  19879169.18106
 92  8 21 22 18  0.0000000  0  6 20 16 26 23 17 03
  22292532.34606   9012368.44906   7022611.40209  22292400.74906  22292406.80806
  22641133.92906   8256123.31106   6433339.75309  22641001.99006  22641005.95706
  21811131.85706 -12220693.31006  -9522591.47209  21811000.38606  21811003.23206
  21314998.91406 -15976810.11706 -12449426.66109  21314867.01806  21314870.96206
  20196435.56806 -19450418.86606 -15156147.22109  20196303.75606  20196306.03106
  19869968.10006 -17711803.91506 -13801396.52609  19869836.79606  19869839.45106
 92  8 21 22 18 30.0000000  0  6 20 16 26 23 17 03
  22308512.60706   9096344.80406   7088047.38109  22308381.04906  22308387.14706
  22656255.12606   8335585.20506   6495258.07009  22656123.19706  22656127.06306
  21800218.45006 -12278043.32006  -9567279.71409  21800086.91406  21800089.76606
  21296663.87506 -16073160.95406 -12524505.11609  21296532.04106  21296535.82706
  20187200.00906 -19498951.94006 -15193965.16209  20187068.20406  20187070.46706
  19860699.04606 -17760513.16906 -13839351.77209  19860567.73206  19860570.38006
 92  8 21 22 19  0.0000000  0  6 20 16 26 23 17 03
  22324521.26006   9180470.15706   7153599.46209  22324389.65406  22324395.78206
  22671411.65306   8415233.46006   6557321.59709  22671279.69506  22671283.60506
  21789393.24406 -12334929.48706  -9611606.52409  21789261.74706  21789264.57106
  21278389.20406 -16169194.96206 -12599336.69109  21278257.34306  21278261.13906
  20178004.47406 -19547274.55306 -15231619.10809  20177872.66206  20177874.90506
  19851493.49506 -17808888.82106 -13877047.07009  19851362.14806  19851364.76106
 92  8 21 22 19 30.0000000  0  6 20 16 26 23 17 03
  22340560.13606   9264754.93706   7219275.77309  22340428.65906  22340434.76006
  22686606.30006   8495080.82706   6619540.27909  22686474.37006  22686478.25206
  21778658.26306 -12391342.72506  -9655564.82209  21778526.61806  21778529.43406
  21260175.88406 -16264906.37106 -12673916.88909  21260043.99006  21260047.81606
  20168855.87106 -19595350.56306 -15269080.89309  20168724.08006  20168726.30106
  19842354.46606 -17856914.58206 -13914469.72309  19842223.14006  19842225.72906
 92  8 21 22 20  0.0000000  0  6 20 16 26 23 17 03
  22356631.09706   9349207.62306   7285082.91909  22356499.49006  22356505.76406
  22701840.70606   8575138.19506   6681922.59409  22701708.77706  22701712.73306
  21768014.62006 -12447275.56106  -9699148.78409  21767882.98506  21767885.75306
  21242024.19406 -16360293.27606 -12748244.22309  21241892.32706  21241896.04906
  20159760.16706 -19643148.85606 -15306326.27509  20159628.34906  20159630.62206
  19833284.60706 -17904576.72306 -13951609.03809  19833153.28306  19833155.89506
 92  8 21 22 20 30.0000000  0  6 20 16 26 23 17 03
  22372733.73506   9433827.17306   7351020.08609  22372602.24806  22372608.43506
  22717114.69406   8655403.41606   6744466.87409  22716982.68506  22716986.55306
  21757462.79506 -12502724.71206  -9742355.85009  21757331.31006  21757334.07206
  21223935.39406 -16455349.92006 -12822314.21209  21223803.48806  21223807.19206
  20150717.48806 -19690667.98806 -15343354.13209  20150585.73006  20150587.94006
  19824284.72606 -17951871.29306 -13988461.93509  19824153.42006  19824156.03406
 92  8 21 22 21  0.0000000  0  6 26 20 16 23 17 03
  21746999.83906 -12557707.86006  -9785199.79909  21746868.30206  21746871.06606
  22388865.23506   9518598.29406   7417075.35909  22388733.70406  22388740.01206
  22732424.00206   8735854.65706   6807156.10409  22732292.02606  22732295.99106
  21205912.39106 -16550061.28106 -12896115.14709  21205780.46606  21205784.16906
  20141727.90406 -19737908.51306 -15380164.89109  20141596.11406  20141598.34006
  19815352.97106 -17998807.95006 -14025035.93809  19815221.65206  19815224.25106
 92  8 21 22 21 30.0000000  0  6 26 20 16 23 17 03
  21736620.51806 -12612251.77506  -9827701.49209  21736488.86906  21736491.60606
  22405022.48406   9603504.90506   7483236.20709  22404890.98606  22404897.34306
  22747761.47906   8816453.45306   6869960.30809  22747629.50006  22747633.38606
  21187957.05906 -16644416.59006 -12969638.64109  21187825.13206  21187828.75106
  20132786.05906 -19784898.03706 -15416780.06409  20132654.23606  20132656.42006
  19806487.31606 -18045397.54706 -14061339.50409  19806355.97406  19806358.57006
 92  8 21 22 22  0.0000000  0  6 26 20 16 23 17 03
  21726324.62206 -12666356.19906  -9869860.72109  21726193.14806  21726195.86306
  22421204.06806   9688538.50306   7549496.00609  22421072.50906  22421078.88006
  22763123.75806   8897182.69306   6932866.15809  22762991.88106  22762995.83106
  21170072.12106 -16738401.93906 -13042873.85209  21169940.23606  21169943.77706
  20123886.59406 -19831664.98506 -15453221.80109  20123754.75006  20123756.95406
  19797687.08306 -18091642.92106 -14097374.84209  19797555.72206  19797558.33306
 92  8 21 22 22 30.0000000  0  6 26 20 16 23 17 03
  21716113.17406 -12720017.04606  -9911674.30709  21715981.61206  21715984.43206
  22437409.07706   9773695.83706   7615852.22009  22437277.53206  22437283.94106
  22778511.35206   8978044.08006   6995874.97209  22778379.37006  22778383.42406
  21152261.44406 -16831996.87606 -13115804.84709  21152129.59306  21152133.17906
  20115026.58606 -19878224.33606 -15489501.77309  20114894.80306  20114896.99406
  19788952.67706 -18137542.48606 -14133140.71909  19788821.34106  19788823.92306
 92  8 21 22 23  0.0000000  0  6 26 20 16 23 17 03
  21705985.05306 -12773241.26406  -9953147.66109  21705853.51406  21705856.26606
  22453635.81206   9858967.14406   7682297.24809  22453504.21106  22453510.65606
  22793921.62306   9059025.91406   7058977.64909  22793789.63306  22793793.75206
  21134522.11306 -16925217.52706 -13188444.19409  21134390.17606  21134393.74806
  20106203.53806 -19924589.85806 -15525630.71209  20106071.73506  20106073.92506
  19780283.15006 -18183100.92706 -14168640.78409  19780151.84006  19780154.38706
 92  8 21 22 23 30.0000000  0  6 26 20 16 23 17 03
  21695942.29706 -12826015.72606  -9994270.55909  21695810.81406  21695813.56806
  22469883.61806   9944349.61706   7748828.89409  22469752.08206  22469758.47906
  22809357.11906   9140139.17506   7122182.72409  22809225.09606  22809229.09906
  21116849.86606 -17018085.12806 -13260808.43909  21116718.03706  21116721.52906
  20097415.85706 -19970769.37106 -15561614.71309  20097284.05906  20097286.24306
  19771679.12106 -18228315.27606 -14203872.72609  19771547.80906  19771550.36006
 92  8 21 22 24  0.0000000  0  6 26 20 16 23 17 03
  21685987.10206 -12878331.02106 -10035035.66509  21685855.45606  21685858.14406
  22486150.63006  10029832.09806   7815438.47009  22486018.98406  22486025.46006
  22824821.27906   9221404.25006   7185506.10709  22824689.33806  22824693.41106
  21099239.38006 -17110628.32306 -13332919.90309  21099107.50506  21099111.02706
  20088665.21006 -20016754.02306 -15597446.87809  20088533.40006  20088535.58406
  19763139.56806 -18273190.88706 -14238840.71909  19763008.25306  19763010.81106
 92  8 21 22 24 30.0000000  0  6 26 20 16 23 17 03
  21676118.34306 -12930190.27406 -10075445.41009  21675986.93406  21675989.56506
  22502435.28606  10115408.03406   7882120.86509  22502303.66806  22502310.22106
  22840316.25206   9302829.83706   7248954.55909  22840184.16506  22840188.21006
  21081685.53706 -17202874.17906 -13404799.67709  21081553.61906  21081557.10406
  20079952.37106 -20062540.43806 -15633124.57509  20079820.53406  20079822.67406
  19754664.09806 -18317730.01006 -14273546.51309  19754532.73206  19754535.27606
 92  8 21 22 25  0.0000000  0  6 26 20 16 23 17 03
  21666339.72806 -12981578.45306 -10115488.08109  21666208.07606  21666210.64006
  22518739.49806  10201087.12206   7948883.64009  22518607.94306  22518614.51906
  22855842.48806   9384420.58706   7312531.71409  22855710.53806  22855714.54206
  21064188.87206 -17294819.14106 -13476444.99109  21064057.00506  21064060.47106
  20071280.14306 -20108113.17406 -15668635.77009  20071148.32206  20071150.43706
  19746255.54406 -18361917.13906 -14307978.02809  19746124.20806  19746126.75106
 92  8 21 22 25 30.0000000  0  6 26 20 16 23 17 03
  21656653.59406 -13032478.60906 -10155150.47409  21656522.06206  21656524.70306
  22535064.81706  10286876.44906   8015732.31409  22534933.28106  22534939.85106
  22871400.73406   9466179.69006   7376240.04409  22871268.68306  22871272.83706
  21046753.50806 -17386442.40906 -13547839.63809  21046621.59506  21046625.08306
  20062652.95006 -20153449.15406 -15703962.48109  20062521.13106  20062523.25806
  19737916.34906 -18405739.73706 -14342125.49009  19737785.01506  19737787.60306
 92  8 21 22 26  0.0000000  0  6 26 20 16 23 17 03
  21647062.08706 -13082882.06206 -10194425.82509  21646930.53806  21646933.08706
  22551412.84506  10372785.65406   8082674.39809  22551281.33306  22551288.01906
  22886990.81806   9548105.66206   7440078.40709  22886858.81706  22886862.83106
  21029384.46606 -17477716.70506 -13618962.36209  21029252.58306  21029255.98606
  20054073.41206 -20198534.85006 -15739094.16709  20053941.59806  20053943.72806
  19729649.38306 -18449183.02206 -14375977.38209  19729518.03506  19729520.53806
 92  8 21 22 26 30.0000000  0  6 26 20 16 23 17 03
  21637566.06706 -13132783.18506 -10233309.75209  21637434.61106  21637437.11306
  22567785.89706  10458826.08706   8149718.73809  22567654.41106  22567661.06106
  22902611.74906   9630193.95006   7504043.25109  22902479.74306  22902483.78406
  21012090.07106 -17568599.17906 -13689779.77009  21011958.15806  21011961.57706
  20045541.52006 -20243370.09006 -15774030.69009  20045409.71406  20045411.81606
  19721457.75306 -18492230.31706 -14409520.70509  19721326.39606  19721328.95206
 92  8 21 22 27  0.0000000  0  6 26 23 20 16 17 03
  21628166.75506 -13182176.28806 -10271797.82009  21628035.27006  21628037.83206
  20994875.02306 -17659064.34106 -13760272.00409  20994743.14306  20994746.57806
  22584183.67806  10544995.89906   8216863.89409  22584052.09106  22584058.77206
  22918262.08806   9712436.60706   7568128.38609  22918130.01406  22918134.02006
  20037058.57206 -20287947.89806 -15808766.61309  20036926.79606  20036928.89106
  19713342.06306 -18534878.48406 -14442753.01909  19713210.70106  19713213.22306
 92  8 21 22 27 30.0000000  0  6 26 20 16 17 03 23
  21618864.44506 -13231060.17106 -10309889.08809  21618732.88206  21618735.41206
  22600604.41806  10631287.49706   8284103.94609  22600472.90706  22600479.64106
  22933941.88106   9794835.67406   7632335.39709  22933810.02706  22933814.09206
  20028624.27306 -20332270.28306 -15843303.50909  20028492.47306  20028494.60806
  19705301.88806 -18577129.57806 -14475675.92509  19705170.57606  19705173.06806
  20977740.12306 -17749108.26806 -13830436.00309  20977608.26906  20977611.67606
 92  8 21 22 28  0.0000000  0  6 26 20 16 17 03 23
  21609655.72006 -13279452.76806 -10347597.53309  21609524.11906  21609526.62106
  22617044.49506  10717679.91206   8351422.55509  22616912.98506  22616919.81306
  22949648.39006   9877372.61806   7696649.84909  22949516.37006  22949520.53306
  20020232.62306 -20376368.52106 -15877665.74309  20020100.81106  20020102.93706
  19697334.27106 -18618999.45706 -14508301.78109  19697202.94406  19697205.50906
  20960682.20106 -17838747.74106 -13900284.84409  20960550.29506  20960553.64706
 92  8 21 22 28 30.0000000  0  6 26 20 16 17 03 23
  21600539.67406 -13327357.73406 -10384926.00709  21600408.07906  21600410.58006
  22633502.69806  10804167.37606   8418815.22709  22633371.12906  22633377.90206
  22965379.72006   9960041.04406   7761066.74509  22965247.84206  22965251.77006
  20011883.31706 -20420244.44506 -15911854.74309  20011751.48406  20011753.60706
  19689439.09806 -18660488.83506 -14540631.14509  19689307.78206  19689310.30106
  20943700.48306 -17927987.00506 -13969821.83409  20943568.53506  20943571.93006
 92  8 21 22 29  0.0000000  0  6 26 20 16 17 03 23
  21591517.63406 -13374767.84406 -10421868.87809  21591386.16306  21591388.65206
  22649977.35706  10890741.33206   8486275.29309  22649845.79906  22649852.54706
  22981134.11806  10042830.87706   7825578.25109  22981002.13506  22981006.10306
  20003574.57706 -20463906.79106 -15945877.31609  20003442.79706  20003444.91806
  19681615.76906 -18701600.74606 -14572666.37709  19681484.41106  19681486.94706
  20926788.78906 -18016857.94006 -14039071.81409  20926656.92206  20926660.20206
 92  8 21 22 29 30.0000000  0  6 26 20 16 17 03 23
  21582592.22806 -13421671.89606 -10458417.41809  21582460.67706  21582463.11006
  22666470.40206  10977412.08206   8553810.77809  22666338.78906  22666345.61906
  22996910.75906  10125737.15206   7890180.48509  22996778.77306  22996782.82906
  19995308.93506 -20507343.04106 -15979723.71109  19995177.15606  19995179.27606
  19673867.17506 -18742319.37806 -14604395.15709  19673735.86106  19673738.43006
  20909946.07006 -18105366.82606 -14108039.67809  20909814.18806  20909817.44806
 92  8 21 22 30  0.0000000  0  6 26 20 16 17 03 23
  21573762.52106 -13468071.49106 -10494572.87709  21573631.04006  21573633.46606
  22682984.33806  11064192.59806   8621431.79509  22682852.71406  22682859.55006
  23012709.63506  10208761.88606   7954875.01609  23012577.86806  23012581.93306
  19987089.49006 -20550536.49906 -16013380.91709  19986957.66606  19986959.78906
  19666196.96506 -18782626.82406 -14635803.53309  19666065.60506  19666068.14806
  20893172.99306 -18193509.79006 -14176722.40609  20893041.10206  20893044.35706
 92  8 21 22 30 30.0000000  0  6 26 20 16 17 03 23
  21565029.46406 -13513963.94206 -10530333.16209  21564897.90906  21564900.33506
  22699520.12706  11151088.90206   8689143.03509  22699388.59906  22699395.56806
  23028534.93506  10291922.50006   8019675.43809  23028402.88306  23028406.83606
  19978919.98906 -20593467.41206 -16046833.54409  19978788.18806  19978790.26606
  19658607.10206 -18822511.78806 -14666882.70309  19658475.76706  19658478.28706
  20876470.06206 -18281283.66906 -14245117.53309  20876338.12906  20876341.33006
 92  8 21 22 31  0.0000000  0  6 26 20 16 17 03 23
  21556392.73706 -13559350.10506 -10565698.93809  21556261.18106  21556263.54506
  22716075.44106  11238086.77206   8756933.41709  22715943.89306  22715950.85806
  23044384.57106  10375213.86406   8084577.73809  23044252.61106  23044256.83906
  19970799.08906 -20636143.01206 -16080087.22609  19970667.26906  19970669.33806
  19651095.95806 -18861983.01006 -14697639.48209  19650964.62306  19650967.11606
  20859835.08206 -18368700.82806 -14313234.69809  20859703.21506  20859706.37106
 92  8 21 22 31 30.0000000  0  6 26 20 16 17 03 23
  21547849.58406 -13604244.89606 -10600681.83109  21547717.95706  21547720.36506
  22732646.75306  11325169.04206   8824789.56209  22732515.23206  22732522.25206
  23060257.66506  10458627.10606   8149575.00009  23060125.84906  23060129.86106
  19962726.81106 -20678562.94506 -16113141.68509  19962594.97706  19962597.03306
  19643661.16406 -18901052.95006 -14728083.57709  19643529.83706  19643532.34206
  20843269.74206 -18455751.78106 -14381066.50909  20843137.84806  20843140.99806
 92  8 21 22 32  0.0000000  0  6 26 20 16 17 03 23
  21539401.26706 -13648639.59706 -10635275.04109  21539269.78906  21539272.16506
  22749231.99506  11412324.54106   8892702.77009  22749100.55106  22749107.55606
  23076157.85606  10542181.88106   8214682.56209  23076025.78906  23076029.80006
  19954699.14306 -20720748.40606 -16146013.44109  19954567.31406  19954569.35606
  19636301.60606 -18939727.60706 -14758219.66109  19636170.27906  19636172.78806
  20826775.64706 -18542427.97906 -14448606.30309  20826643.79806  20826646.89806
 92  8 21 22 32 30.0000000  0  6 26 20 16 17 03 23
  21531055.06006 -13692499.20006 -10669451.29509  21530923.54206  21530925.88206
  22765831.91806  11499557.20606   8960676.10409  22765700.43606  22765707.54906
  23092086.94106  10625890.64206   8279910.09709  23091955.06906  23091959.26606
  19946716.68506 -20762696.50706 -16178700.23809  19946584.88006  19946586.88606
  19629019.06806 -18977997.38806 -14788040.25709  19628887.77506  19628890.25506
  20810355.07106 -18628718.68306 -14515845.71609  20810223.20106  20810226.26606
 92  8 21 22 33  0.0000000  0  6 26 20 16 17 03 23
  21522813.34606 -13735810.79106 -10703200.52709  21522681.60906  21522684.00906
  22782447.26206  11586870.66006   9028712.39409  22782315.74506  22782322.89006
  23108045.68206  10709752.36106   8345256.82209  23107913.44606  23107917.58306
  19938779.39506 -20804406.90606 -16211201.81609  19938647.58606  19938649.61006
  19621815.23106 -19015854.05106 -14817538.94509  19621683.88906  19621686.36006
  20794009.99406 -18714612.11206 -14582775.56709  20793878.10906  20793881.18106
 92  8 21 22 33 30.0000000  0  6 26 20 16 17 03 23
  21514674.43806 -13778579.46506 -10736526.71009  21514542.90706  21514545.21606
  22799078.79006  11674268.64406   9096814.54909  22798947.16606  22798954.34606
  23124032.74506  10793766.68506   8410722.47109  23123900.79906  23123904.99706
  19930885.67106 -20845888.37906 -16243525.01309  19930753.88606  19930755.88706
  19614691.70106 -19053288.34806 -14846708.51509  19614560.38706  19614562.83206
  20777741.09006 -18800105.89506 -14649394.00909  20777609.19306  20777612.24106
 92  8 21 22 34  0.0000000  0  6 26 20 16 17 03 23
  21506636.85406 -13820817.21006 -10769439.18709  21506505.29006  21506507.65106
  22815726.35506  11761752.06506   9164983.27809  22815594.82606  22815602.04506
  23140047.95206  10877926.33106   8476301.34609  23139916.03406  23139920.26806
  19923034.10306 -20887148.24806 -16275675.53209  19922902.28006  19922904.30206
  19607649.76706 -19090294.02606 -14875544.09709  19607518.43406  19607520.86806
  20761545.83506 -18885212.01206 -14715710.37309  20761413.95006  20761416.95806
 92  8 21 22 34 30.0000000  0  6 26 20 16 17 03 23
  21498696.28406 -13862545.70006 -10801954.84309  21498564.68706  21498567.01106
  22832390.49506  11849321.88206   9233219.32609  22832258.93806  22832266.16706
  23156087.87306  10962216.17406   8541981.67709  23155955.70606  23155960.09206
  19915229.62706 -20928161.99306 -16307634.26909  19915097.81106  19915099.76806
  19600690.44606 -19126865.54806 -14904041.37509  19600559.10706  19600561.51206
  20745426.01806 -18969921.46206 -14781717.64809  20745294.14206  20745297.13606
 92  8 21 22 35  0.0000000  0  6 26 20 16 17 03 23
  21490851.07806 -13903771.68006 -10834078.93309  21490719.58806  21490721.93806
  22849071.39406  11936979.81006   9301524.03009  22848939.83006  22848947.09806
  23172150.91906  11046628.32706   8607757.31909  23172018.85506  23172023.09106
  19907472.66806 -20968925.25106 -16339397.82309  19907340.84906  19907342.77206
  19593815.10706 -19162995.62706 -14932194.66909  19593683.75906  19593686.15406
  20729386.63506 -19054209.05106 -14847396.20209  20729254.70606  20729257.67106
 92  8 21 22 35 30.0000000  0  6 26 20 16 17 03 23
  21483104.48206 -13944479.58206 -10865799.32509  21482972.98206  21482975.41106
  22865770.54406  12024733.63106   9369903.45909  22865638.97106  22865646.32906
  23188238.10306  11131166.43106   8673631.11509  23188106.10606  23188110.42706
  19899766.36906 -21009421.69106 -16370953.46709  19899634.54406  19899636.44206
  19587026.23806 -19198671.27606 -14959993.86109  19586894.90406  19586897.31406
  20713429.20806 -19138065.29006 -14912738.64109  20713297.32806  20713300.25206
 92  8 21 22 36  0.0000000  0  7 26 20 16 21 17 03 23
  21475459.62506 -13984653.53606 -10897103.65109  21475328.02706  21475330.44406
  22882487.50106  12112581.32106   9438356.02709  22882355.94006  22882363.29906
  23204349.50806  11215832.46606   8739604.57009  23204217.48306  23204221.95506
  24028589.73416         0.45116         0.04619  24028458.14116  24028468.85916
  19892114.64806 -21049631.40806 -16402285.69009  19891982.83506  19891984.78406
  19580324.35706 -19233890.01006 -14987437.01609  19580192.96406  19580195.39106
  20697556.33906 -19221477.51506 -14977735.10009  20697424.44606  20697427.34906
 92  8 21 22 36 30.0000000  0  7 26 20 16 21 17 03 23
  21467920.56406 -14024271.26806 -10927974.55509  21467789.08506  21467791.44006
  22899221.40406  12200517.58506   9506877.61309  22899089.80806  22899097.20806
  23220483.79906  11300617.90206   8805671.07609  23220351.62206  23220356.00706
  24006345.33506   -116893.72306    -91085.86609  24006213.35406  24006224.39606
  19884516.99206 -21089557.14406 -16433396.63109  19884385.18706  19884387.12906
  19573709.39106 -19268651.42106 -15014523.81509  19573578.07706  19573580.50006
  20681769.20206 -19304439.25806 -15042380.53209  20681637.31206  20681640.22006
 92  8 21 22 37  0.0000000  0  7 26 20 16 21 17 03 23
  21460490.69606 -14063315.35406 -10958398.46309  21460359.13706  21460361.54206
  22915970.32806  12288533.63706   9575461.36709  22915838.80606  22915846.36306
  23236639.31806  11385515.21106   8871824.76909  23236507.16406  23236511.56806
  23984124.01106   -233664.57706   -182075.67909  23983992.47906  23984002.87806
  19876967.64506 -21129228.82306 -16464309.60709  19876835.86906  19876837.82506
  19567180.78706 -19302959.20706 -15041257.13709  19567049.49506  19567051.91706
  20666062.65806 -19386977.21706 -15106695.74109  20665930.78206  20665933.67506
 92  8 21 22 37 30.0000000  0  7 26 20 16 21 17 03 23
  21453169.42306 -14101788.10406 -10988377.17209  21453037.85706  21453040.16806
  22932733.07606  12376621.47806   9644101.05809  22932601.55506  22932609.05006
  23252816.78706  11470529.35406   8938069.47709  23252684.80906  23252689.36306
  23961926.56106   -350310.25706   -272967.96009  23961795.11506  23961805.42506
  19869464.66306 -21168657.06406 -16495032.89209  19869332.89706  19869334.84406
  19560738.02406 -19336816.17706 -15067639.17009  19560606.68806  19560609.12706
  20650432.07706 -19469116.19406 -15170700.05709  20650300.15906  20650303.05906
 92  8 21 22 38  0.0000000  0  7 26 20 16 21 17 03 23
  21445956.87706 -14139690.23406 -11017911.23909  21445825.26506  21445827.57106
  22949509.27306  12464779.98706   9712795.81009  22949377.68906  22949385.24306
  23269017.66206  11555664.20506   9004408.28109  23268885.58306  23268889.93106
  23939756.07606   -466815.85306   -363751.09909  23939624.55106  23939635.04906
  19862005.58206 -21207855.12006 -16525576.81109  19861873.77206  19861875.69606
  19554381.77706 -19370218.58406 -15093667.00009  19554250.46006  19554252.86806
  20634879.76306 -19550843.76106 -15234383.79409  20634747.88406  20634750.73806
 92  8 21 22 38 30.0000000  0  7 26 20 16 21 17 03 23
  21438853.36306 -14177019.92206 -11046999.24409  21438721.77406  21438724.06606
  22966299.12006  12553010.45106   9781546.63209  22966167.54806  22966175.09706
  23285241.04106  11640920.31406   9070841.54609  23285109.13806  23285113.85706
  23917615.12406   -583166.57506   -454413.55809  23917483.33506  23917493.57506
  19854587.51006 -21246837.40406 -16555952.59309  19854455.69106  19854457.61906
  19548113.19606 -19403160.08706 -15119335.68409  19547981.85706  19547984.26906
  20619406.56206 -19632155.57606 -15297743.56709  20619274.70206  20619277.53406
 92  8 21 22 39  0.0000000  0  7 26 20 16 21 17 03 23
  21431854.67106 -14213798.02306 -11075657.44609  21431723.15306  21431725.48506
  22983099.43706  12641296.20506   9850340.53509  22982967.97106  22982975.53306
  23301488.17406  11726297.27706   9137368.98809  23301356.08506  23301360.43906
  23895505.08906   -699353.21306   -544948.15109  23895373.63206  23895383.62106
  19847209.36806 -21285609.58306 -16586164.65809  19847077.55906  19847079.44406
  19541930.08306 -19435652.56906 -15144654.48109  19541798.74306  19541801.11406
  20604011.57906 -19713056.46406 -15360783.13709  20603879.69306  20603882.52806
 92  8 21 22 39 30.0000000  0  7 26 20 16 21 17 03 23
  21424955.13106 -14250055.08806 -11103909.64509  21424823.59806  21424825.79406
  22999905.71306  12729612.86006   9919158.51609  22999774.14506  22999781.84906
  23317753.68806  11811774.10706   9203974.25309  23317621.61306  23317626.14006
  23873423.53806   -815390.90906   -635366.68709  23873291.64206  23873301.90906
  19839868.66106 -21324185.43506 -16616223.73509  19839736.82206  19839738.70906
  19535828.78106 -19467714.97106 -15169638.15309  19535697.45006  19535699.86906
  20588695.19906 -19793544.35506 -15423500.89209  20588563.29906  20588566.10506
 92  8 21 22 40  0.0000000  0  7 26 20 16 21 17 03 23
  21418151.07806 -14285810.79506 -11131771.17109  21418019.46706  21418021.73906
  23016713.69806  12817938.58206   9987983.56409  23016582.13206  23016589.91006
  23334032.57106  11897319.86706   9270633.21609  23333900.61606  23333905.12206
  23851366.67006   -931298.45606   -725683.78909  23851234.99106  23851244.78706
  19832564.92806 -21362566.84406 -16646131.30109  19832433.07206  19832434.96106
  19529806.04306 -19499364.62006 -15194300.20309  19529674.72506  19529677.12706
  20573454.00706 -19873637.09006 -15485910.73309  20573322.10006  20573324.87406
 92  8 21 22 40 30.0000000  0  7 26 20 16 21 17 03 23
  21411439.69206 -14321080.01706 -11159253.62009  21411308.00906  21411310.21806
  23033520.09906  12906256.40106  10056802.44809  23033388.61206  23033396.41006
  23350322.35206  11982923.97106   9337337.66909  23350190.40706  23350195.12106
  23829330.48506  -1047097.40606   -815916.27509  23829198.86806  23829208.71406
  19825299.90506 -21400744.35206 -16675879.98009  19825168.08006  19825169.96906
  19523859.69806 -19530613.19906 -15218649.72809  19523728.29906  19523730.70206
  20558282.72106 -19953362.78806 -15548034.57109  20558150.83206  20558153.53806
 92  8 21 22 41  0.0000000  0  7 26 20 16 21 17 03 23
  21404817.93906 -14355876.49406 -11186367.70109  21404686.39906  21404688.57706
  23050323.12506  12994555.95606  10125607.10009  23050191.58206  23050199.42106
  23366621.72106  12068576.93706   9404080.16209  23366489.78906  23366494.34406
  23807313.05506  -1162797.54006   -906071.75809  23807181.40106  23807191.34806
  19818075.02306 -21438711.24106 -16705464.54109  19817943.23006  19817945.09206
  19517988.56706 -19561466.00806 -15242690.86309  19517857.21706  19517859.59606
  20543176.73106 -20032744.66806 -15609890.49909  20543044.83606  20543047.51106
 92  8 21 22 41 30.0000000  0  7 26 20 16 21 17 03 23
  21398286.29806 -14390199.95206 -11213113.19509  21398154.74806  21398156.94106
  23067120.96606  13082828.30606  10194390.55309  23066989.37306  23066997.32006
  23382926.56106  12154260.38606   9470846.43209  23382794.80306  23382799.39506
  23785313.80906  -1278404.80006   -996154.88009  23785181.89306  23785191.44606
  19810889.87206 -21476469.28406 -16734886.36409  19810758.07406  19810759.97906
  19512191.97206 -19591927.09806 -15266426.76109  19512060.65206  19512063.02406
  20528131.08606 -20111809.67306 -15671499.51309  20527999.18506  20528001.85906
 92  8 21 22 42  0.0000000  0  7 26 20 16 21 17 03 23
  21391845.87306 -14424044.42306 -11239485.45509  21391714.34206  21391716.53806
  23083912.76806  13171069.45106  10263149.68209  23083781.30006  23083789.22006
  23399238.08806  12239976.53306   9537638.16909  23399106.26806  23399110.81506
  23763330.75906  -1393923.12606  -1086168.70009  23763199.03806  23763208.61706
  19803746.97906 -21514005.39006 -16764135.24809  19803615.16006  19803617.03906
  19506470.08306 -19621995.80606 -15289856.90609  19506338.75206  19506341.08906
  20513143.89406 -20190567.99906 -15732869.55609  20513012.00906  20513014.62906
 92  8 21 22 42 30.0000000  4  1
 -2304715.0000 -4722106.0000  3603850.0000                  APPROX POSITION XYZ
 92  8 21 22 42 30.0000000  0  7 26 20 16 21 17 03 23
  21385498.24806 -14457400.89406 -11265477.45509  21385366.68906  21385368.83106
  23100698.62206  13259278.33806  10331883.67609  23100567.00606  23100575.03206
  23415556.12006  12325728.57806   9604457.88009  23415424.32106  23415429.02206
  23741364.97106  -1509352.55106  -1176113.25809  23741233.31906  23741242.66406
  19796644.72206 -21551327.82006 -16793217.63109  19796512.92206  19796514.78206
  19500823.62706 -19651668.21606 -15312978.25309  19500692.30906  19500694.61306
  20498218.78306 -20268999.42306 -15793984.87409  20498086.88906  20498089.46406
 92  8 21 22 43  0.0000000  0  7 26 20 16 21 17 03 23
  21379249.01006 -14490240.53106 -11291066.72709  21379117.47906  21379119.61506
  23117480.32906  13347466.42506  10400601.46409  23117348.79006  23117356.89206
  23431880.49206  12411514.14706   9671303.71109  23431748.80606  23431753.39606
  23719419.98606  -1624673.18606  -1265973.04909  23719288.10106  23719297.59406
  19789583.83406 -21588433.13506 -16822130.83409  19789452.01906  19789453.83406
  19495255.75706 -19680927.74606 -15335777.87209  19495124.39606  19495126.70506
  20483361.71906 -20347073.96006 -15854822.09709  20483229.80306  20483232.38106
 92  8 21 22 43 30.0000000  0  7 26 20 16 21 17 03 23
  21373103.43006 -14522536.11406 -11316232.06609  21372971.87306  21372973.93306
  23134261.56906  13435651.00806  10469316.51909  23134129.95706  23134138.06106
  23448216.42206  12497358.32006   9738195.22809  23448084.42906  23448088.98006
  23697497.74506  -1739873.46006  -1355739.05809  23697365.91806  23697375.10306
  19782566.87006 -21625307.54006 -16850864.11009  19782435.06106  19782436.87306
  19489770.65206 -19709752.01406 -15358238.32509  19489639.30906  19489641.61406
  20468581.54306 -20424743.72806 -15915343.91709  20468449.63306  20468452.20806
 92  8 21 22 44  0.0000000  0  7 26 20 16 21 17 03 23
  21367058.75406 -14554300.93706 -11340983.82509  21366927.21606  21366929.27306
  23151040.18006  13523822.75106  10538021.56309  23150908.59306  23150916.70206
  23464562.61206  12583259.50506   9805131.13309  23464430.83706  23464435.84706
  23675595.55206  -1854968.47306  -1445423.05909  23675463.72906  23675472.88506
  19775591.24206 -21661964.45306 -16879427.91209  19775459.42206  19775461.22206
  19484367.46606 -19738145.69106 -15380363.24909  19484236.12306  19484238.49806
  20453881.85206 -20501990.85206 -15975536.40609  20453749.93606  20453752.45406
 92  8 21 22 44 30.0000000  0  7 26 20 16 21 17 03 23
  21361110.18906 -14585561.39306 -11365342.57109  21360978.52706  21360980.60106
  23167811.06006  13611953.60906  10606694.74609  23167679.51406  23167687.67106
  23480912.75906  12669176.71006   9872079.53409  23480780.49406  23480785.08306
  23653709.83506  -1969976.76206  -1535039.48809  23653578.06206  23653587.14906
  19768648.79306 -21698447.16806 -16907855.97409  19768516.99506  19768518.84806
  19479041.86506 -19766132.03906 -15402170.77409  19478910.49506  19478912.83006
  20439258.21006 -20578838.66206 -16035417.74009  20439126.27606  20439128.80606
 92  8 21 22 45  0.0000000  0  7 26 20 16 21 17 03 23
  21355253.39906 -14616338.15006 -11389324.41009  21355121.79106  21355123.84606
  23184569.07006  13700016.51906  10675314.98109  23184437.51206  23184445.75106
  23497261.50006  12755093.15806   9939027.34909  23497129.69806  23497134.41106
  23631837.04706  -2084916.47306  -1624602.48809  23631705.45706  23631714.61806
  19761732.71706 -21734791.26806 -16936176.02709  19761600.87006  19761602.71506
  19473789.59906 -19793732.84806 -15423677.88009  19473658.23906  19473660.56606
  20424703.30706 -20655324.32706 -16095016.88409  20424571.42906  20424573.95106
 92  8 21 22 45 30.0000000  0  7 26 20 16 21 17 03 23
  21349483.46606 -14646659.02406 -11412951.01609  21349351.94606  21349353.94906
  23201310.36206  13787991.21906  10743866.47909  23201178.68506  23201186.96206
  23513608.56506  12840994.00106  10005963.00209  23513476.48606  23513481.26306
  23609973.85806  -2199807.45306  -1714127.52709  23609842.12706  23609850.93006
  19754839.47106 -21771015.50106 -16964402.68309  19754707.59806  19754709.48406
  19468607.63206 -19820964.08406 -15444897.00909  19468476.28206  19468478.63006
  20410211.59706 -20731478.67506 -16154357.86209  20410079.72306  20410082.20306
 92  8 21 22 46  0.0000000  0  7 26 20 16 21 17 03 23
  21343798.10006 -14676536.03406 -11436231.75709  21343666.50806  21343668.57906
  23218032.65006  13875867.22806  10812341.07709  23217901.09706  23217909.41706
  23529945.67106  12926847.51906  10072861.77809  23529813.74206  23529818.50306
  23588121.32306  -2314641.41106  -1803608.13009  23587989.67706  23587998.46506
  19747967.29206 -21807129.02206 -16992543.06709  19747835.46306  19747837.28506
  19463495.03106 -19847830.97506 -15465832.23409  19463363.69606  19463366.05406
  20395777.25006 -20807331.14206 -16213463.60709  20395645.38506  20395647.84506
 92  8 21 22 46 30.0000000  0  7 26 20 16 21 17 03 23
  21338196.19506 -14705973.27706 -11459169.82309  21338064.72206  21338066.76806
  23234735.28706  13963639.16906  10880734.57609  23234603.78106  23234612.16906
  23546271.82706  13012642.47306  10139714.90809  23546139.96206  23546144.74806
  23566280.10306  -2429416.54906  -1893042.90509  23566148.29206  23566156.92106
  19741114.96106 -21843138.11906 -17020602.08409  19740983.12106  19740984.96506
  19458451.59806 -19874334.46306 -15486484.29209  19458320.24206  19458322.58406
  20381397.08006 -20882899.16706 -16272347.71209  20381265.18306  20381267.66906
 92  8 21 22 47  0.0000000  0  7 26 20 16 21 17 03 23
  21332676.84606 -14734977.26806 -11481770.28709  21332545.27806  21332547.29306
  23251416.14306  14051296.77206  10949038.98509  23251284.56806  23251293.06206
  23562588.73506  13098385.41506  10206527.54109  23562456.65806  23562461.13306
  23544447.94906  -2544142.65006  -1982439.46409  23544316.27506  23544325.05006
  19734283.58206 -21879037.25906 -17048575.42209  19734151.76506  19734153.57706
  19453476.28806 -19900479.64506 -15506857.15209  19453344.97306  19453347.32106
  20367067.39106 -20958201.93906 -16331025.12809  20366935.49806  20366937.95206
 92  8 21 22 47 30.0000000  0  7 26 20 16 21 17 03 23
  21327236.45006 -14763566.55606 -11504047.60909  21327104.94106  21327106.90306
  23268074.51706  14138835.64806  11017250.87309  23267942.97706  23267951.42406
  23578892.83906  13184068.29106  10273293.33009  23578761.12106  23578766.43806
  23522624.52106  -2658825.23606  -2071802.11709  23522492.70506  23522501.30406
  19727475.75506 -21914812.64606 -17076452.33309  19727343.91006  19727345.76506
  19448569.23506 -19926266.43406 -15526950.74409  19448437.87106  19448440.22806
  20352788.00706 -21033240.32306 -16389496.52809  20352656.08206  20352658.54406
 92  8 21 22 48  0.0000000  0  7 26 20 16 21 17 03 23
  21321874.94006 -14791741.67406 -11526002.20309  21321743.37206  21321745.34606
  23284710.29406  14226256.92106  11085371.11709  23284578.75206  23284587.35606
  23595190.87606  13269709.72306  10340026.80709  23595058.83906  23595063.09406
  23500811.70006  -2773449.45106  -2161119.27909  23500680.19406  23500688.60206
  19720692.30606 -21950459.62606 -17104229.18809  19720560.46906  19720562.30906
  19443731.48406 -19951689.01206 -15546760.53809  19443600.13306  19443602.45806
  20338562.34606 -21107996.45406 -16447747.99209  20338430.46906  20338432.87306
 92  8 21 22 48 30.0000000  0  7 26 20 16 21 17 03 23
  21316596.54606 -14819480.00006 -11547616.44209  21316465.04906  21316466.98506
  23301325.71506  14313570.16606  11153407.18209  23301194.12506  23301202.65506
  23611486.35306  13355345.31406  10406755.82509  23611354.45806  23611359.41706
  23479012.00606  -2888006.74706  -2250384.28709  23478880.37806  23478888.68506
  19713935.31406 -21985967.93106 -17131897.98109  19713803.46806  19713805.26706
  19438965.83506 -19976732.63806 -15566275.04609  19438834.48806  19438836.81306
  20324396.11306 -21182440.58506 -16505756.33909  20324264.21406  20324266.63906
 92  8 21 22 49  0.0000000  0  7 26 20 16 21 17 03 23
  21311404.50206 -14846764.08306 -11568876.72809  21311272.96006  21311274.95806
  23317921.26606  14400779.42106  11221362.21209  23317789.62306  23317798.33806
  23627782.64506  13440982.84006  10473486.24809  23627650.52306  23627655.92106
  23457227.47106  -3002484.02306  -2339586.94309  23457095.67306  23457103.79406
  19707208.00406 -22021320.12406 -17159445.13009  19707076.15206  19707077.97706
  19434273.90906 -20001388.80906 -15585487.64109  19434142.55806  19434144.90706
  20310291.59906 -21256559.68106 -16563511.41109  20310159.70306  20310162.10606
 92  8 21 22 49 30.0000000  0  7 26 20 16 21 17 03 23
  21306298.98606 -14873592.80206 -11589782.18709  21306167.54406  21306169.50306
  23334497.62206  14487888.31606  11289239.03109  23334366.08306  23334374.75006
  23644076.12306  13526602.59306  10540202.83409  23643944.10606  23643948.51406
  23435461.66806  -3116863.24706  -2428713.18009  23435329.92406  23435337.84706
  19700509.75206 -22056519.85106 -17186873.47209  19700377.88406  19700379.64806
  19429657.34506 -20025649.24706 -15604391.87209  19429525.95506  19429528.29206
  20296253.47006 -21330330.34806 -16620994.98109  20296121.57506  20296123.95006
 92  8 21 22 50  0.0000000  0  7 26 20 16 21 17 03 23
  21301286.83806 -14899932.71406 -11610306.75809  21301155.23206  21301157.23006
  23351056.72206  14574906.21006  11357044.94409  23350925.26206  23350934.06906
  23660365.16206  13612204.94306  10606905.95409  23660233.33406  23660238.07406
  23413718.79906  -3231120.02206  -2517744.00909  23413587.16006  23413595.03806
  19693842.55606 -22091555.99206 -17214174.34709  19693710.73006  19693712.48106
  19425118.70106 -20049499.84806 -15622976.74909  19424987.35806  19424989.66906
  20282285.47506 -21403732.62606 -16678191.49409  20282153.59206  20282155.91706
 92  8 21 22 50 30.0000000  0  7 26 20 16 21 17 03 23
  21296374.17006 -14925749.15006 -11630423.42709  21296242.51006  21296244.41606
  23367600.46906  14661842.77806  11424787.47909  23367468.89106  23367477.70906
  23676649.18306  13697776.00806  10673584.57609  23676517.11106  23676522.20106
  23391998.30406  -3345260.67406  -2606684.34809  23391866.65506  23391874.45006
  19687210.42406 -22126408.04106 -17241331.77009  19687078.61606  19687080.37406
  19420660.73006 -20072926.53606 -15641231.30309  19420529.40306  19420531.73406
  20268386.30106 -21476772.96806 -16735105.97809  20268254.42806  20268256.73006
 92  8 21 22 51  0.0000000  0  7 26 20 16 21 17 03 23
  21291563.35906 -14951029.31406 -11650122.22109  21291431.74506  21291433.63506
  23384130.77106  14748709.20706  11492475.36109  23383999.20006  23384008.06706
  23692925.76606  13783309.42606  10740233.93509  23692793.87106  23692798.60706
  23370302.05706  -3459273.20006  -2695524.86409  23370170.52906  23370178.20906
  19680617.43706 -22161054.35706 -17268328.88309  19680485.57706  19680487.32006
  19416286.53406 -20095913.07106 -15659142.87709  19416155.17106  19416157.50306
  20254556.27006 -21549449.95106 -16791737.32509  20254424.40406  20254426.69406
 92  8 21 22 51 30.0000000  0  7 26 20 16 21 17 03 23
  21286857.06406 -14975760.87806 -11669393.53509  21286725.52406  21286727.39606
  23400649.94006  14835517.04706  11560117.58709  23400518.33106  23400527.41506
  23709198.73706  13868826.82006  10806870.78109  23709066.92006  23709071.85206
  23348630.50106  -3573157.04606  -2784265.10909  23348498.67106  23348506.39806
  19674065.24006 -22195486.16306 -17295158.84109  19673933.42906  19673935.16906
  19411999.09306 -20118443.67706 -15676699.18009  19411867.75906  19411870.04906
  20240798.91006 -21621745.44606 -16848071.40709  20240667.01506  20240669.32106
 92  8 21 22 52  0.0000000  0  7 26 20 16 21 17 03 23
  21282261.55206 -14999910.28906 -11688211.22309  21282130.02306  21282131.87506
  23417161.92506  14922287.25906  11627730.48909  23417030.27406  23417039.30006
  23725479.38106  13954379.35406  10873535.02209  23725347.31206  23725352.08506
  23326983.49206  -3686910.76206  -2872903.97009  23326851.79006  23326859.31406
  19667560.67706 -22229667.70106 -17321793.78309  19667428.86506  19667430.60906
  19407803.32706 -20140492.56906 -15693880.11809  19407671.95906  19407674.24206
  20227118.63806 -21693635.10106 -16904089.25009  20226986.75606  20226989.01906
 92  8 21 22 52 30.0000000  0  7 26 20 16 21 17 03 23
  21277777.73206 -15023473.51706 -11706572.14709  21277646.12006  21277647.99906
  23433669.32306  15009033.13806  11695324.43609  23433537.63506  23433546.82306
  23741771.88406  14039996.36006  10940249.52009  23741639.75906  23741644.80906
  23305363.53306  -3800523.21006  -2961432.76009  23305231.78906  23305239.04506
  19661104.19306 -22263596.95306 -17348232.14009  19660972.34606  19660974.10606
  19403702.64406 -20162041.62706 -15710671.57609  19403571.29406  19403573.61506
  20213518.46506 -21765104.06106 -16959779.28009  20213386.58306  20213388.82006
 92  8 21 22 53  0.0000000  0  7 26 20 16 21 17 03 23
  21273403.19706 -15046462.02106 -11724485.23309  21273271.57506  21273273.45306
  23450173.09306  15095760.35906  11762903.83809  23450041.50806  23450050.76506
  23758082.16906  14125708.29706  11007037.95109  23757950.07506  23757955.39006
  23283775.78906  -3913966.91506  -3049830.07009  23283644.00906  23283651.25706
  19654695.43306 -22297275.00506 -17374474.75509  19654563.60106  19654565.32706
  19399698.93706 -20183081.22206 -15727066.05009  19399567.60506  19399569.87106
  20200004.67406 -21836119.44606 -17015115.87409  20199872.75906  20199874.97906
 92  8 21 22 53 30.0000000  0  7 26 20 16 21 17 03 23
  21269135.96506 -15068885.76506 -11741958.24709  21269004.43506  21269006.32606
  23466671.89906  15182461.17806  11830462.67109  23466540.35106  23466549.53606
  23774411.13206  14211518.58106  11073903.01109  23774279.27906  23774284.15006
  23262218.79406  -4027247.25506  -3138100.09209  23262087.12506  23262094.21906
  19648332.24906 -22330713.77906 -17400530.92209  19648200.37606  19648202.10806
  19395791.59606 -20203614.37206 -15743065.89309  19395660.22806  19395662.52906
  20186577.21006 -21906680.90106 -17070098.75709  20186445.34206  20186447.52806
 92  8 21 22 54  0.0000000  0  7 26 20 16 21 17 03 23
  21264975.98606 -15090746.93806 -11758992.89209  21264844.35306  21264846.20406
  23483164.61906  15269129.09906  11897995.86409  23483032.92306  23483042.30206
  23790754.45706  14297399.57406  11140823.28109  23790622.35806  23790626.99706
  23240695.49406  -4140351.69606  -3226233.06609  23240563.74206  23240570.82906
  19642012.28906 -22363925.50006 -17426410.16609  19641880.46206  19641882.18306
  19391980.29906 -20223643.07906 -15758672.66609  19391848.94106  19391851.21106
  20173235.46006 -21976792.08006 -17124730.77609  20173103.55906  20173105.75506
 92  8 21 22 54 30.0000000  0  7 26 20 16 21 17 03 23
  21260922.28306 -15112048.95606 -11775591.83609  21260790.69206  21260792.51106
  23499648.56706  15355752.80006  11965494.59509  23499517.01806  23499526.44406
  23807103.57306  14383318.60606  11207773.04309  23806971.60906  23806977.28506
  23219206.90406  -4253272.45906  -3314222.93109  23219075.45306  23219082.38306
  19635732.71906 -22396924.72806 -17452123.82909  19635600.89306  19635602.59806
  19388263.64206 -20243174.14306 -15773891.66809  19388132.27806  19388134.56106
  20159975.07706 -22046475.54306 -17179029.51309  20159843.15206  20159845.36306
 92  8 21 22 55  0.0000000  0  7 26 20 16 17 03 21 23
  21256977.02006 -15132781.24906 -11791746.83909  21256845.39906  21256847.22406
  23516123.51306  15442328.17106  12032955.66809  23515991.99806  23516001.37106
  23823457.76706  14469256.42206  11274737.48309  23823325.76306  23823330.43006
  19629495.03606 -22429703.58306 -17477665.77509  19629363.21806  19629364.95006
  19384641.85106 -20262206.53806 -15788722.09709  19384510.51806  19384512.82606
  23197753.89206  -4366008.82706  -3402069.11709  23197622.09806  23197629.07906
  20146794.88406 -22115737.72206 -17232999.97909  20146662.98706  20146665.14606
 92  8 21 22 55 30.0000000  0  7 26 20 16 17 03 21 23
  21253136.75206 -15152961.29606 -11807471.52109  21253005.18506  21253006.93306
  23532584.58206  15528830.87506  12100360.11409  23532453.03506  23532462.66706
  23839807.23406  14555174.83706  11341686.88109  23839675.33206  23839679.96006
  19623295.97906 -22462279.67306 -17503049.72309  19623164.15706  19623165.88406
  19381111.10006 -20280760.90506 -15803180.03709  19380979.75106  19380982.04906
  23176332.23506  -4478578.92306  -3489785.75209  23176200.54906  23176207.31706
  20133688.33206 -22184612.93906 -17286668.91709  20133556.45606  20133558.62006
 92  8 21 22 56  0.0000000  0  7 26 20 16 17 03 21 23
  21249399.92106 -15172598.77106 -11822773.42109  21249268.39106  21249270.13506
  23549028.37106  15615242.18106  12167693.33609  23548896.84606  23548906.44006
  23856148.98706  14641052.35706  11408604.32509  23856017.03306  23856022.66406
  19617133.18606 -22494665.41806 -17528285.35009  19617001.37406  19617003.09706
  19377668.60506 -20298851.31706 -15817276.45409  19377537.27406  19377539.52306
  23154940.96606  -4590989.88506  -3577378.39209  23154809.14806  23154815.86206
  20120652.23406 -22253117.99306 -17340049.42009  20120520.32606  20120522.46006
 92  8 21 22 56 30.0000000  0  7 26 20 16 21 17 03 23
  21245762.24706 -15191715.10006 -11837669.23609  21245630.67406  21245632.42006
  23565452.47006  15701550.64206  12234946.41909  23565321.02306  23565330.65106
  23872484.44606  14726892.87306  11475492.98209  23872352.48106  23872357.41306
  23133579.11506  -4703246.60106  -3664850.85009  23133447.15706  23133453.71006
  19611006.08806 -22526863.45706 -17553374.71809  19610874.27306  19610875.98006
  19374313.04306 -20316484.73306 -15831016.76909  19374181.72306  19374183.95806
  20107685.81906 -22321256.49706 -17393144.30209  20107553.92006  20107556.05206
 92  8 21 22 57  0.0000000  0  7 26 20 16 21 17 03 23
  21242221.70806 -15210320.55806 -11852166.97209  21242090.11406  21242091.95106
  23581856.61006  15787754.14206  12302117.70109  23581725.16206  23581734.70206
  23888813.46806  14812706.61806  11542360.78209  23888681.61606  23888686.60806
  23112246.36906  -4815349.24006  -3752203.24209  23112114.50006  23112121.17806
  19604915.79106 -22558868.85206 -17578313.97209  19604783.95806  19604785.62206
  19371044.88406 -20333659.03106 -15844399.33309  19370913.56106  19370915.83606
  20094793.09606 -22389007.89606 -17445937.54509  20094661.19106  20094663.30406
 92  8 21 22 57 30.0000000  0  7 26 20 16 21 17 03 23
  21238778.43206 -15228414.83406 -11866266.38409  21238646.85506  21238648.72806
  23598241.30706  15873854.05306  12369208.26109  23598109.68606  23598119.25306
  23905141.04906  14898504.30306  11609216.06409  23905009.02706  23905014.28706
  23090943.82406  -4927293.62906  -3839432.32809  23090812.04306  23090818.62206
  19598862.89206 -22590677.09206 -17603099.59809  19598731.01706  19598732.69406
  19367865.17106 -20350368.43006 -15857419.63909  19367733.83806  19367736.14306
  20081975.59706 -22456364.39706 -17498423.07709  20081843.67706  20081845.78706
 92  8 21 22 58  0.0000000  0  7 26 20 16 21 17 03 23
  21235431.60106 -15246001.98906 -11879970.63809  21235300.04906  21235301.95506
  23614603.76906  15959837.82406  12436208.31509  23614472.09906  23614481.93506
  23921461.26906  14984267.19206  11676044.23509  23921329.18406  23921334.32406
  23069668.64706  -5039093.78706  -3926549.02809  23069536.91306  23069543.33906
  19592845.19806 -22622299.86906 -17627740.70709  19592713.37706  19592715.08006
  19364772.37106 -20366621.18506 -15870084.11909  19364641.04706  19364643.33106
  20069231.41706 -22523335.51006 -17550608.30809  20069099.47306  20069101.59406
 92  8 21 22 58 30.0000000  0  7 26 21 20 16 17 03 23
  21232179.77206 -15263090.16206 -11893286.07709  21232048.28706  21232050.17106
  23048420.37606  -5150753.25906  -4013556.09509  23048288.53006  23048294.86406
  23630941.67006  16045693.26706  12503108.36909  23630809.92306  23630819.93106
  23937773.63906  15069993.14306  11742843.55209  23937641.79006  23937647.22606
  19586862.61506 -22653738.51006 -17652238.33309  19586730.76806  19586732.48606
  19361765.01106 -20382425.08306 -15882398.84109  19361633.65906  19361635.94606
  20056559.08006 -22589928.54006 -17602498.92809  20056427.18706  20056429.28106
 92  8 21 22 59  0.0000000  0  7 26 21 20 16 17 03 23
  21229025.11106 -15279668.08506 -11906203.91609  21228893.61006  21228895.48406
  23027196.34006  -5262284.65306  -4100463.35809  23027064.59306  23027070.95206
  23647254.09806  16131413.67506  12569903.18809  23647122.35806  23647132.19106
  23954080.89506  15155683.12306  11809614.96909  23953948.99606  23953953.25006
  19580914.53806 -22684995.68606 -17676594.55709  19580782.72306  19580784.41306
  19358842.62006 -20397782.37706 -15894365.56109  19358711.26706  19358713.54706
  20043953.77306 -22656169.73906 -17654115.39609  20043821.84506  20043823.95206
 92  8 21 22 59 30.0000000  0  7 26 21 20 16 17 03 23
  21225967.16506 -15295738.18606 -11918726.05109  21225835.58906  21225837.45206
  23005996.61906  -5373688.62406  -4187271.33109  23005864.88006  23005871.06006
  23663538.86006  16216990.56106  12636586.16809  23663407.33106  23663417.31806
  23970379.43506  15241334.65706  11876356.37709  23970247.46606  23970252.89806
  19574998.65006 -22716084.05606 -17700819.24709  19574866.80306  19574868.51206
  19356004.44406 -20412697.12706 -15905987.44009  19355873.05206  19355875.34606
  20031413.17506 -22722070.44706 -17705466.54709  20031281.29906  20031283.38506
 92  8 21 23  0  0.0000000  0  7 26 21 20 16 17 03 23
  21223004.59306 -15311306.20906 -11930856.95709  21222873.01706  21222874.83306
  22984820.19006  -5484970.57406  -4273984.22609  22984688.38306  22984694.45306
  23679795.56906  16302419.10606  12703153.55509  23679664.01306  23679674.14106
  23986670.98106  15326947.50606  11943067.55009  23986538.97206  23986544.45006
  19569113.88806 -22747008.35606 -17724916.09109  19568982.04306  19568983.73806
  19353250.19106 -20427170.75206 -15917265.58809  19353118.84806  19353121.12406
  20018937.94306 -22787627.93306 -17756550.25509  20018806.06206  20018808.12306
 92  8 21 23  0 30.0000000  0  7 26 21 20 16 17 03 23
  21220137.68306 -15326371.53606 -11942596.15309  21220006.04306  21220007.88206
  22963664.85906  -5596140.78706  -4360610.05609  22963533.13306  22963539.25106
  23696024.36106  16387700.46106  12769606.24109  23695892.85606  23695903.07806
  24002958.81106  15412537.77706  12009761.25409  24002826.95406  24002831.10706
  19563261.17506 -22777764.75406 -17748882.10509  19563129.33806  19563130.96006
  19350580.99006 -20441197.51906 -15928195.53409  19350449.62706  19350451.93606
  20006528.54806 -22852839.83406 -17807364.67509  20006396.62106  20006398.68406
 92  8 21 23  1  0.0000000  0  7 26 21 20 16 17 03 23
  21217367.74406 -15340928.22306 -11953939.00709  21217236.14706  21217237.92606
  22942528.46306  -5707212.82306  -4447159.39209  22942396.73506  22942402.72106
  23712225.69306  16472837.54806  12835946.50709  23712094.23706  23712104.44606
  24019239.77906  15498098.26206  12076431.77409  24019107.92706  24019113.47006
  19557439.18706 -22808359.40206 -17772722.08409  19557307.35306  19557308.97706
  19347998.28106 -20454769.83206 -15938771.35809  19347866.92906  19347869.18306
  19994185.38006 -22917703.47706 -17857907.72409  19994053.47506  19994055.52306
 92  8 21 23  1 30.0000000  0  7 26 21 20 16 17 03 23
  21214694.86806 -15354974.58006 -11964884.20409  21214563.28306  21214565.03206
  22921413.77406  -5818169.66306  -4533618.97109  22921282.13006  22921287.91606
  23728401.57506  16557841.63606  12902183.14009  23728269.97306  23728280.45106
  24035514.62606  15583621.51806  12143073.09809  24035382.67606  24035387.96206
  19551651.70606 -22838772.93506 -17796420.93009  19551519.82506  19551521.47906
  19345504.92306 -20467872.40406 -15948981.15109  19345373.58406  19345375.82206
  19981914.36006 -22982188.11406 -17908155.44709  19981782.46706  19981784.46806
 92  8 21 23  2  0.0000000  0  7 26 21 20 16 17 03 23
  21212120.41706 -15368503.25306 -11975426.01409  21211988.89406  21211990.63406
  22900322.10506  -5929006.05806  -4619984.70209  22900190.37006  22900196.16406
  23744553.39206  16642717.99806  12968320.23609  23744421.72306  23744432.15806
  24051783.20506  15669111.35206  12209688.53609  24051651.06206  24051656.02406
  19545902.30706 -22868985.61206 -17819963.26709  19545770.49306  19545772.18106
  19343102.77406 -20480495.98006 -15958817.69909  19342971.38706  19342973.65106
  19969714.60806 -23046298.01006 -17958111.16409  19969582.71106  19969584.69606
 92  8 21 23  2 30.0000000  0  7 26 21 20 16 17 03 23
  21209644.28806 -15381514.67206 -11985564.76809  21209512.80206  21209514.50306
  22879256.81206  -6039703.34406  -4706242.04509  22879125.12406  22879130.86206
  23760680.97506  16727468.28106  13034359.08609  23760549.47106  23760560.05806
  24068045.16406  15754570.59906  12276280.14209  24067913.17706  24067918.37006
  19540193.35206 -22898986.62606 -17843340.67109  19540061.53606  19540063.22106
  19340792.80106 -20492634.84106 -15968276.54509  19340661.44106  19340663.68906
  19957585.50106 -23110036.64706 -18007777.58709  19957453.65006  19957455.62306
 92  8 21 23  3  0.0000000  0  7 26 21 20 16 17 03 23
  21207264.95706 -15394018.30406 -11995307.84509  21207133.36506  21207135.09006
  22858221.48606  -6150243.44406  -4792376.91009  22858089.93006  22858095.61606
  23776782.73606  16812081.48906  13100291.12309  23776651.01206  23776661.50006
  24084297.76306  15839977.20206  12342830.65509  24084165.84906  24084171.06006
  19534522.12706 -22928788.91706 -17866563.22509  19534390.35106  19534392.00906
  19338573.86506 -20504295.51606 -15977362.77809  19338442.50806  19338444.73206
  19945527.09506 -23173403.70106 -18057154.46609  19945395.17906  19945397.16706
 92  8 21 23  3 30.0000000  0  7 26 21 20 16 17 03 23
  21204980.28506 -15406024.63806 -12004663.41709  21204848.71806  21204850.45206
  22837218.34106  -6260615.36406  -4878380.73309  22837086.56606  22837092.23006
  23792856.10306  16896546.49706  13166107.66709  23792724.51806  23792735.12406
  24100539.29406  15925325.52506  12409335.78109  24100407.31206  24100412.24906
  19528886.93906 -22958402.34506 -17889638.61109  19528755.10806  19528756.73006
  19336444.48806 -20515485.16306 -15986081.97609  19336313.18206  19336315.41406
  19933539.85406 -23236396.73806 -18106239.90209  19933407.98306  19933409.95306
 92  8 21 23  4  0.0000000  0  7 26 21 20 16 17 03 23
  21202792.43906 -15417521.51206 -12013622.00509  21202660.90706  21202662.59906
  22816246.01906  -6370824.74706  -4964257.91009  22816114.17606  22816119.75706
  23808899.49106  16980853.82506  13231801.33909  23808767.89506  23808778.55806
  24116769.65706  16010621.05406  12475799.77609  24116637.83206  24116643.10006
  19523284.15606 -22987845.15206 -17912581.04309  19523152.31906  19523153.96106
  19334403.70206 -20526209.75306 -15994438.79109  19334272.35406  19334274.58606
  19921624.08406 -23299014.80106 -18155033.15009  19921492.20606  19921494.16206
 92  8 21 23  4 30.0000000  0  7 26 21 20 16 17 03 23
  21200701.12106 -15428511.39206 -12022185.53309  21200569.51606  21200571.21806
  22795302.12606  -6480884.63206  -5050018.60409  22795170.42906  22795175.87606
  23824910.61106  17064991.47706  13297362.79709  23824779.14106  23824789.94706
  24132987.66306  16095842.60306  12542206.13709  24132855.76106  24132860.66106
  19517707.94606 -23017148.12306 -17935414.51009  19517576.12306  19517577.76806
  19332449.89706 -20536477.03706 -16002439.26409  19332318.56906  19332320.77906
  19909780.11906 -23361254.95906 -18203531.92709  19909648.21906  19909650.18206
 92  8 21 23  5  0.0000000  0  7 26 21 20 16 17 03 23
  21198708.61706 -15438982.38506 -12030344.73209  21198577.06206  21198578.80606
  22774384.28206  -6590807.05106  -5135672.19109  22774252.63406  22774258.16606
  23840888.72906  17148955.56406  13362788.98709  23840757.09206  23840768.05906
  24149188.18006  16180978.51706  12608545.74309  24149056.34806  24149061.77206
  19512156.18006 -23046322.65906 -17958147.89309  19512024.35106  19512026.03506
  19330583.22206 -20546286.84006 -16010083.25909  19330451.78806  19330453.99506
  19898009.14106 -23423111.93506 -18251732.12309  19897877.23406  19897879.17906
 92  8 21 23  5 30.0000000  0  7 26 21 20 16 17 03 23
  21196818.17906 -15448916.32906 -12038085.45509  21196686.64806  21196688.39406
  22753491.16206  -6700599.78606  -5221224.72609  22753359.53106  22753364.88006
  23856835.22806  17232753.89806  13428086.01709  23856703.67906  23856714.62006
  24165375.05906  16266042.38506  12674829.19709  24165243.04106  24165248.40106
  19506632.66806 -23075348.54806 -17980765.44709  19506500.87206  19506502.56406
  19328805.69706 -20555627.31206 -16017361.54309  19328674.36706  19328676.57706
  19886312.42606 -23484578.30806 -18299627.95209  19886180.50806  19886182.47006
 92  8 21 23  6  0.0000000  0  7 26 21 20 16 17 03 23
  21195030.95806 -15458307.97206 -12045403.60409  21194899.42406  21194901.17806
  22732622.23406  -6810266.01906  -5306678.70609  22732490.57306  22732495.99306
  23872750.50706  17316388.16506  13493255.19609  23872618.95106  23872630.09806
  24181549.10206  16351032.75606  12741055.41709  24181416.99306  24181421.52106
  19501140.42606 -23104210.70306 -18003255.41909  19501008.56906  19501010.26506
  19327118.66306 -20564492.82706 -16024269.73409  19326987.29406  19326989.52706
  19874687.96706 -23545664.81806 -18347227.78509  19874556.07206  19874558.01806
 92  8 21 23  6 30.0000000  0  7 26 21 20 16 17 03 23
  21193343.42106 -15467175.14206 -12052313.07209  21193211.98006  21193213.71406
  22711779.22306  -6919795.87006  -5392026.41509  22711647.53606  22711652.91906
  23888634.18806  17399856.51506  13558295.07709  23888503.02506  23888514.12706
  24197706.32306  16435940.43906  12807217.26609  24197574.09806  24197579.47706
  19495680.98906 -23132900.07806 -18025610.75709  19495549.20806  19495550.87306
  19325522.31006 -20572881.48906 -16030806.35109  19325391.00006  19325393.21106
  19863133.04006 -23606386.10406 -18394543.02809  19863001.13006  19863003.05306
 92  8 21 23  7  0.0000000  0  7 26 21 20 17 03 16 23
  21191753.87506 -15475528.68706 -12058822.30709  21191622.36006  21191624.20506
  22690962.74206  -7029186.91306  -5477265.96809  22690830.96106  22690836.25306
  23904485.07406  17483150.26506  13623198.90409  23904353.56806  23904364.78406
  19490257.37806 -23161401.09706 -18047819.32809  19490125.56406  19490127.25206
  19324015.87806 -20580797.85306 -16036974.94209  19323884.55306  19323886.75206
  24213847.05006  16520762.97606  12873312.59309  24213715.02106  24213720.73306
  19851646.65506 -23666747.44706 -18441577.79709  19851514.77906  19851516.67506
 92  8 21 23  7 30.0000000  0  7 26 21 20 16 17 03 23
  21190260.26906 -15483378.39206 -12064938.94409  21190128.70306  21190130.40006
  22670170.92206  -7138446.63606  -5562403.20309  22670039.40106  22670044.62606
  23920301.42406  17566264.59706  13687962.93409  23920169.89206  23920181.26306
  24229973.99506  16605508.34506  12939347.86609  24229842.11906  24229846.75506
  19484870.54506 -23189709.31706 -18069877.66609  19484738.71306  19484740.38206
  19322599.11606 -20588243.05806 -16042776.39809  19322467.77906  19322469.98906
  19840227.01306 -23726757.90806 -18488339.15109  19840095.14306  19840097.06206
 92  8 21 23  8  0.0000000  0  6 26 21 16 17 03 23
  21188861.69606 -15490727.63706 -12070665.61109  21188730.06706  21188731.83206
  22649408.58806  -7247553.53506  -5647421.35509  22649276.84206  22649282.03806
  24246088.12406  16690188.43606  13005332.48209  24245956.04006  24245960.99506
  19479521.21306 -23217820.21606 -18091782.24909  19479389.37806  19479391.01506
  19321274.03906 -20595206.33106 -16048202.32109  19321142.70906  19321144.93606
  19828875.40706 -23786410.85806 -18534821.92509  19828743.51406  19828745.43106
 92  8 21 23  8 30.0000000  0  6 26 21 16 17 03 23
  21187561.78206 -15497558.35106 -12075988.22709  21187430.19806  21187431.94706
  22628679.95106  -7356482.09006  -5732300.54609  22628548.30006  22628553.40106
  24262195.36306  16774833.86906  13071289.77509  24262063.37306  24262069.03606
  19474210.49706 -23245728.30706 -18113528.80509  19474078.66206  19474080.26106
  19320044.40706 -20601668.27106 -16053237.59709  19319913.04806  19319915.27406
  19817597.54606 -23845676.27106 -18581002.72309  19817465.63806  19817467.56306
 92  8 21 23  9  0.0000000  0  6 26 21 16 17 03 23
  21186365.49706 -15503844.92606 -12080886.83909  21186233.99106  21186235.68706
  22607986.69306  -7465225.33206  -5817035.34109  22607854.90806  22607860.08906
  24278301.14706  16859468.48106  13137238.76009  24278169.34606  24278174.59006
  19468941.55406 -23273416.67906 -18135104.15309  19468809.74906  19468811.35206
  19318913.33306 -20607612.16306 -16057869.20009  19318781.98906  19318784.17806
  19806396.57406 -23904537.44406 -18626868.52909  19806264.70806  19806266.61506
 92  8 21 23  9 30.0000000  0  6 26 21 16 17 03 23
  21185273.80106 -15509582.40206 -12085357.58109  21185142.20106  21185143.91906
  22587332.41906  -7573763.80806  -5901610.58209  22587200.62106  22587205.74906
  24294405.20506  16944096.59206  13203182.74409  24294273.34106  24294278.37206
  19463713.24406 -23300891.72306 -18156513.27209  19463581.40406  19463583.01706
  19317882.96206 -20613026.97206 -16062088.53009  19317751.59506  19317753.77006
  19795274.55606 -23962984.00606 -18672411.26109  19795142.66006  19795144.54206
 92  8 21 23 10  0.0000000  0  6 26 21 16 17 03 23
  21184286.72506 -15514769.11106 -12089399.15609  21184155.15606  21184156.88006
  22566721.15906  -7682075.67906  -5986009.25209  22566589.46306  22566594.46006
  24310504.53006  17028700.13006  13269107.54509  24310372.43806  24310377.76906
  19458524.78606 -23328157.24406 -18177759.12609  19458392.93906  19458394.56106
  19316952.75206 -20617915.16406 -16065897.50709  19316821.38506  19316823.55806
  19784232.67106 -24021009.28506 -18717625.72109  19784100.77506  19784102.68706
 92  8 21 23 10 30.0000000  0  6 26 21 16 17 03 23
  21183402.37106 -15519416.38806 -12093020.39409  21183270.79406  21183272.47906
  22546150.63206  -7790173.99406  -6070241.51509  22546018.89006  22546023.93406
  24326597.13506  17113263.03406  13335000.62109  24326464.99006  24326470.19806
  19453374.32306 -23355223.05206 -18198849.36009  19453242.48106  19453244.11006
  19316120.65106 -20622287.80606 -16069304.75809  19315989.30006  19315991.48006
  19773269.36706 -24078622.08906 -18762518.77109  19773137.43306  19773139.31606
 92  8 21 23 11  0.0000000  0  6 26 21 16 17 03 23
  21182617.30806 -15523541.59306 -12096234.82309  21182485.66906  21182487.39406
  22525616.00306  -7898083.40006  -6154326.58209  22525484.28606  22525489.29706
  24342673.87606  17197746.57806  13400831.97109  24342541.74906  24342546.82706
  19448260.09006 -23382098.20906 -18219791.03609  19448128.27106  19448129.91506
  19315383.28606 -20626162.67606 -16072324.13809  19315251.92006  19315254.07806
  19762380.87206 -24135840.98006 -18807104.87609  19762248.97506  19762250.81906
 92  8 21 23 11 30.0000000  0  6 26 21 16 17 03 23
  21181929.19906 -15527157.37506 -12099052.30109  21181797.63106  21181799.34006
  22505114.55806  -8005818.72806  -6238276.00409  22504982.76506  22504987.74506
  24358731.40206  17282134.12506  13466588.46609  24358599.45906  24358605.13406
  19443179.44406 -23408797.71806 -18240595.84309  19443047.61906  19443049.19806
  19314739.11606 -20629547.70806 -16074961.82609  19314607.78006  19314609.97306
  19751565.47206 -24192676.05306 -18851391.90309  19751433.56606  19751435.39106
 92  8 21 23 12  0.0000000  0  6 26 21 16 17 03 23
  21181342.04806 -15530243.17706 -12101456.81009  21181210.51606  21181212.18806
  22484642.71206  -8113397.71006  -6322103.59909  22484511.10406  22484515.99206
  24374772.86806  17366428.64206  13532272.54409  24374640.45606  24374645.63906
  19438134.74606 -23435307.55606 -18261252.85209  19438002.89706  19438004.51706
  19314188.86206 -20632439.42906 -16077215.11609  19314057.51606  19314059.69506
  19740820.76706 -24249139.63406 -18895389.45709  19740688.85406  19740690.67706
 92  8 21 23 12 30.0000000  4  1
 -2304715.0000 -4722106.0000  3603850.0000                  APPROX POSITION XYZ
 92  8 21 23 12 30.0000000  0  6 26 21 16 17 03 23
  21180857.39606 -15532789.83406 -12103441.20709  21180725.92806  21180727.60506
  22464197.58506  -8220837.58806  -6405822.80009  22464065.84606  22464070.64106
  24390799.17606  17450648.52706  13597898.46009  24390667.18606  24390672.36806
  19433127.26006 -23461621.86006 -18281757.49609  19432995.45606  19432997.07106
  19313734.40506 -20634827.70106 -16079076.11009  19313603.03206  19313605.21306
  19730147.10706 -24305230.15306 -18939096.31409  19730015.18006  19730016.99406
 92  8 21 23 13  0.0000000  0  6 26 21 16 17 03 23
  21180478.86806 -15534779.17806 -12104991.33709  21180347.34706  21180349.00106
  22443778.69706  -8328138.48406  -6489433.70109  22443647.06006  22443651.74706
  24406811.06406  17534791.46706  13663464.33709  24406679.17006  24406684.50206
  19428158.25406 -23487734.30106 -18302104.84109  19428026.40206  19428028.03206
  19313377.69306 -20636702.19706 -16080536.75609  19313246.34906  19313248.52006
  19719545.03406 -24360943.95506 -18982509.62709  19719413.15406  19719414.97106
 92  8 21 23 13 30.0000000  0  6 26 21 16 17 03 23
  21180207.81706 -15536203.17606 -12106100.93709  21180076.29506  21180077.90906
  22423388.52706  -8435289.15406  -6572927.54609  22423256.81506  22423261.53806
  24422809.06106  17618861.90306  13728973.55809  24422677.11206  24422682.58406
  19423228.06306 -23513642.12206 -18322292.74409  19423096.22906  19423097.87906
  19313120.10106 -20638056.09206 -16081591.74309  19312988.73206  19312990.88706
  19709014.87006 -24416280.28106 -19025628.80309  19708882.99406  19708884.78906
 92  8 21 23 14  0.0000000  0  5 26 21 17 03 23
  21180043.83106 -15537065.29806 -12106772.71409  21179912.37906  21179913.90006
  22403032.49306  -8542260.69106  -6656281.80509  22402900.66806  22402905.22606
  19418337.74806 -23539341.16206 -18342317.96009  19418205.91106  19418207.54806
  19312962.18906 -20638885.81806 -16082238.28609  19312830.80306  19312832.98906
  19698558.33406 -24471229.45006 -19068446.29709  19698426.42906  19698428.21906
 92  8 21 23 14 30.0000000  0  5 26 21 17 03 23
  21179980.23206 -15537400.07406 -12107033.57609  21179848.65806  21179850.22406
  22382714.12706  -8649033.05306  -6739480.86309  22382582.37206  22382586.99006
  19413486.52106 -23564834.26406 -18362182.70309  19413354.73906  19413356.35306
  19312903.82206 -20639192.26806 -16082477.08209  19312772.48506  19312774.66006
  19688178.31606 -24525776.69906 -19110950.60809  19688046.42206  19688048.22206
 92  8 21 23 15  0.0000000  0  5 26 21 17 03 23
  21180015.73106 -15537212.91606 -12106887.73809  21179884.17606  21179885.78806
  22362438.57006  -8755581.22006  -6822505.22409  22362306.78706  22362311.35806
  19408675.85106 -23590114.63706 -18381881.68409  19408543.99906  19408545.64306
  19312945.82006 -20638971.50106 -16082305.06009  19312814.46606  19312816.67606
  19677874.30706 -24579924.59206 -19153143.73309  19677742.41206  19677744.18806
 92  8 21 23 15 30.0000000  0  5 26 21 17 03 23
  21180149.98306 -15536507.75406 -12106338.26309  21180018.37506  21180019.99906
  22342210.80806  -8861877.80806  -6905333.55009  22342079.09106  22342083.57606
  19403907.81506 -23615171.29506 -18401406.34009  19403775.95206  19403777.58606
  19313089.61006 -20638216.16406 -16081716.48809  19312958.23906  19312960.43006
  19667647.94406 -24633664.51806 -19195018.95909  19667516.01406  19667517.78106
 92  8 21 23 16  0.0000000  0  5 26 21 17 03 23
  21180382.47306 -15535286.29106 -12105386.47009  21180250.89906  21180252.48806
  22322030.34606  -8967926.15306  -6987968.44209  22321898.61806  22321903.06706
  19399183.74306 -23639995.89506 -18420750.17209  19399051.93106  19399053.55106
  19313336.35706 -20636919.48606 -16080706.09009  19313204.98606  19313207.18406
  19657501.95106 -24686982.17406 -19236565.14409  19657370.05506  19657371.82006
 92  8 21 23 16 30.0000000  0  5 26 21 17 03 23
  21180715.14606 -15533537.08006 -12104023.44109  21180583.66006  21180585.24806
  22301891.06406  -9073757.55006  -7070434.28709  22301759.45706  22301763.84606
  19394504.04206 -23664588.08206 -18439912.90109  19394372.19506  19394373.79606
  19313685.72306 -20635083.51106 -16079275.46109  19313554.38106  19313556.55906
  19647435.14706 -24739883.13506 -19277786.63009  19647303.23906  19647305.00706
 92  8 21 23 17  0.0000000  0  5 26 21 17 03 23
  21181153.24306 -15531235.78906 -12102230.22009  21181021.65506  21181023.24006
  22281789.31906  -9179392.31906  -7152746.91709  22281657.67906  22281662.02706
  19389867.25706 -23688954.30206 -18458899.55409  19389735.42806  19389737.04606
  19314137.09206 -20632711.65306 -16077427.26009  19314005.73806  19314007.89106
  19637445.23706 -24792380.04706 -19318693.27409  19637313.37606  19637315.11306
 92  8 21 23 17 30.0000000  0  5 26 21 17 03 23
  21181696.17306 -15528382.37306 -12100006.77609  21181564.56906  21181566.20706
  22261720.51006  -9284854.38006  -7234924.96909  22261588.78006  22261593.04006
  19385270.43306 -23713110.38706 -18477722.46509  19385138.59006  19385140.20106
  19314688.89106 -20629811.83206 -16075167.65809  19314557.53106  19314559.71806
  19627533.07006 -24844468.68106 -19359281.78009  19627401.20706  19627402.95006
 92  8 21 23 18  0.0000000  0  5 26 21 17 03 23
  21182345.10206 -15524972.02606 -12097349.36009  21182213.58806  21182215.21406
  22241681.91406  -9390157.74106  -7316979.36109  22241550.11206  22241554.29606
  19380712.93406 -23737060.44106 -18496384.83309  19380581.11906  19380582.70006
  19315340.91606 -20626385.28006 -16072497.61909  19315209.58406  19315211.77106
  19617697.36906 -24896155.48106 -19399557.16909  19617565.49806  19617567.22006
 92  8 21 23 18 30.0000000  0  5 26 21 17 03 23
  21183098.07406 -15521015.04406 -12094265.99609  21182966.49706  21182968.17006
  22221675.73106  -9495289.71806  -7398900.21109  22221544.00906  22221548.23506
  19376193.11806 -23760811.81906 -18514892.39209  19376061.32806  19376062.92406
  19316092.01906 -20622438.32506 -16069422.07409  19315960.67306  19315962.83606
  19607934.93306 -24947457.36606 -19439532.62409  19607803.02806  19607804.78706
 92  8 21 23 19  0.0000000  0  5 26 21 17 03 23
  21183952.50406 -15516525.06506 -12090767.30509  21183820.95206  21183822.63606
  22201707.07706  -9600225.25006  -7480667.98709  22201575.31006  22201579.52206
  19371711.14706 -23784364.72606 -18533245.30009  19371579.33906  19371580.93906
  19316943.03606 -20617966.07206 -16065937.20609  19316811.73906  19316813.89406
  19598246.96506 -24998367.85906 -19479203.09809  19598115.06106  19598116.81606
 92  8 21 23 19 30.0000000  0  5 26 21 17 03 23
  21184908.61406 -15511500.78606 -12086852.27709  21184777.00206  21184778.71106
  22181778.92506  -9704947.86906  -7562269.86409  22181647.14106  22181651.32806
  19367269.35006 -23807706.37006 -18551433.58709  19367137.57906  19367139.17406
  19317896.03306 -20612958.33206 -16062035.07509  19317764.65406  19317766.83506
  19588634.76306 -25048880.32106 -19518563.42009  19588502.84606  19588504.57906
 92  8 21 23 20  0.0000000  0  5 26 21 17 03 23
  21185969.14306 -15505926.73806 -12082508.85609  21185837.61806  21185839.28006
  22161898.09806  -9809421.89106  -7643678.03809  22161766.36606  22161770.39906
  19362873.44706 -23830807.15206 -18569434.19209  19362741.63406  19362743.25506
  19318955.11206 -20607392.70506 -16057698.22709  19318823.76706  19318825.96906
  19579099.93506 -25098985.90406 -19557606.69709  19578968.03206  19578969.70506
 92  8 21 23 20 30.0000000  0  5 26 21 17 03 23
  21187138.17406 -15499784.16906 -12077722.42909  21187006.60406  21187008.24906
  22142067.71606  -9913630.20406  -7724879.17209  22141935.96306  22141940.04306
  19358526.43006 -23853650.47606 -18587234.18209  19358394.64906  19358396.23706
  19320123.85506 -20601251.16906 -16052912.61709  19319992.47006  19319994.68206
  19569646.38506 -25148664.39706 -19596317.17909  19569514.48006  19569516.13306
 92  8 21 23 21  0.0000000  0  5 26 21 17 03 23
  21188419.77306 -15493049.74806 -12072474.82409  21188288.18106  21188289.82406
  22122286.09006 -10017582.94606  -7805881.16609  22122154.31106  22122158.37806
  19354230.61406 -23876225.97806 -18604825.48209  19354098.78306  19354100.39206
  19321404.34706 -20594522.08506 -16047669.18109  19321272.97806  19321275.14506
  19560275.89906 -25197906.61406 -19634687.70609  19560143.99306  19560145.64606
 92  8 21 23 21 30.0000000  0  5 26 21 17 03 23
  21189817.52806 -15485703.80906 -12066750.71209  21189686.02506  21189687.70006
  22102551.27106 -10121289.55506  -7886691.37409  22102419.49906  22102423.51106
  19349985.90206 -23898531.90506 -18622206.72409  19349854.10106  19349855.69206
  19322797.26606 -20587202.03606 -16041965.25209  19322665.93106  19322668.12206
  19550988.83806 -25246710.57706 -19672716.73809  19550856.95406  19550858.57306
 92  8 21 23 22  0.0000000  0  5 26 21 17 03 23
  21191331.02106 -15477750.12106 -12060553.03009  21191199.48006  21191201.13306
  22082866.46506 -10224733.17306  -7967296.66209  22082734.75406  22082738.70506
  19345791.60806 -23920572.96706 -18639381.57409  19345659.82106  19345661.39006
  19324303.44606 -20579287.20306 -16035797.85709  19324172.09606  19324174.24706
  19541787.63706 -25295062.73206 -19710393.71409  19541655.75206  19541657.39206
 92  8 21 23 22 30.0000000  0  5 26 21 17 03 23
  21192960.55806 -15469187.08106 -12053880.53009  21192828.94206  21192830.55906
  22063229.17206 -10327927.00006  -8047707.31209  22063097.50506  22063101.44306
  19341646.01206 -23942358.25806 -18656357.11909  19341514.22106  19341515.78006
  19325922.43806 -20570779.09306 -16029168.16809  19325791.11406  19325793.26506
  19532674.46906 -25342952.70106 -19747710.54809  19532542.59606  19532544.20106
 92  8 21 23 23  0.0000000  0  5 26 21 17 03 23
  21194704.53606 -15460022.27006 -12046739.12009  21194573.02506  21194574.66806
  22043641.26906 -10430861.68506  -8127916.03609  22043509.56406  22043513.50306
  19337547.99606 -23963893.56606 -18673137.87109  19337416.18806  19337417.76006
  19327654.90006 -20561675.13306 -16022074.17709  19327523.55506  19327525.73206
  19523650.82806 -25390372.03506 -19784660.64909  19523518.94606  19523520.58006
 92  8 21 23 23 30.0000000  0  5 26 21 17 03 23
  21196560.47006 -15450269.16106 -12039139.29609  21196428.94906  21196430.66806
  22024104.97406 -10533525.62906  -8207913.80009  22023973.16106  22023977.06006
  19333496.96006 -23985181.95206 -18689726.21609  19333365.11906  19333366.69006
  19329500.67306 -20551975.38306 -16014515.93409  19329369.32506  19329371.54906
  19514719.23306 -25437307.85706 -19821233.98709  19514587.34306  19514588.96406
 92  8 21 23 24  0.0000000  0  5 26 21 17 03 23
  21198524.93806 -15439945.91706 -12031095.21109  21198393.26506  21198394.95406
  22004620.91006 -10635914.05206  -8287696.87509  22004489.24206  22004493.14806
  19329494.93406 -24006212.59206 -18706113.71409  19329363.12306  19329364.68106
  19331459.87906 -20541679.74506 -16006493.36009  19331328.51806  19331330.72206
  19505878.65006 -25483765.00406 -19857434.33309  19505746.78606  19505748.40806
 92  8 21 23 24 30.0000000  0  5 26 21 17 03 23
  21200600.03006 -15429041.59606 -12022598.34309  21200468.40506  21200470.04506
  21985186.39206 -10738043.20306  -8367277.92209  21985054.60206  21985058.55006
  19325544.18606 -24026974.06806 -18722291.47609  19325412.37106  19325413.91806
  19333532.66906 -20530787.24306 -15998005.69909  19333401.29906  19333403.50006
  19497128.56706 -25529747.04806 -19893264.47009  19496996.69806  19496998.31406
 92  8 21 23 25  0.0000000  0  5 26 21 17 03 23
  21202784.27706 -15417563.10406 -12013654.07009  21202652.74806  21202654.36606
  21965802.52006 -10839904.99506  -8446650.64109  21965670.84806  21965674.76106
  19321646.78206 -24047454.78206 -18738250.46009  19321514.99606  19321516.54706
  19335719.08506 -20519297.66506 -15989052.78609  19335587.71306  19335589.86906
  19488467.58006 -25575260.91706 -19928729.79509  19488335.71406  19488337.30706
 92  8 21 23 25 30.0000000  0  6 26 21 28 17 03 23
  21205079.32406 -15405502.30006 -12004256.04909  21204947.79406  21204949.46406
  21946470.16106 -10941496.79106  -8525812.97109  21946338.46206  21946342.31806
  23445141.14916        -0.19616        -0.10919  23445009.16516  23445011.91016
  19317805.97706 -24067638.98806 -18753978.39909  19317674.14506  19317675.70206
  19338019.13006 -20507210.74706 -15979634.41409  19337887.75106  19337889.98606
  19479893.76206 -25620316.52006 -19963838.03209  19479761.88006  19479763.45106
 92  8 21 23 26  0.0000000  0  6 26 21 28 17 03 23
  21207482.55306 -15392873.74606 -11994415.62209  21207350.95806  21207352.62006
  21927189.80106 -11042815.25606  -8604762.31709  21927058.12406  21927061.98406
  23421243.30406   -125583.62106    -97857.23509  23421111.27906  23421114.35406
  19314019.13306 -24087538.34206 -18769484.37509  19313887.31606  19313888.87406
  19340431.16506 -20494535.15906 -15969757.34209  19340299.84006  19340302.08606
  19471402.08606 -25664940.60606 -19998610.01809  19471270.18206  19471271.74006
 92  8 21 23 26 30.0000000  0  6 26 21 28 17 03 23
  21209992.99406 -15379681.79806 -11984136.18809  21209861.45906  21209863.00206
  21907960.24506 -11143867.22606  -8683504.00509  21907828.54006  21907832.30306
  23397369.28206   -251041.52406   -195616.57609  23397237.20006  23397239.69306
  19310283.68206 -24107168.28606 -18784780.42109  19310151.86206  19310153.41106
  19342953.72506 -20481279.03006 -15959427.90009  19342822.38406  19342824.63606
  19462990.41406 -25709143.86506 -20033054.08609  19462858.52106  19462860.10006
 92  8 21 23 27  0.0000000  0  6 26 21 28 17 03 23
  21212604.49006 -15365957.57706 -11973441.99309  21212472.95806  21212474.54706
  21888781.49106 -11244651.42106  -8762037.03509  21888649.77306  21888653.60706
  23373518.53906   -376377.69306   -293281.07709  23373386.45106  23373389.65106
  19306596.05206 -24126546.65206 -18799880.43109  19306464.24406  19306465.79406
  19345584.69906 -20467453.18306 -15948654.52009  19345453.37906  19345455.66006
  19454655.98106 -25752941.74706 -20067182.27609  19454524.09406  19454525.65306
 92  8 21 23 27 30.0000000  0  6 21 26 28 17 03 23
  21869651.13906 -11345182.19406  -8840372.58909  21869519.34606  21869523.14206
  21215314.09506 -15351718.75206 -11962346.81009  21215182.47906  21215184.12406
  23349690.00406   -501598.03506   -390855.29209  23349557.90106  23349560.79606
  19302951.87706 -24145696.72906 -18814802.55409  19302820.09406  19302821.63606
  19348322.24906 -20453067.43006 -15937444.85009  19348190.90506  19348193.14606
  19446396.61906 -25796344.63306 -20101002.67709  19446264.75506  19446266.33806
 92  8 21 23 28  0.0000000  0  6 21 26 28 17 03 23
  21850564.85206 -11445481.14206  -8918527.50209  21850433.06906  21850436.75906
  21218120.25006 -15336972.18506 -11950855.98309  21217988.70506  21217990.36806
  23325884.83706   -626694.03906   -488332.63209  23325753.01406  23325755.77506
  19299350.75606 -24164620.84106 -18829548.60409  19299218.94606  19299220.50006
  19351165.43606 -20438126.37706 -15925802.47609  19351034.09206  19351036.37406
  19438211.49406 -25839357.67306 -20134519.30509  19438079.58506  19438081.16906
 92  8 21 23 28 30.0000000  0  6 21 26 28 17 03 23
  21831518.93806 -11545567.51206  -8996516.76809  21831387.19106  21831390.88006
  21221026.14606 -15321701.13106 -11938956.46409  21220894.68506  21220896.33106
  23302100.30606   -751681.52706   -585725.40709  23301968.40406  23301971.12906
  19295794.36806 -24183310.10906 -18844111.66009  19295662.53406  19295664.05806
  19354114.50306 -20422629.09406 -15913726.67909  19353983.13706  19353985.40806
  19430102.83406 -25881968.82306 -20167722.77109  19429970.95606  19429972.49906
 92  8 21 23 29  0.0000000  0  6 21 26 28 17 03 23
  21812512.66606 -11645445.52906  -9074343.68109  21812380.94306  21812384.61806
  21224034.16706 -15305893.84506 -11926639.09909  21223902.62706  21223904.33406
  23278334.20306   -876573.88606   -683044.06209  23278202.24206  23278205.20606
  19292281.14806 -24201772.06206 -18858497.59209  19292149.33706  19292150.81306
  19357169.23806 -20406576.25706 -15901217.98109  19357037.90106  19357040.16106
  19422070.95706 -25924176.51506 -20200611.85609  19421939.07406  19421940.62106
 92  8 21 23 29 30.0000000  0  6 21 26 28 17 03 23
  21793544.87906 -11745121.03606  -9152012.79609  21793413.23606  21793416.85206
  21227147.08906 -15289535.67106 -11913892.47209  21227015.56406  21227017.21806
  23254584.23106  -1001381.50306   -780296.67009  23254452.04506  23254454.66506
  19288809.86606 -24220013.76106 -18872711.89809  19288678.04206  19288679.53906
  19360328.98806 -20389971.55406 -15888279.26009  19360197.66006  19360199.93806
  19414115.00706 -25965984.89806 -20233189.79109  19413983.13306  19413984.69306
 92  8 21 23 30  0.0000000  0  6 21 26 28 17 03 23
  21774616.04506 -11844592.18406  -9229522.67009  21774484.39606  21774488.08406
  21230364.43906 -15272627.93506 -11900717.61409  21230232.94606  21230234.64306
  23230846.90606  -1126121.30506   -877496.47109  23230714.87006  23230717.79506
  19285379.09306 -24238042.47206 -18886760.24209  19285247.28706  19285248.79306
  19363591.89406 -20372825.00606 -15874918.32109  19363460.53806  19363462.83206
  19406232.16006 -26007409.96406 -20265469.03709  19406100.27106  19406101.79806
 92  8 21 23 30 30.0000000  0  6 21 26 28 17 03 23
  21755726.22406 -11943858.36806  -9306872.83309  21755594.56106  21755598.13206
  21233684.17806 -15255183.11706 -11887124.25309  21233552.66106  21233554.32306
  23207117.82006  -1250819.35306   -974663.70809  23206985.62606  23206988.26506
  19281983.75606 -24255885.29306 -18900663.73809  19281851.92906  19281853.45206
  19366955.14706 -20355151.04806 -15861146.41809  19366823.81006  19366826.08406
  19398419.94706 -26048463.26006 -20297458.59309  19398288.05906  19398289.55306
 92  8 21 23 31  0.0000000  0  6 21 26 28 17 03 23
  21736878.81306 -12042901.95706  -9384049.54809  21736747.13606  21736750.68706
  21237104.13906 -15237210.94206 -11873119.96809  21236972.55306  21236974.26606
  23183397.71606  -1375468.37406  -1071792.75409  23183265.67206  23183268.18106
  19278622.80106 -24273547.19206 -18914426.26109  19278490.99706  19278492.50506
  19370419.48706 -20336945.64106 -15846960.39609  19370288.22106  19370290.43606
  19390677.19006 -26089151.56806 -20329163.74509  19390545.30406  19390546.84006
 92  8 21 23 31 30.0000000  0  6 21 26 28 17 03 23
  21718076.33006 -12141709.45706  -9461042.30009  21717944.58506  21717948.07206
  21240622.21406 -15218722.99406 -11858713.78009  21240490.73206  21240492.39906
  23159689.88506  -1500052.99006  -1168871.60409  23159557.75906  23159560.65906
  19275298.91906 -24291014.33506 -18928037.02609  19275167.11706  19275168.63906
  19373986.76406 -20318199.65406 -15832353.13909  19373855.43306  19373857.71606
  19383004.94106 -26129469.55006 -20360580.33109  19382873.00106  19382874.51906
 92  8 21 23 32  0.0000000  0  6 21 26 28 17 03 23
  21699320.06806 -12240273.86006  -9537845.63009  21699188.40606  21699191.88006
  21244239.63506 -15199713.89906 -11843901.50309  21244108.09806  21244109.75306
  23135999.25306  -1624547.89706  -1265880.55509  23135867.12306  23135869.78406
  19272014.71806 -24308272.62006 -18941485.04509  19271882.90506  19271884.43206
  19377658.52506 -20298904.36306 -15817317.85509  19377527.22906  19377529.48206
  19375404.77906 -26169408.49006 -20391701.55809  19375272.88406  19375274.37006
 92  8 21 23 32 30.0000000  0  6 17 03 28 21 26 23
  19268769.51506 -24325326.24306 -18954773.58709  19268637.72306  19268639.26606
  19381434.46006 -20279061.90106 -15801856.20909  19381303.11506  19381305.38706
  23112325.87506  -1748951.06706  -1362818.02209  23112193.79506  23112196.65706
  21680609.19406 -12338599.87806  -9614463.20609  21680477.45406  21680480.99306
  21247955.64106 -15180185.92006 -11828684.90209  21247824.05106  21247825.70306
  19367875.93306 -26208972.39806 -20422530.55309  19367744.06606  19367745.57806
 92  8 21 23 33  0.0000000  0  6 21 26 28 17 03 23
  21661943.08506 -12436690.33606  -9690897.23009  21661811.39506  21661814.81106
  21251767.67506 -15160153.50806 -11813075.23509  21251636.14706  21251637.82506
  23088673.42606  -1873246.27406  -1459671.35409  23088541.45706  23088543.95706
  19265563.07406 -24342176.35806 -18967903.54909  19265431.23906  19265432.81506
  19385314.43406 -20258672.66606 -15785968.50509  19385183.07206  19385185.34906
  19360416.85606 -26248170.42506 -20453074.44709  19360284.97906  19360286.46106
 92  8 21 23 33 30.0000000  0  6 21 26 28 17 03 23
  21643322.33106 -12534543.13006  -9767146.06209  21643190.56806  21643193.97906
  21255676.86606 -15139610.69206 -11797067.85709  21255545.37006  21255547.02006
  23065045.71006  -1997410.22006  -1556422.42109  23064913.55306  23064916.46206
  19262398.50206 -24358806.11606 -18980861.80009  19262266.70106  19262268.23206
  19389298.71606 -20237735.11506 -15769653.54009  19389167.36006  19389169.61106
  19353029.22206 -26286992.46406 -20483325.36409  19352897.32906  19352898.84906
 92  8 21 23 34  0.0000000  0  6 21 26 28 17 03 23
  21624746.46906 -12632158.93606  -9843210.23109  21624614.77406  21624618.20506
  21259684.90306 -15118547.92006 -11780655.31909  21259553.40706  21259555.07506
  23041443.19806  -2121442.22106  -1653070.66509  23041311.09306  23041313.75606
  19259278.35706 -24375202.59206 -18993638.27109  19259146.52406  19259148.10106
  19393388.15506 -20216245.08306 -15752908.07209  19393256.80706  19393259.05706
  19345714.83006 -26325429.83206 -20513276.53609  19345582.92506  19345584.38306
 92  8 21 23 34 30.0000000  0  6 21 26 28 17 03 23
  21606214.80706 -12729543.06906  -9919093.87709  21606083.14406  21606086.45306
  21263789.07606 -15096980.85606 -11763849.82509  21263657.56306  21263659.21506
  23017864.71506  -2245346.74906  -1749619.58809  23017732.60306  23017735.48506
  19256204.50306 -24391355.77006 -19006225.15709  19256072.65006  19256074.20506
  19397583.54706 -20194198.12106 -15735728.63009  19397452.22606  19397454.46106
  19338476.01006 -26363470.09106 -20542918.27409  19338344.11406  19338345.60706
 92  8 21 23 35  0.0000000  0  6 21 26 28 17 03 23
  21587726.09306 -12826701.79406  -9994801.87809  21587594.42706  21587597.74506
  21267986.61306 -15074922.55606 -11746661.54609  21267855.10706  21267856.75506
  22994314.05906  -2369106.36406  -1846055.57509  22994182.05706  22994184.83206
  19253181.17706 -24407243.32006 -19018605.05909  19253049.34106  19253050.88306
  19401886.49506 -20171586.12906 -15718108.90409  19401755.14506  19401757.40706
  19331317.48606 -26401087.73006 -20572230.69709  19331185.65006  19331187.10006
 92  8 21 23 35 30.0000000  0  6 21 26 28 17 03 23
  21569281.83606 -12923626.93806 -10070327.87009  21569150.07806  21569153.39906
  21272281.55806 -15052352.25806 -11729074.30809  21272150.02906  21272151.66506
  22970790.38006  -2492723.88206  -1942380.83609  22970658.33406  22970661.16706
  19250213.58806 -24422837.95806 -19030756.71609  19250081.80206  19250083.33006
  19406299.35506 -20148396.51806 -15700039.08209  19406167.97606  19406170.25206
  19324243.10306 -26438264.01406 -20601199.20609  19324111.21706  19324112.71506
 92  8 21 23 36  0.0000000  0  6 21 26 28 17 03 23
  21550884.50606 -13020305.30906 -10145661.57109  21550752.71506  21550756.00106
  21276676.33106 -15029258.33106 -11711079.05209  21276544.75206  21276546.40106
  22947296.06106  -2616186.90506  -2038585.73109  22947164.10706  22947166.69406
  19247302.82906 -24438134.27706 -19042675.91609  19247171.01406  19247172.56106
  19410825.79506 -20124609.74706 -15681503.94409  19410694.44106  19410696.74006
  19317254.93606 -26474986.78906 -20629814.33209  19317123.08806  19317124.50406
 92  8 21 23 36 30.0000000  0  6 21 26 28 17 03 23
  21532537.43306 -13116719.00706 -10220789.03509  21532405.71806  21532409.00206
  21281174.13806 -15005622.46406 -11692661.50409  21281042.50106  21281044.17706
  22923836.00506  -2739471.79806  -2134651.80909  22923703.69906  22923706.42206
  19244448.15706 -24453135.41406 -19054365.10309  19244316.36306  19244317.93606
  19415467.82806 -20100215.64406 -15662495.56309  19415336.51606  19415338.81306
  19310353.45006 -26511254.14506 -20658074.58509  19310221.56606  19310223.02406
 92  8 21 23 37  0.0000000  0  6 21 26 28 17 03 23
  21514246.26306 -13212839.23506 -10295687.82109  21514114.53006  21514117.83706
  21285779.75706 -14981419.68206 -11673802.20509  21285648.17706  21285649.90006
  22900410.35206  -2862571.94106  -2230573.92709  22900278.42006  22900281.17906
  19241647.16806 -24467854.81806 -19065834.75709  19241515.38606  19241516.90406
  19420226.39006 -20075209.51806 -15643010.28109  19420095.03006  19420097.33206
  19303537.45506 -26547072.75306 -20685985.16509  19303405.56006  19303407.01306
 92  8 21 23 37 30.0000000  0  6 21 26 28 17 03 23
  21496012.52906 -13308658.28106 -10370351.92209  21495880.73306  21495883.94606
  21290495.63506 -14956637.49706 -11654491.42309  21290364.04706  21290365.73406
  22877017.01806  -2985505.79606  -2326366.46209  22876884.93906  22876887.52506
  19238892.71506 -24482329.24006 -19077113.51509  19238760.94206  19238762.51406
  19425098.79106 -20049604.90906 -15623058.65309  19424967.44506  19424969.69206
  19296800.42606 -26582475.92906 -20713572.03309  19296668.49906  19296669.95906
 92  8 21 23 38  0.0000000  0  6 21 26 28 17 03 23
  21477835.86906 -13404176.80706 -10444781.85209  21477704.11706  21477707.35406
  21295316.76806 -14931301.63806 -11634749.20409  21295185.27906  21295187.00706
  22853654.49106  -3108275.70206  -2422031.25109  22853522.26406  22853525.05406
  19236179.76906 -24496585.74306 -19088222.47209  19236047.97306  19236049.52006
  19430082.27006 -20023416.71606 -15602652.28209  19429950.90506  19429953.12206
  19290140.54306 -26617473.66406 -20740842.97209  19290008.68306  19290010.11806
 92  8 21 23 38 30.0000000  0  6 21 26 28 17 03 23
  21459717.59606 -13499388.40006 -10518972.61909  21459585.89306  21459589.06906
  21300242.18206 -14905418.50406 -11614580.53909  21300110.64506  21300112.31006
  22830324.14006  -3230876.06406  -2517563.92809  22830192.02506  22830194.70706
  19233507.64506 -24510628.04006 -19099164.51709  19233375.82506  19233377.35506
  19435175.51506 -19996651.22906 -15581796.07109  19435044.19906  19435046.45706
  19283557.85106 -26652065.44606 -20767797.58309  19283425.95606  19283427.41006
 92  8 21 23 39  0.0000000  0  6 21 26 28 17 03 23
  21441659.55006 -13594283.85706 -10592917.04609  21441527.82806  21441530.98906
  21305271.03506 -14878991.42806 -11593988.02609  21305139.46806  21305141.13406
  22807027.62706  -3353299.77906  -2612958.95809  22806895.61706  22806898.23106
  19230879.48906 -24524439.26406 -19109926.50609  19230747.66906  19230749.21706
  19440380.45806 -19969299.27106 -15560482.87509  19440249.10006  19440251.38706
  19277054.44606 -26686241.03106 -20794427.88509  19276922.58206  19276924.00906
 92  8 21 23 39 30.0000000  0  6 21 26 28 17 03 23
  21423661.76406 -13688862.59306 -10666614.68209  21423530.00406  21423533.16306
  21310406.24606 -14852005.79506 -11572960.27309  21310274.69106  21310276.33206
  22783769.02206  -3475525.69906  -2708199.86909  22783636.95706  22783639.36206
  19228303.67706 -24537975.37706 -19120474.12309  19228171.80506  19228173.37906
  19445700.47306 -19941342.12506 -15538698.10309  19445569.19606  19445571.47706
  19270633.85606 -26719981.64306 -20820719.24909  19270501.98806  19270503.41606
 92  8 21 23 40  0.0000000  0  6 21 28 26 17 03 23
  21405722.62906 -13783132.81606 -10740071.92009  21405590.93906  21405593.99406
  22760551.17706  -3597535.24806  -2803272.16209  22760419.06206  22760421.64606
  21315647.35906 -14824464.49506 -11551499.53409  21315515.72906  21315517.37006
  19225784.94706 -24551210.78106 -19130787.42309  19225653.16106  19225654.71206
  19451138.19806 -19912767.34806 -15516432.05909  19451006.81206  19451009.10506
  19264299.68006 -26753267.91006 -20846656.57509  19264167.78906  19264169.23306
 92  8 21 23 40 30.0000000  0  6 21 28 26 17 03 23
  21387837.53906 -13877119.37206 -10813308.12209  21387705.83306  21387708.89506
  22737373.28106  -3719333.14706  -2898179.55109  22737241.45906  22737243.98006
  21320995.85306 -14796357.59806 -11529598.07209  21320864.33006  21320866.00606
  19223323.64606 -24564144.97606 -19140866.01409  19223191.86006  19223193.43606
  19456692.51206 -19883579.23606 -15493688.09509  19456561.13506  19456563.38806
  19258048.63706 -26786117.51906 -20872253.65109  19257916.74606  19257918.15306
 92  8 21 23 41  0.0000000  0  6 21 28 26 17 03 23
  21370000.54306 -13970852.86806 -10886347.13409  21369868.86106  21369871.95006
  22714229.08706  -3840958.66306  -2992952.61809  22714097.11306  22714099.64406
  21326451.04306 -14767690.01606 -11507259.71509  21326319.44706  21326321.14806
  19220919.48406 -24576778.87406 -19150710.61009  19220787.72206  19220789.26806
  19462360.84506 -19853791.93906 -15470477.23409  19462229.51206  19462231.78906
  19251877.04506 -26818549.25006 -20897525.10909  19251745.18206  19251746.56206
 92  8 21 23 41 30.0000000  0  6 21 28 26 17 03 23
  21352206.91106 -14064358.69106 -10959208.74009  21352075.19006  21352078.23206
  22691116.58806  -3962415.69906  -3087594.39909  22690984.52206  22690987.11706
  21332008.03706 -14738488.27506 -11484505.12709  21331876.56906  21331878.21506
  19218569.37306 -24589128.93206 -19160334.03409  19218437.59806  19218439.12706
  19468140.03606 -19823421.94006 -15446812.32109  19468008.73306  19468011.01006
  19245784.11406 -26850568.16406 -20922474.89309  19245652.20506  19245653.59106
 92  8 21 23 42  0.0000000  0  6 21 28 26 17 03 23
  21334455.82106 -14157641.41106 -11031896.50009  21334324.14306  21334327.19706
  22668037.16206  -4083699.13206  -3182100.90609  22667905.24906  22667907.73506
  21337661.36106 -14708780.05806 -11461355.88409  21337529.85106  21337531.56006
  19216267.61606 -24601224.97106 -19169759.52109  19216135.81806  19216137.34006
  19474027.09806 -19792485.49306 -15422706.02209  19473895.76406  19473898.00306
  19239767.64606 -26882184.61106 -20947111.06709  19239635.75206  19239637.12506
 92  8 21 23 42 30.0000000  4  1
 -2304715.0000 -4722106.0000  3603850.0000                  APPROX POSITION XYZ
 92  8 21 23 42 30.0000000  0  6 21 28 26 17 03 23
  21316750.72906 -14250681.77406 -11104395.41309  21316619.07506  21316622.12106
  22644989.80106  -4204813.00606  -3276475.29009  22644857.74206  22644860.39606
  21343411.80906 -14678561.12606 -11437808.67909  21343280.30206  21343282.03206
  19214013.82806 -24613068.56706 -19178988.29409  19213882.05006  19213883.58206
  19480021.36906 -19760985.52906 -15398160.61609  19479890.04206  19479892.28706
  19233828.55106 -26913394.79906 -20971430.67609  19233696.63806  19233698.03406
 92  8 21 23 43  0.0000000  0  6 21 28 26 17 03 23
  21299096.14406 -14343457.12106 -11176687.82309  21298964.48006  21298967.45606
  22621978.78006  -4325736.96806  -3370701.69409  22621846.81106  22621849.23306
  21349258.75006 -14647835.66506 -11413866.77309  21349127.22506  21349128.99906
  19211809.85106 -24624651.07406 -19188013.62809  19211678.01206  19211679.52706
  19486124.36006 -19728914.19406 -15373169.98809  19485993.02906  19485995.31006
  19227969.71906 -26944183.02306 -20995421.48309  19227837.85806  19227839.21906
 92  8 21 23 43 30.0000000  0  6 21 28 26 17 03 23
  21281495.70906 -14435947.70206 -11248758.33809  21281364.02806  21281366.99806
  22599010.88206  -4446433.84906  -3464751.14609  22598878.88906  22598881.32106
  21355200.71206 -14616610.89206 -11389535.79609  21355069.06906  21355070.84206
  19209652.96406 -24635985.38906 -19196845.56309  19209521.16206  19209522.69006
  19492337.00006 -19696266.89206 -15347730.55509  19492205.60706  19492207.87106
  19222193.16706 -26974538.88006 -21019075.38309  19222061.26906  19222062.62706
 92  8 21 23 44  0.0000000  0  6 21 28 26 17 03 23
  21263948.78706 -14528157.14806 -11320609.79009  21263817.08606  21263820.02306
  22576082.82106  -4566921.32006  -3558637.42109  22575950.73406  22575953.27606
  21361239.85206 -14584874.44806 -11364806.11809  21361108.28606  21361110.05806
  19207542.12806 -24647077.85606 -19205489.04509  19207410.30906  19207411.82506
  19498657.91306 -19663050.23406 -15321847.46709  19498526.55006  19498528.84406
  19216495.46806 -27004480.51506 -21042406.51409  19216363.59906  19216364.92406
 92  8 21 23 44 30.0000000  0  6 21 28 26 17 03 23
  21246453.21006 -14620097.18506 -11392251.31409  21246321.44206  21246324.35306
  22553192.75006  -4687207.81206  -3652367.08809  22553060.83006  22553063.31306
  21367377.79506 -14552619.53106 -11339672.43009  21367246.22906  21367247.97906
  19205477.05806 -24657929.80406 -19213945.10709  19205345.25506  19205346.78906
  19505087.66506 -19629261.85306 -15295518.88309  19504956.28606  19504958.58806
  19210874.18706 -27034020.36306 -21065424.56509  19210742.28106  19210743.64506
 92  8 21 23 45  0.0000000  0  6 21 28 26 17 03 23
  21229005.09106 -14711787.61006 -11463698.33809  21228873.35806  21228876.25106
  22530342.51306  -4807287.92106  -3745935.94109  22530210.39506  22530212.89906
  21373611.60406 -14519860.51906 -11314145.94609  21373479.97506  21373481.72906
  19203457.57206 -24668542.49506 -19222214.73509  19203325.74406  19203327.26206
  19511625.47506 -19594905.35306 -15268747.60709  19511494.13906  19511496.45906
  19205325.30206 -27063180.02906 -21088146.37009  19205193.41606  19205194.77206
 92  8 21 23 45 30.0000000  0  6 21 28 26 17 03 23
  21211605.17406 -14803224.80206 -11534948.04009  21211473.38106  21211476.20206
  22507528.94906  -4927172.61606  -3839352.52309  22507396.95006  22507399.42006
  21379942.70606 -14486590.66806 -11288221.40309  21379811.17306  21379812.90506
  19201484.76806 -24678909.51606 -19230292.92909  19201352.95306  19201354.48906
  19518272.49406 -19559975.12706 -15241529.27009  19518141.13406  19518143.48706
  19199848.36006 -27091961.78206 -21110573.69609  19199716.45406  19199717.78406
 92  8 21 23 46  0.0000000  0  6 21 28 26 17 03 23
  21194254.43006 -14894403.36106 -11605996.21009  21194122.60706  21194125.42706
  22484749.91006  -5046877.40406  -3932628.92009  22484618.05306  22484620.46506
  21386370.49306 -14452812.31906 -11261900.62809  21386238.97706  21386240.64506
  19199560.27606 -24689022.65906 -19238173.29709  19199428.45706  19199430.00506
  19525028.62206 -19524471.41806 -15213864.06309  19524897.27606  19524899.63006
  19194440.43406 -27120380.48206 -21132718.12509  19194308.52006  19194309.82106
 92  8 21 23 46 30.0000000  0  6 21 28 26 17 03 23
  21176955.76406 -14985307.87306 -11676830.83509  21176824.04806  21176826.82506
  22462005.33806  -5166400.35806  -4025763.62909  22461873.40606  22461875.93006
  21392891.13706 -14418546.57406 -11235200.06509  21392759.51406  21392761.19906
  19197682.64206 -24698889.52106 -19245861.75809  19197550.85006  19197552.36306
  19531894.11406 -19488393.31506 -15185751.27209  19531762.74606  19531765.06106
  19189101.45906 -27148437.02306 -21154580.35109  19188969.57906  19188970.87906
 92  8 21 23 47  0.0000000  0  6 21 28 26 17 03 23
  21159715.53906 -15075906.03706 -11747426.74509  21159583.70006  21159586.50806
  22439297.52006  -5285731.17706  -4118748.62709  22439165.47906  22439167.90806
  21399505.62506 -14383787.26306 -11208114.90809  21399374.01206  21399375.77306
  19195856.56006 -24708486.11106 -19253339.61609  19195724.69806  19195726.28206
  19538871.33606 -19451727.81206 -15157180.77109  19538739.96406  19538742.29606
  19183837.06506 -27176101.12606 -21176136.78109  19183705.19506  19183706.51506
 92  8 21 23 47 30.0000000  0  6 21 28 26 17 03 23
  21142538.35906 -15166172.20406 -11817763.95309  21142406.60306  21142409.38306
  22416630.14406  -5404849.35706  -4211567.93609  22416498.14306  22416500.62406
  21406217.21806 -14348517.86406 -11180632.28009  21406085.58706  21406087.30506
  19194081.16706 -24717815.44506 -19260609.21909  19193949.37206  19193950.91906
  19545962.62706 -19414462.91006 -15128143.20909  19545831.22606  19545833.59006
  19178653.23006 -27203342.31506 -21197363.66609  19178521.34506  19178522.66306
 92  8 21 23 48  0.0000000  0  6 21 28 26 17 03 23
  21125422.20706 -15256117.81206 -11887851.37509  21125290.46706  21125293.21006
  22394004.79006  -5523745.58806  -4304214.29309  22393872.79506  22393875.09906
  21413024.06606 -14312746.77906 -11152758.72709  21412892.58306  21412894.22406
  19192355.57306 -24726883.42206 -19267675.16809  19192223.76106  19192225.29306
  19553166.49306 -19376606.14306 -15098644.44909  19553035.13206  19553037.50006
  19173549.13806 -27230164.52706 -21218264.07609  19173417.22406  19173418.57106
 92  8 21 23 48 30.0000000  0  6 21 28 26 17 03 23
  21108361.31206 -15345772.90906 -11957712.42409  21108229.59706  21108232.38306
  22371422.31706  -5642416.81806  -4396685.32509  22371290.42506  22371292.73106
  21419928.73006 -14276463.69206 -11124486.21109  21419797.16206  21419798.78206
  19190681.09206 -24735683.12706 -19274532.07309  19190549.27306  19190550.83306
  19560481.34306 -19338166.46706 -15068691.47409  19560349.99706  19560352.33806
  19168525.63706 -27256563.62506 -21238834.78509  19168393.72706  19168395.05106
 92  8 21 23 49  0.0000000  0  6 21 28 26 17 03 23
  21091353.79006 -15435148.00306 -12027355.28709  21091222.01406  21091224.79906
  22348883.68106  -5760857.06306  -4488976.36709  22348751.62906  22348754.06106
  21426933.16606 -14239654.98606 -11095804.12009  21426801.56106  21426803.27806
  19189060.27406 -24744200.36006 -19281168.87109  19188928.46606  19188929.96806
  19567906.46406 -19299147.36606 -15038287.00109  19567775.07506  19567777.41406
  19163582.56306 -27282539.38606 -21259075.62109  19163450.66506  19163452.02706
 92  8 21 23 49 30.0000000  0  6 21 28 26 17 03 23
  21074399.72006 -15524241.51206 -12096778.73309  21074267.99406  21074270.77006
  22326390.30106  -5879060.62406  -4581082.97809  22326258.35106  22326260.70006
  21434038.96306 -14202313.75206 -11066707.07609  21433907.41806  21433909.10306
  19187493.64706 -24752432.99506 -19287583.90709  19187361.85306  19187363.38506
  19575442.31306 -19259546.30906 -15007429.05409  19575310.92306  19575313.26506
  19158719.30506 -27308095.48706 -21278989.44809  19158587.41306  19158588.70006
 92  8 21 23 50  0.0000000  0  6 21 28 26 17 03 23
  21057499.74006 -15613051.24306 -12165981.05509  21057368.02806  21057370.79206
  22303941.76306  -5997028.28206  -4673005.76809  22303809.76206  22303812.24606
  21441247.59406 -14164432.74706 -11037189.43209  21441115.96206  21441117.62506
  19185987.31606 -24760348.70306 -19293751.99309  19185855.52906  19185857.07206
  19583090.50406 -19219354.90906 -14976111.10209  19582959.11606  19582961.44606
  19153936.01406 -27333231.83206 -21298576.19309  19153804.14506  19153805.41906
 92  8 21 23 50 30.0000000  0  6 21 28 26 17 03 23
  21040655.62906 -15701567.39306 -12234954.61409  21040523.88706  21040526.70906
  22281538.41106  -6114758.94006  -4764743.88709  22281406.45506  22281408.90006
  21448556.38106 -14126024.02006 -11007260.57609  21448424.80406  21448426.51306
  19184540.31506 -24767952.74906 -19299677.22709  19184408.53206  19184410.04706
  19590850.01706 -19178578.03506 -14944336.93309  19590718.71406  19590721.09506
  19149232.36606 -27357949.23606 -21317836.49009  19149100.49906  19149101.77406
 92  8 21 23 51  0.0000000  0  6 21 28 26 17 03 23
  21023871.25206 -15789769.48406 -12303683.45509  21023739.53606  21023742.28606
  22259181.18106  -6232246.82106  -4856292.82609  22259049.15506  22259051.52906
  21455961.12806 -14087111.80806 -10976939.39309  21455829.59306  21455831.36806
  19183150.16006 -24775258.39506 -19305369.94509  19183018.35706  19183019.88306
  19598721.31906 -19137214.19406 -14912105.38709  19598590.00206  19598592.39106
  19144607.58206 -27382253.12006 -21336774.56509  19144475.67906  19144476.96106
 92  8 21 23 51 30.0000000  0  6 21 28 26 17 03 23
  21007144.46906 -15877669.38406 -12372176.82609  21007012.72906  21007015.47506
  22236871.61606  -6349484.33106  -4947646.67109  22236739.64806  22236742.01106
  21463457.48306 -14047718.75806 -10946243.53209  21463325.96406  21463327.74906
  19181814.03606 -24782279.67206 -19310841.08009  19181682.22306  19181683.73806
  19606703.45806 -19095267.75706 -14879419.87109  19606572.13506  19606574.54606
  19140060.15006 -27406149.86706 -21355395.39009  19139928.25506  19139929.55406
 92  8 21 23 52  0.0000000  0  6 26 28 17 03 21 23
  21471043.46706 -14007853.97806 -10915180.08609  21470912.01806  21470913.75606
  22214612.19806  -6466457.82306  -5038794.79109  22214480.20106  22214482.59106
  19180529.35006 -24789030.88206 -19316101.77409  19180397.51806  19180399.06606
  19614795.73806 -19052742.74106 -14846283.51709  19614664.35006  19614666.79806
  20990472.67806 -15965279.71706 -12440444.56109  20990340.97106  20990343.76306
  19135586.75506 -27429657.50606 -21373713.02009  19135454.85406  19135456.12206
 92  8 21 23 52 30.0000000  0  6 26 28 17 03 21 23
  21478718.88006 -13967519.05506 -10883750.29409  21478587.36806  21478589.17006
  22192404.14706  -6583162.27806  -5129733.27009  22192272.11706  22192274.45806
  19179293.20606 -24795526.97406 -19321163.67209  19179161.38406  19179162.89606
  19622998.59506 -19009636.36906 -14812694.16009  19622867.27306  19622869.71506
  20973857.56806 -16052592.55306 -12508480.48109  20973725.85106  20973728.57306
  19131186.09306 -27452782.74706 -21391732.67809  19131054.19006  19131055.49306
 92  8 21 23 53  0.0000000  0  6 28 26 17 03 21 23
  22170246.16506  -6699602.25306  -5220465.66509  22170114.25506  22170116.53506
  21486484.79906 -13926709.00606 -10851950.27509  21486353.23806  21486355.03406
  19178103.89506 -24801776.67606 -19326033.57809  19177972.10706  19177973.65406
  19631311.38006 -18965952.33506 -14778654.67409  19631180.08506  19631182.53006
  20957295.33706 -16139627.10906 -12576299.55709  20957163.67906  20957166.45206
  19126855.66406 -27475539.25206 -21409465.00809  19126723.79306  19126725.10306
 92  8 21 23 53 30.0000000  0  6 28 26 17 03 21 23
  22148139.66006  -6815774.83506  -5310989.70709  22148007.42906  22148009.75906
  21494344.47506 -13885406.12706 -10819766.23209  21494212.93806  21494214.76406
  19176964.02006 -24807766.79006 -19330701.20709  19176832.23806  19176833.73706
  19639735.45406 -18921683.56106 -14744159.54809  19639604.14306  19639606.57006
  20940785.99906 -16226384.09906 -12643902.34809  20940654.30806  20940656.98106
  19122596.86506 -27497919.85806 -21426904.43109  19122464.96206  19122466.26606
 92  8 21 23 54  0.0000000  0  6 28 26 17 03 21 23
  22126081.69306  -6931688.59706  -5401312.06709  22125949.69706  22125951.85706
  21502300.94506 -13843595.17806 -10787186.29709  21502169.34606  21502171.24206
  19175875.93406 -24813484.71306 -19335156.73609  19175744.11906  19175745.63706
  19648271.47606 -18876826.83706 -14709206.28609  19648140.11006  19648142.59206
  20924332.79806 -16312845.84006 -12711275.07409  20924201.12406  20924203.79006
  19118409.39806 -27519925.28006 -21444051.50109  19118277.48406  19118278.79006
 92  8 21 23 54 30.0000000  0  6 28 26 17 03 21 23
  22104073.26106  -7047343.55806  -5491432.77609  22103941.24606  22103943.55306
  21510355.94206 -13801266.01706 -10754202.55609  21510224.37106  21510226.16806
  19174842.81106 -24818913.74806 -19339387.15509  19174711.03506  19174712.51506
  19656919.86006 -18831379.29006 -14673792.63909  19656788.51906  19656790.95906
  20907937.08806 -16399005.93506 -12778412.75009  20907805.38406  20907808.03206
  19114297.40906 -27541533.56006 -21460889.10909  19114165.50206  19114166.81106
 92  8 21 23 55  0.0000000  0  6 28 26 17 03 21 23
  22082116.08106  -7162729.18506  -5581343.60809  22081984.07306  22081986.07906
  21518508.54906 -13758423.77706 -10720819.01609  21518377.00606  21518378.85006
  19173867.71706 -24824037.68506 -19343379.83209  19173735.92206  19173737.39906
  19665679.94306 -18785345.03506 -14637921.81609  19665548.59006  19665551.02506
  20891597.74006 -16484869.82106 -12845319.61409  20891465.97906  20891468.59706
  19110262.62506 -27562736.57606 -21477410.92909  19110130.76606  19110132.03506
 92  8 21 23 55 30.0000000  0  6 28 26 17 03 21 23
  22060206.77106  -7277862.87006  -5671058.12609  22060074.74006  22060076.90606
  21526755.69706 -13715084.95606 -10687048.52809  21526624.13806  21526625.97406
  19172950.40906 -24828857.92806 -19347135.86209  19172818.64506  19172820.14206
  19674549.33706 -18738736.12306 -14601603.21209  19674417.96406  19674420.48606
  20875314.33706 -16570439.17506 -12911996.97409  20875182.57206  20875185.20006
  19106304.66206 -27583535.64306 -21493617.98809  19106172.75206  19106174.05806
 92  8 21 23 56  0.0000000  0  6 28 26 17 03 21 23
  22038342.52306  -7392760.99906  -5760589.09109  22038210.52206  22038212.59106
  21535091.50906 -13671280.03206 -10652914.84109  21534959.95106  21534961.77006
  19172083.69806 -24833413.01406 -19350685.27609  19171951.89606  19171953.42306
  19683522.56506 -18691581.34606 -14564859.25909  19683391.25606  19683393.74006
  20859082.24306 -16655739.01606 -12978464.32509  20858950.60106  20858953.22206
  19102419.76906 -27603950.96906 -21509526.02609  19102287.90206  19102289.18506
 92  8 21 23 56 30.0000000  0  6 28 26 17 03 21 23
  22016523.36806  -7507420.08106  -5849933.78309  22016391.39306  22016393.57106
  21543513.20406 -13627023.07906 -10618428.92509  21543381.70206  21543383.58506
  19171264.64406 -24837717.11706 -19354039.11709  19171132.82106  19171134.36306
  19692598.08606 -18643889.32006 -14527696.67009  19692466.73406  19692469.26606
  20842899.30206 -16740780.96506 -13044730.72309  20842767.57506  20842770.15206
  19098608.87006 -27623977.35406 -21525130.99709  19098476.97506  19098478.24506
 92  8 21 23 57  0.0000000  0  6 28 26 17 03 21 23
  21994751.11306  -7621834.59506  -5939087.89909  21994618.98806  21994621.10106
  21552018.08306 -13582330.56006 -10583603.61209  21551886.46706  21551888.30906
  19170492.44506 -24841774.95906 -19357201.07009  19170360.65806  19170362.18706
  19701774.76506 -18595665.76806 -14490119.90409  19701643.40706  19701645.89606
  20826765.01706 -16825566.85906 -13110797.60109  20826633.31006  20826635.90806
  19094870.81206 -27643621.29306 -21540437.95709  19094738.90206  19094740.17106
 92  8 21 23 57 30.0000000  0  6 28 26 17 03 21 23
  21973023.57906  -7736013.31906  -6028058.28209  21972891.53606  21972893.54106
  21560604.26606 -13537209.99606 -10548444.75709  21560472.76306  21560474.57806
  19169763.03306 -24845608.27506 -19360188.06809  19169631.23206  19169632.74406
  19711051.74306 -18546914.91606 -14452132.25609  19710920.41006  19710922.93206
  20810679.77506 -16910095.37306 -13176663.92509  20810548.08506  20810550.65606
  19091203.45406 -27662892.87506 -21555454.76809  19091071.57106  19091072.83406
 92  8 21 23 58  0.0000000  0  6 28 26 17 03 21 23
  21951343.75106  -7849941.64106  -6116833.55109  21951211.78606  21951213.89106
  21569270.55906 -13491668.24406 -10512957.70809  21569139.11906  21569140.92106
  19169074.24306 -24849227.65006 -19363008.35909  19168942.45906  19168943.98206
  19720428.45306 -18497640.26606 -14413736.45009  19720297.09506  19720299.58206
  20794643.12906 -16994368.30906 -13242331.09909  20794511.41406  20794513.95806
  19087604.10706 -27681807.65706 -21570193.55209  19087472.19306  19087473.45406
 92  8 21 23 58 30.0000000  0  6 28 26 17 03 21 23
  21929712.02306  -7963616.74306  -6205411.50609  21929579.92706  21929582.01206
  21578016.75406 -13445706.93306 -10477143.72509  21577885.19306  21577886.98406
  19168430.14606 -24852612.51906 -19365645.92009  19168298.35106  19168299.87906
  19729905.86906 -18447836.14106 -14374928.06409  19729774.52706  19729777.00806
  20778656.17806 -17078380.17206 -13307794.84309  20778524.46706  20778526.99706
  19084071.70806 -27700370.70806 -21584658.26009  19083939.80306  19083941.05806
 92  8 21 23 59  0.0000000  0  6 28 26 17 03 21 23
  21908130.54106  -8077026.93606  -6293783.03609  21907998.55406  21908000.66406
  21586846.23506 -13399308.24206 -10440988.92609  21586714.59806  21586716.47706
  19167835.72706 -24855736.00206 -19368079.80409  19167703.93406  19167705.46906
  19739487.25106 -18397485.64206 -14335693.93609  19739355.90606  19739358.40906
  20762723.26706 -17162108.13106 -13373037.36209  20762591.52806  20762594.06906
  19080605.51106 -27718585.56706 -21598851.65009  19080473.60506  19080474.88006
 92  8 21 23 59 30.0000000  0  6 28 26 17 03 21 23
  21886599.89006  -8190170.04506  -6381946.45109  21886467.92906  21886470.00606
  21595762.74206 -13352451.33906 -10404477.08109  21595631.08806  21595633.02806
  19167291.48406 -24858596.08206 -19370308.43909  19167159.68006  19167161.19906
  19749174.59406 -18346578.32406 -14296025.92309  19749043.26706  19749045.82506
  20746845.79906 -17245544.41706 -13438052.60709  20746714.11306  20746716.61706
  19077204.98106 -27736455.32806 -21612776.13509  19077073.09006  19077074.33206
 92  8 22  0  0  0.0000000  0  6 28 26 17 03 21 23
  21865124.10106  -8303026.49606  -6469886.49209  21864992.11406  21864994.17006
  21604769.96006 -13305117.30406 -10367593.44609  21604638.38206  21604640.26806
  19166802.53906 -24861165.68206 -19372310.72609  19166670.74206  19166672.26206
  19758969.95706 -18295103.44106 -14255915.65609  19758838.66306  19758841.21206
  20731023.91806 -17328688.99706 -13502840.54409  20730892.18006  20730894.66106
  19073873.05306 -27753964.62206 -21626419.73409  19073741.17906  19073742.40706
 92  8 22  0  0 30.0000000  0  6 28 26 17 03 21 23
  21843701.22606  -8415603.86406  -6557609.07209  21843569.18106  21843571.26706
  21613869.33406 -13257300.41906 -10330333.56509  21613737.73906  21613739.63806
  19166370.64806 -24863435.07806 -19374079.08809  19166238.84206  19166240.40406
  19768873.90106 -18243057.96506 -14215360.77409  19768742.59106  19768745.06706
  20715257.96706 -17411539.15806 -13567399.06509  20715126.25906  20715128.79206
  19070611.02506 -27771106.96006 -21639777.39509  19070479.12806  19070480.36206
 92  8 22  0  1  0.0000000  0  6 28 26 17 03 21 23
  21822331.44706  -8527902.98606  -6645114.83209  21822199.47506  21822201.49906
  21623059.31506 -13209006.49306 -10292701.96409  21622927.71706  21622929.56306
  19165991.51106 -24865427.34306 -19375631.50509  19165859.75306  19165861.30106
  19778884.09806 -18190454.38406 -14174371.01209  19778752.75206  19778755.23906
  20699546.09706 -17494105.43606 -13631736.37909  20699414.33406  20699416.92806
  19067417.65806 -27787888.15906 -21652853.65009  19067285.77306  19067287.03206
 92  8 22  0  1 30.0000000  0  6 28 26 17 03 21 23
  21801013.20206  -8639931.35106  -6732409.61909  21800881.22106  21800883.32206
  21632337.18406 -13160251.41406 -10254711.02309  21632205.72706  21632207.51606
  19165660.15806 -24867168.69706 -19376988.40809  19165528.34806  19165529.88006
  19788996.79406 -18137311.68106 -14132961.15309  19788865.51806  19788868.00906
  20683882.55106 -17576417.53606 -13695875.63009  20683750.82006  20683753.34306
  19064293.05706 -27804307.66906 -21665648.06709  19064161.17706  19064162.44206
 92  8 22  0  2  0.0000000  0  6 28 26 17 03 21 23
  21779743.64306  -8751704.22006  -6819505.31609  21779611.61006  21779613.69206
  21641695.59406 -13111072.67406 -10216389.95909  21641564.10206  21641566.03906
  19165373.68506 -24868674.15206 -19378161.49309  19165241.88706  19165243.44006
  19799208.16006 -18083651.18306 -14091147.81309  19799076.79106  19799079.27206
  20668266.78106 -17658478.70106 -13759819.34809  20668135.04706  20668137.61306
  19061234.92006 -27820378.48006 -21678170.77009  19061103.03206  19061104.28606
 92  8 22  0  2 30.0000000  0  6 28 26 17 03 21 23
  21758522.87806  -8863219.42006  -6906400.22709  21758390.86406  21758392.95506
  21651130.01806 -13061493.36906 -10177756.76909  21650998.66806  21651000.60806
  19165130.84306 -24869950.46906 -19379156.03109  19164999.05306  19165000.59006
  19809516.68206 -18029479.47906 -14048936.12509  19809385.33406  19809387.82606
  20652701.95906 -17740272.34506 -13823554.60609  20652570.26406  20652572.77806
  19058242.13706 -27836105.86906 -21690425.87209  19058110.24606  19058111.47506
 92  8 22  0  3  0.0000000  0  6 28 26 17 03 21 23
  21737354.35906  -8974459.94506  -6993081.10309  21737222.44506  21737224.46906
  21660642.26106 -13011507.46206 -10138806.74009  21660510.67306  21660512.44506
  19164933.41606 -24870988.02806 -19379964.52209  19164801.60806  19164803.17406
  19819923.29806 -17974792.13306 -14006322.63909  19819792.00506  19819794.53806
  20637190.55506 -17821785.09106 -13887070.98309  20637058.85806  20637061.33406
  19055316.20506 -27851481.61306 -21702406.96309  19055184.32006  19055185.54106
 92  8 22  0  3 30.0000000  0  6 28 26 17 03 21 23
  21716241.04506  -9085411.60606  -7079536.89209  21716109.01306  21716111.12606
  21670231.27906 -12961116.21806 -10099540.86709  21670099.79906  21670101.83406
  19164785.72806 -24871763.90806 -19380569.10809  19164653.94606  19164655.52506
  19830431.29906 -17919572.29306 -13963294.22109  19830299.99206  19830302.54706
  20621736.87306 -17902994.52306 -13950351.00909  20621605.19506  20621607.60506
  19052459.64006 -27866492.67406 -21714103.88709  19052327.74706  19052328.98606
 92  8 22  0  4  0.0000000  0  6 28 26 17 03 21 23
  21695185.69006  -9196057.53906  -7165754.45309  21695053.66506  21695055.71806
  21679897.71106 -12910319.39406 -10059958.95809  21679766.07306  21679768.12306
  19164691.95406 -24872257.08206 -19380953.40109  19164560.16906  19164561.71406
  19841042.98606 -17863807.63406 -13919841.27209  19840911.71906  19840914.23306
  20606344.94906 -17983879.56606 -14013378.26509  20606213.24806  20606215.73306
  19049673.52206 -27881133.51706 -21725512.32909  19049541.63606  19049542.89406
 92  8 22  0  4 30.0000000  0  6 28 26 17 03 21 23
  21674193.10706  -9306374.49306  -7251715.66709  21674061.12306  21674063.13006
  21689646.19206 -12859090.54806 -10020040.40509  21689514.73106  21689516.72006
  19164654.18206 -24872454.46306 -19381107.20909  19164522.52806  19164524.02006
  19851760.41406 -17807487.24006 -13875955.28009  19851629.12206  19851631.65106
  20591012.09606 -18064454.08306 -14076163.55409  20590880.37706  20590882.83806
  19046959.67606 -27895395.09706 -21736625.23809  19046827.79506  19046829.01406
 92  8 22  0  5  0.0000000  0  6 28 26 17 03 21 23
  21653263.13606  -9416362.81306  -7337420.80509  21653130.98406  21653133.04306
  21699479.29706 -12807417.45306  -9979775.68509  21699347.86406  21699349.88806
  19164671.83106 -24872362.22006 -19381035.33609  19164539.98406  19164541.49206
  19862583.34706 -17750612.94906 -13831637.68409  19862451.96106  19862454.52406
  20575734.64506 -18144737.50306 -14138722.01209  20575602.92006  20575605.34306
  19044316.46306 -27909285.45406 -21747448.88509  19044184.54606  19044185.79506
 92  8 22  0  5 30.0000000  0  6 28 26 17 03 21 23
  21632396.74006  -9526016.02606  -7422864.82709  21632264.71406  21632266.72006
  21709396.27506 -12755304.01606  -9939167.84409  21709264.71106  21709266.71406
  19164745.41706 -24871975.54506 -19380734.03509  19164613.65006  19164615.15806
  19873511.99806 -17693182.39406 -13786886.63609  19873380.72006  19873383.29506
  20560511.41606 -18224735.83806 -14201058.32609  20560379.70906  20560382.07706
  19041744.44806 -27922801.37606 -21757980.76509  19041612.60206  19041613.81706
 92  8 22  0  6  0.0000000  0  6 28 26 17 03 21 23
  21611592.96006  -9635340.19506  -7508052.45109  21611461.02306  21611462.96906
  21719399.53106 -12702735.17206  -9898205.13909  21719268.11806  21719270.14906
  19164874.54706 -24871296.63206 -19380205.01509  19164742.78506  19164744.28706
  19884544.66706 -17635205.63806 -13741709.97509  19884413.33006  19884415.85806
  20545339.82906 -18304462.91306 -14263183.27109  20545208.09406  20545210.42906
  19039240.18606 -27935961.03606 -21768235.04009  19039108.29206  19039109.53406
 92  8 22  0  6 30.0000000  0  6 28 26 17 03 21 23
  21590849.91906  -9744345.45706  -7592991.57709  21590717.84406  21590719.81006
  21729491.87406 -12649700.98606  -9856879.82909  21729360.28806  21729362.36706
  19165056.67906 -24870339.61606 -19379459.29009  19164924.91706  19164926.43506
  19895680.81706 -17576684.93806 -13696109.45909  19895549.50006  19895552.02306
  20530219.72206 -18383919.69706 -14325097.60109  20530087.99206  20530090.29406
  19036801.83206 -27948774.66306 -21778219.67909  19036669.95306  19036671.19006
 92  8 22  0  7  0.0000000  0  6 28 26 17 03 21 23
  21570163.07706  -9853055.23206  -7677700.45609  21570031.05906  21570032.99706
  21739668.28006 -12596223.89806  -9815209.40409  21739536.76206  21739538.76106
  19165291.19506 -24869107.95306 -19378499.55409  19165159.39006  19165160.90106
  19906918.33006 -17517631.64406 -13650093.93809  19906786.97706  19906789.52606
  20515151.47806 -18463103.25306 -14386799.02609  20515019.76506  20515022.07006
  19034427.79806 -27961250.62806 -21787941.20409  19034295.93906  19034297.16206
 92  8 22  0  7 30.0000000  0  6 28 26 17 03 21 23
  21549531.66506  -9961473.94406  -7762182.53209  21549399.57006  21549401.53506
  21749926.43506 -12542317.38806  -9773204.36509  21749794.95706  21749796.93606
  19165577.36006 -24867604.58806 -19377328.10209  19165445.55706  19165447.03406
  19918255.48006 -17458054.76606 -13603670.43609  19918124.11206  19918126.68206
  20500134.15706 -18542019.87706 -14448292.45409  20500002.44306  20500004.76006
  19032116.91406 -27973394.03206 -21797403.59309  19031985.04606  19031986.28106
 92  8 22  0  8  0.0000000  0  6 28 26 17 03 21 23
  21528954.98806 -10069605.01306  -7846440.47009  21528823.00406  21528824.93706
  21760266.90906 -12487977.03306  -9730861.26909  21760135.48506  21760137.39506
  19165914.64606 -24865831.74006 -19375946.66309  19165782.82606  19165784.31606
  19929693.09506 -17397949.60006 -13556835.27909  19929561.75406  19929564.40406
  20485169.06906 -18620661.74406 -14509571.78809  20485037.35406  20485039.67306
  19029871.34106 -27985194.21106 -21806598.53609  19029739.51106  19029740.77506
 92  8 22  0  8 30.0000000  0  6 28 26 17 03 21 23
  21508435.39906 -10177435.64306  -7930464.30309  21508303.39906  21508305.40406
  21770686.46506 -12433223.53906  -9688196.24209  21770554.80206  21770556.87306
  19166301.74806 -24863797.77806 -19374361.75909  19166169.93006  19166171.38006
  19941230.51806 -17337320.27106 -13509591.68309  19941099.16406  19941101.80506
  20470256.32806 -18699028.54806 -14570636.79109  20470124.64806  20470126.92506
  19027693.29206 -27996640.17106 -21815517.46209  19027561.42006  19027562.66206
 92  8 22  0  9  0.0000000  0  6 28 26 17 03 21 23
  21487975.46606 -10284952.79806  -8014243.87009  21487843.39406  21487845.40106
  21781180.77106 -12378074.71906  -9645223.17709  21781049.32706  21781051.41806
  19166741.09006 -24861489.07706 -19372562.77509  19166609.24606  19166610.70106
  19952866.44406 -17276173.10306 -13461944.57909  19952735.11106  19952737.72106
  20455396.67106 -18777116.59006 -14631484.57809  20455264.95506  20455267.29406
  19025584.48206 -28007722.00906 -21824152.65609  19025452.59906  19025453.86506
 92  8 22  0  9 30.0000000  0  6 28 26 17 03 21 23
  21467577.68506 -10392144.56706  -8097769.89009  21467445.69106  21467447.61006
  21791748.96706 -12322538.36706  -9601948.13909  21791617.58606  21791619.44506
  19167228.89706 -24858925.50506 -19370565.19109  19167097.12606  19167098.56306
  19964600.30106 -17214511.65606 -13413896.73809  19964468.88806  19964471.60206
  20440590.90206 -18854921.38706 -14692111.65309  20440459.18006  20440461.44106
  19023543.42706 -28018447.63606 -21832510.28409  19023411.54406  19023412.81006
 92  8 22  0 10  0.0000000  0  6 28 26 17 03 21 23
  21447245.66006 -10498989.86006  -8181025.92709  21447113.65506  21447115.53306
  21802391.71406 -12266611.16906  -9558368.53909  21802260.16506  21802262.18106
  19167765.19906 -24856107.13006 -19368369.05809  19167633.38306  19167634.85706
  19976433.45206 -17152328.07706 -13365442.03709  19976302.09006  19976304.71806
  20425842.38706 -18932425.40006 -14752504.35309  20425710.64006  20425712.95506
  19021570.23906 -28028816.99006 -21840590.29809  19021438.39606  19021439.62106
 92  8 22  0 10 30.0000000  0  6 28 26 17 03 21 23
  21426985.49606 -10605456.91706  -8263987.23309  21426853.56906  21426855.54906
  21813110.97606 -12210280.04306  -9514474.19609  21812979.59006  21812981.74306
  19168354.92406 -24853008.10606 -19365954.23809  19168223.11406  19168224.62206
  19988369.09006 -17089605.86606 -13316567.62109  19988237.75706  19988240.38906
  20411154.53106 -19009609.97806 -14812648.14309  20411022.79206  20411025.09706
  19019666.43606 -28038821.49306 -21848386.01209  19019534.58806  19019535.86706
 92  8 22  0 11  0.0000000  0  6 28 26 17 03 21 23
  21406798.25106 -10711542.33206  -8346651.15709  21406666.28806  21406668.22006
  21823909.22106 -12153536.41306  -9470258.41809  21823777.64906  21823779.72306
  19169000.71406 -24849614.71706 -19363310.04509  19168868.89706  19168870.36806
  20000409.05906 -17026335.21606 -13267265.84309  20000277.76106  20000280.45406
  20396527.59906 -19086474.61706 -14872542.63109  20396395.91006  20396398.21906
  19017833.68806 -28048452.63006 -21855890.79109  19017701.82006  19017703.08906
 92  8 22  0 11 30.0000000  0  6 28 26 17 03 21 23
  21386682.57106 -10817250.34306  -8429020.99709  21386550.58806  21386552.56606
  21834786.23206 -12096377.21806  -9425718.82309  21834654.67906  21834656.78406
  19169701.08206 -24845934.16006 -19360442.08609  19169569.24806  19169570.71806
  20012552.60906 -16962520.78706 -13217540.35109  20012421.27306  20012423.94706
  20381957.48606 -19163041.09106 -14932204.78409  20381825.78806  20381828.03606
  19016068.60906 -28057727.75006 -21863118.15509  19015936.73506  19015938.03606
 92  8 22  0 12  0.0000000  0  6 28 26 17 03 21 23
  21366634.69606 -10922601.54106  -8511112.80209  21366502.80406  21366504.75506
  21845741.95506 -12038805.28006  -9380857.60909  21845610.36606  21845612.44106
  19170458.97806 -24841951.41906 -19357338.66209  19170327.17406  19170328.60206
  20024797.13006 -16898175.31706 -13167401.05909  20024665.83006  20024668.54706
  20367439.54506 -19239333.12106 -14991653.08409  20367307.82306  20367310.08606
  19014370.06606 -28066654.04506 -21870073.70709  19014238.21206  19014239.48006
 92  8 22  0 12 30.0000000  4  1
 -2304715.0000 -4722106.0000  3603850.0000                  APPROX POSITION XYZ
 92  8 22  0 12 30.0000000  0  6 28 26 17 03 21 23
  21346649.66806 -11027623.98706  -8592948.42909  21346517.66006  21346519.57506
  21856772.35306 -11980839.74106  -9335689.69509  21856640.77706  21856642.93406
  19171273.43306 -24837671.42306 -19354003.61109  19171141.63406  19171143.11506
  20037139.16606 -16833317.71306 -13116862.71409  20037007.87106  20037010.55006
  20352969.42206 -19315373.81006 -15050905.53309  20352837.74606  20352839.95506
  19012736.16906 -28075240.47106 -21876764.42709  19012604.29706  19012605.56706
 92  8 22  0 13  0.0000000  0  6 28 26 17 03 21 23
  21326729.12106 -11132305.74606  -8674518.58809  21326597.25906  21326599.10706
  21867877.81406 -11922480.23906  -9290214.79709  21867746.27606  21867748.40106
  19172145.49806 -24833088.54906 -19350432.55209  19172013.74306  19172015.22906
  20049578.59406 -16767948.41306 -13065925.63609  20049447.27706  20049450.00706
  20338548.64406 -19391155.36606 -15109956.06209  20338416.97906  20338419.20406
  19011164.82106 -28083497.91006 -21883198.79109  19011032.92706  19011034.18906
 92  8 22  0 13 30.0000000  0  6 28 26 17 03 21 23
  21306875.53006 -11236637.67806  -8755816.15609  21306743.52406  21306745.32106
  21879061.17106 -11863712.11906  -9244421.49609  21878929.53106  21878931.73306
  19173077.87206 -24828188.69706 -19346614.49609  19172946.11206  19172947.63506
  20062116.99406 -16702058.93406 -13014583.22609  20061985.67006  20061988.42206
  20324181.99506 -19466652.39306 -15168784.87909  20324050.31606  20324052.59206
  19009655.58306 -28091428.83006 -21889378.72709  19009523.71006  19009525.00806
 92  8 22  0 14  0.0000000  0  6 28 26 17 03 21 23
  21287090.57806 -11340608.06706  -8836832.00109  21286958.59606  21286960.36606
  21890321.29306 -11804539.05006  -9198312.65709  21890189.84906  21890192.02706
  19174071.22406 -24822968.86106 -19342547.10209  19173939.41906  19173940.94206
  20074755.25806 -16635644.55206 -12962831.81009  20074623.89906  20074626.64106
  20309874.02806 -19541841.30906 -15227373.60909  20309742.31106  20309744.58406
  19008210.87306 -28099020.87606 -21895294.60609  19008078.99106  19008080.27306
 92  8 22  0 14 30.0000000  0  6 28 26 17 03 21 23
  21267378.51806 -11444195.76006  -8917549.64709  21267246.56306  21267248.26406
  21901656.57206 -11744971.39206  -9151896.33609  21901525.08406  21901527.30206
  19175122.64806 -24817443.85306 -19338241.91009  19174990.83906  19174992.33206
  20087493.77206 -16568703.39706 -12910669.91909  20087362.43506  20087365.16806
  20295628.63206 -19616701.61006 -15285706.27509  20295496.89106  20295499.13006
  19006830.42206 -28106275.48606 -21900947.54609  19006698.57106  19006699.82106
